GFSNGP_sfc_dewp_012.txt.gz
Dewpoint
22 22 25 24 20 20 17 22 24 25 16 15 16 20 24 28 30 30 30 37 38 40 42 42 42 43 40 38 39 37 34 28 33 35 34 33 34 34 34 33 32 32 32 33
36 28 26 25 24 21 18 17 18 16 17 15 24 24 24 24 25 30 29 29 37 41 43 43 42 42 38 36 37 35 33 33 33 32 32 33 33 35 35 34 32 30 30 32
34 30 31 30 33 26 24 19 19 22 23 21 21 23 28 29 28 30 32 33 36 40 42 42 42 42 38 36 36 33 31 30 31 33 32 33 32 31 31 31 32 31 31 30
38 33 29 22 21 20 21 20 19 17 19 19 28 28 26 27 30 32 35 35 37 39 41 41 40 39 37 35 33 31 29 29 31 33 33 30 30 28 30 31 31 31 30 29
37 31 24 21 17 18 19 20 23 23 23 25 27 29 27 34 35 36 36 36 37 37 40 41 39 38 34 33 29 28 28 29 31 32 25 26 27 29 29 30 30 31 30 28
35 35 31 31 25 28 25 25 25 26 28 27 28 40 34 38 39 37 34 33 34 37 38 39 40 37 33 31 28 30 33 30 27 29 25 25 28 29 31 31 30 30 29 29
36 37 36 25 26 26 28 33 33 33 32 34 35 38 38 39 40 37 36 36 38 39 39 38 37 34 30 29 30 28 29 34 35 29 27 28 29 30 30 30 31 31 29 29
41 35 32 26 26 32 40 41 35 35 36 39 38 38 37 36 36 36 35 35 37 31 28 28 30 29 28 31 32 31 35 36 30 29 28 26 31 30 31 31 31 30 31 31
36 38 38 30 33 34 36 38 36 37 35 38 37 38 38 38 38 36 33 29 26 28 28 30 32 32 30 34 36 37 35 30 31 31 29 28 29 29 30 30 32 31 31 31
39 26 27 30 29 32 31 35 35 36 38 40 40 41 39 39 35 26 23 24 25 29 35 36 37 36 35 35 31 31 32 32 32 32 30 30 29 29 29 32 32 31 31 30
32 32 30 27 35 36 37 39 41 42 41 39 39 39 39 31 26 26 31 33 34 33 32 31 31 32 32 32 31 31 32 32 32 32 32 31 30 29 31 30 30 30 31 30
41 37 39 37 40 41 41 39 37 37 34 33 33 31 33 32 32 33 33 34 34 34 33 32 31 30 30 30 31 32 32 32 33 33 33 31 31 30 30 31 32 32 29 29
38 41 41 41 38 37 37 37 37 36 37 36 35 35 35 35 36 36 35 35 34 33 31 29 28 30 31 33 33 32 31 32 33 31 32 32 32 31 30 32 32 32 30 29
39 41 39 37 36 38 38 37 37 36 36 37 36 36 36 35 35 34 33 32 30 29 30 30 31 31 33 33 32 31 32 31 31 32 32 33 32 33 33 32 31 31 32 29
37 37 36 36 37 37 37 36 35 34 34 34 34 34 33 31 30 29 28 28 29 29 28 29 30 31 31 31 30 30 31 32 32 33 33 32 33 32 30 30 32 31 31 31
35 36 36 36 35 35 35 34 33 33 32 34 35 35 33 33 32 29 26 31 30 31 32 32 32 32 33 32 31 31 31 31 31 32 33 32 31 30 29 30 30 31 33 32
36 35 35 35 34 34 33 34 36 36 34 31 30 32 32 32 31 31 32 34 33 32 33 33 33 33 34 34 32 32 33 33 32 33 33 32 32 31 31 30 30 30 30 32
37 37 36 35 34 35 35 34 33 32 32 31 31 31 31 30 30 31 32 33 32 32 33 34 33 34 34 34 34 33 33 33 33 33 33 33 33 34 34 33 32 31 30 30
35 35 35 35 33 33 32 33 33 32 31 31 31 30 30 30 30 29 30 30 31 32 32 30 28 28 29 29 30 31 32 33 34 33 32 32 34 33 32 30 31 31 31 30
30 30 30 33 34 33 32 32 34 33 32 30 30 29 27 26 28 26 28 28 29 30 27 26 25 25 25 26 27 27 27 28 28 30 31 32 33 33 33 32 32 32 32 31
31 32 33 32 31 32 31 31 30 28 28 28 26 25 25 27 28 26 26 25 27 25 25 23 23 25 24 23 23 26 27 27 28 28 28 29 32 32 32 31 31 31 32 31
33 33 32 31 30 29 29 29 29 28 27 25 23 22 23 23 23 24 23 24 24 23 21 22 23 17 18 19 24 25 24 23 24 28 30 31 31 31 31 30 30 31 32 31
33 32 31 30 30 28 27 28 27 25 23 24 22 23 22 22 22 21 21 22 23 21 21 23 17 14 15 21 20 20 20 18 18 19 21 23 23 24 24 24 24 25 24 24
32 30 29 30 30 28 23 20 23 25 23 24 23 22 21 22 23 22 22 21 19 19 20 21 17 14 16 18 17 16 16 14 14 15 16 17 18 19 19 19 19 19 18 19
29 29 29 29 24 21 19 18 20 20 19 19 19 19 21 21 21 21 21 21 18 19 19 18 18 13 15 15 15 14 14 14 12 12 12 12 13 14 14 14 14 14 14 14
29 25 21 20 19 18 17 17 19 19 18 20 19 22 23 22 21 19 19 18 18 17 17 17 17 16 14 13 13 13 11 11 10 9 10 10 11 10 10 10 9 10 11 11
22 24 22 20 16 17 18 18 19 18 21 19 17 20 21 20 20 17 16 17 16 16 15 15 15 14 12 12 11 10 10 8 8 7 6 6 7 6 7 7 9 9 10 11

GFSNGP_sfc_dewp_015.txt.gz
Dewpoint
29 32 28 28 27 26 19 26 24 24 25 24 23 24 25 29 29 29 29 34 38 39 42 42 43 43 42 43 38 37 33 31 34 37 36 33 33 32 32 33 30 31 32 33
32 32 31 28 28 27 27 25 23 21 21 22 25 23 24 25 25 28 29 30 34 42 43 42 44 44 43 41 39 34 31 32 34 35 34 34 33 33 33 34 32 32 31 32
28 29 27 22 26 27 27 27 26 20 21 25 28 28 25 26 28 30 30 33 35 39 43 43 44 44 41 38 37 33 33 33 34 33 33 34 34 33 32 33 32 31 31 31
27 26 14 25 27 22 26 25 24 25 27 27 26 29 35 34 33 33 34 34 35 36 39 42 43 42 39 36 34 32 31 31 33 34 34 34 34 32 30 30 30 30 31 31
24 26 26 23 24 27 24 24 27 27 27 28 29 30 37 38 37 36 35 34 33 35 37 39 39 40 36 33 31 30 31 32 35 34 33 34 32 32 32 31 30 29 30 30
28 24 17 28 29 29 27 25 32 31 31 32 31 29 35 37 37 37 35 36 35 32 32 37 38 35 32 29 30 32 32 35 34 33 33 30 32 32 32 30 29 30 28 29
25 23 28 34 28 30 20 26 34 32 34 34 34 37 37 38 37 36 33 29 29 31 32 32 31 30 30 31 34 35 36 35 35 36 34 32 31 31 30 30 30 30 28 28
32 29 25 31 28 23 36 35 34 33 34 34 35 38 39 39 37 30 28 28 30 32 32 32 33 33 34 35 35 35 35 35 36 35 32 30 30 30 30 30 30 30 28 28
33 32 37 30 30 36 34 32 33 34 38 39 40 41 39 26 25 26 27 31 34 34 36 36 35 35 35 34 34 36 37 37 34 33 32 30 30 29 29 29 28 30 29 28
31 30 31 29 30 34 38 39 42 41 40 41 40 37 27 26 29 30 33 34 35 34 32 32 33 34 35 35 34 34 33 33 33 33 32 31 30 30 29 28 27 28 28 28
32 32 38 41 41 42 40 41 36 35 35 35 32 29 30 32 32 32 32 32 32 32 32 32 33 33 33 33 32 31 31 32 32 31 32 31 31 30 29 29 29 27 26 28
30 39 40 39 39 38 37 36 36 36 35 35 34 34 34 34 34 34 35 35 34 33 32 32 32 31 30 30 31 31 31 31 30 30 30 31 30 30 31 31 30 31 31 28
40 41 39 38 38 38 37 37 37 37 36 35 35 35 35 35 35 35 34 34 34 33 32 30 30 30 30 31 31 30 30 29 28 29 28 28 29 28 27 29 32 32 32 32
41 39 37 38 37 37 36 36 37 36 36 36 35 35 34 34 34 34 33 33 30 29 29 28 29 30 31 32 32 31 30 30 29 29 29 30 29 28 25 25 26 27 30 32
37 38 38 37 37 36 35 35 34 34 34 33 35 35 34 33 32 30 31 30 29 29 31 32 30 29 31 33 32 30 29 28 29 30 30 30 29 29 30 29 28 27 28 26
37 37 37 36 35 34 34 33 33 34 34 32 30 31 30 30 30 32 33 32 29 28 30 29 30 31 33 33 33 32 31 29 29 30 30 30 31 31 31 30 28 27 27 28
35 35 35 34 34 34 35 35 34 31 30 30 30 30 30 30 30 30 30 30 30 30 31 31 28 29 30 31 29 29 29 30 30 31 32 31 32 32 32 30 29 28 28 28
37 36 35 34 35 34 32 31 30 30 29 30 30 30 29 28 28 28 26 26 28 30 28 27 26 26 26 26 27 27 27 26 25 25 26 27 28 31 31 31 31 32 32 32
35 35 35 34 33 32 31 31 30 30 30 29 29 28 24 23 24 25 25 21 23 24 25 23 24 24 22 22 20 20 21 21 23 24 25 25 25 26 28 29 31 32 31 31
33 33 33 32 32 32 31 32 30 29 28 27 23 21 22 20 19 18 20 23 24 23 21 21 20 16 16 17 18 21 22 22 20 20 21 21 25 28 28 28 29 31 32 31
31 31 31 30 30 30 30 29 26 26 27 23 21 17 15 19 17 13 19 21 22 18 19 20 17 13 14 15 17 17 17 16 15 15 17 18 19 20 23 26 28 30 29 26
32 30 30 30 29 28 28 27 26 24 23 19 14 13 12 19 16 18 15 19 21 13 17 19 16 9 12 14 15 14 14 11 10 12 13 14 14 16 16 16 18 18 20 21
32 31 30 29 26 27 27 24 21 20 17 15 13 15 16 20 20 17 16 19 18 15 17 18 10 7 6 12 12 10 10 10 7 8 10 10 12 12 12 12 13 13 15 15
30 30 30 29 26 25 22 24 23 21 16 20 13 10 19 12 10 19 18 14 8 8 9 13 12 7 3 3 9 10 8 9 8 5 7 7 9 9 9 9 9 10 11 12
29 29 28 26 22 20 20 21 21 20 20 20 19 21 20 20 10 12 8 8 12 10 5 5 7 5 -0 -2 3 8 8 4 7 2 3 3 5 4 6 7 7 9 9 10
27 21 20 20 20 19 20 20 18 19 18 13 13 7 12 12 12 11 8 8 9 8 4 -1 0 3 3 -0 -0 -4 3 2 3 2 -1 -1 1 0 2 3 5 5 6 7
24 22 19 18 19 19 18 18 14 10 11 4 5 5 16 9 4 7 2 1 1 -0 -2 -1 -3 0 5 1 -4 -5 -6 -4 -1 -0 -10 -5 -3 -2 -1 -0 1 1 4 3

GFSNGP_sfc_dewp_018.txt.gz
Dewpoint
27 31 30 28 27 27 23 24 23 23 24 22 22 23 24 26 27 34 40 40 39 40 39 42 43 44 44 40 39 37 36 36 37 36 36 36 34 32 32 32 31 31 31 33
29 31 30 27 27 27 27 26 25 23 22 25 25 27 28 28 28 28 29 32 36 38 41 42 43 43 44 41 40 37 36 35 36 38 35 35 34 33 32 33 33 32 32 33
26 28 26 25 25 25 26 26 27 23 24 28 29 32 30 29 32 32 34 35 37 42 42 43 44 44 44 43 40 36 34 34 37 35 34 35 33 32 33 34 34 33 33 33
26 24 18 28 28 27 26 25 27 26 26 31 33 35 35 34 33 33 34 34 35 35 42 43 44 44 44 40 36 34 34 34 34 35 34 34 34 34 35 34 31 31 30 31
23 24 25 25 23 21 23 26 29 27 28 30 35 35 35 38 36 36 36 36 33 33 34 39 42 41 36 33 31 32 33 35 34 35 33 34 34 35 34 33 32 30 30 31
28 22 17 26 29 29 27 25 31 32 32 31 30 30 34 37 37 34 29 31 32 32 31 31 33 33 31 32 33 34 34 33 34 34 34 35 36 36 35 31 30 31 30 29
22 20 24 29 30 27 16 21 33 34 34 33 33 35 37 35 30 29 31 32 32 32 32 31 32 34 34 34 34 35 36 36 37 37 38 38 36 33 31 30 30 30 30 30
30 24 20 34 27 23 28 35 34 33 34 38 40 36 31 29 29 29 32 33 34 33 33 34 34 34 33 34 35 36 36 38 39 38 37 33 30 30 29 29 29 29 29 29
30 29 34 31 32 37 35 33 34 39 40 41 38 29 28 27 31 34 34 34 34 34 34 35 34 33 33 34 36 37 37 38 38 34 33 32 30 30 29 29 27 27 27 25
32 32 35 33 39 39 41 41 39 40 40 38 30 28 31 33 33 34 34 33 32 32 31 32 34 34 34 34 33 33 32 32 32 32 32 32 31 31 29 27 26 28 27 26
31 38 40 41 41 39 36 36 36 35 33 30 32 32 32 32 32 32 32 33 32 32 32 32 32 32 32 32 31 30 30 31 31 29 30 30 30 30 29 29 28 27 27 26
30 35 37 38 38 38 36 36 36 35 35 35 34 34 34 34 35 34 34 34 33 32 32 31 31 29 30 31 30 30 30 30 28 28 27 29 29 30 31 31 31 31 31 28
40 40 38 38 38 37 36 36 36 35 35 35 35 35 35 34 33 34 33 32 32 32 30 29 29 30 31 31 31 30 29 29 28 28 28 27 28 28 27 29 31 32 32 32
38 38 37 38 36 36 36 36 36 35 35 35 35 34 32 32 32 32 31 30 29 30 31 30 30 30 32 33 32 30 29 29 28 29 29 29 28 28 29 29 29 31 29 30
38 38 38 36 35 35 35 34 33 33 34 32 32 31 31 30 31 31 32 31 30 31 31 30 29 29 32 33 31 31 30 29 29 29 30 31 31 31 31 31 31 32 31 27
37 36 35 34 34 34 33 33 33 32 29 29 29 30 31 31 31 30 30 29 30 29 29 27 25 25 27 26 26 26 27 26 25 25 24 24 25 26 27 30 32 32 31 29
35 34 34 33 33 34 33 32 30 29 29 29 29 29 29 29 27 26 27 29 30 29 25 23 23 25 25 23 19 19 20 21 21 22 23 23 23 23 24 24 24 25 27 31
36 35 34 35 34 32 30 30 29 29 30 31 29 25 23 23 24 25 25 24 26 22 22 23 21 19 18 18 20 20 20 21 22 20 19 20 20 20 21 23 24 24 25 27
35 35 35 33 31 30 29 29 29 30 29 28 23 23 22 22 23 23 23 20 18 18 20 20 18 15 14 17 18 18 17 15 15 15 15 16 16 16 18 18 18 20 24 27
33 32 32 32 31 31 30 30 29 28 27 23 21 20 21 18 17 19 20 18 16 18 21 16 13 12 13 15 14 14 15 9 9 11 11 11 11 12 14 13 13 14 15 18
30 30 30 30 30 30 29 27 26 25 22 20 19 16 15 18 17 13 17 19 17 17 19 16 13 12 11 12 12 7 10 5 5 7 7 7 8 9 9 9 11 11 13 13
30 29 29 29 28 27 26 26 25 22 20 17 13 12 16 19 16 17 13 16 17 10 16 17 14 4 9 6 12 2 7 9 2 4 5 5 5 6 5 6 7 8 10 11
30 29 28 27 26 25 24 23 22 20 17 15 13 14 18 20 18 13 12 17 17 11 16 11 5 1 0 -4 -4 -4 -6 -2 -1 -0 1 1 3 3 3 4 4 6 7 8
30 29 27 26 25 23 20 20 21 20 17 18 14 11 18 12 7 17 16 9 2 1 1 1 1 1 -3 -7 -9 -8 -8 -9 -2 -9 -3 -5 -1 -2 -1 0 1 3 4 5
30 29 25 24 21 21 23 20 20 21 19 16 17 20 19 17 8 9 3 4 8 5 -1 -4 -1 -2 -9 -12 -13 -13 -12 -13 -9 -8 -14 -9 -5 -5 -5 -3 -3 -1 -0 3
25 22 21 20 20 20 20 19 18 18 16 12 10 1 10 12 9 7 2 1 3 2 -4 -10 -11 -10 -10 -8 -12 -15 -13 -11 -10 -7 -17 -13 -9 -7 -6 -5 -5 -4 -4 -1
23 23 22 21 20 19 18 16 13 13 9 4 5 3 8 1 -3 1 -6 -7 -5 -8 -11 -10 -13 -10 -10 -6 -6 -12 -13 -14 -14 -11 -20 -19 -14 -11 -7 -7 -8 -7 -5 -3

GFSNGP_sfc_dewp_021.txt.gz
Dewpoint
25 25 29 26 26 25 24 24 23 23 25 25 23 23 23 25 28 38 42 43 42 44 45 46 47 48 47 45 41 42 39 38 36 39 37 35 35 33 34 34 32 31 32 33
29 30 29 26 26 26 26 25 25 24 22 25 27 27 28 28 29 30 33 36 39 40 42 41 43 45 45 43 42 41 38 36 38 38 38 36 35 35 35 34 33 32 34 34
23 28 27 24 26 26 25 26 25 23 24 28 30 30 31 33 33 33 34 34 35 38 42 42 42 44 44 41 41 38 37 37 39 40 36 35 34 34 35 35 37 37 34 32
24 25 18 25 29 27 26 26 26 26 29 32 33 34 33 33 34 34 35 35 34 34 35 40 44 44 44 40 38 37 37 37 37 36 34 34 34 35 36 37 36 35 33 31
25 24 25 25 24 26 24 24 29 30 33 35 35 34 34 36 36 35 33 32 32 32 32 35 40 39 34 33 33 35 35 35 35 35 35 36 36 37 38 37 36 33 31 31
26 23 20 27 28 28 28 24 30 31 33 34 31 28 33 36 32 31 32 32 32 32 32 32 32 33 33 34 33 33 35 34 35 36 37 38 38 38 38 35 31 31 30 30
23 21 24 27 29 25 21 23 32 33 33 32 31 33 34 31 31 32 33 33 33 34 34 34 34 35 34 34 34 35 37 38 39 39 39 39 38 38 35 31 30 29 29 29
25 20 20 31 29 21 27 34 35 34 34 37 36 33 31 30 32 33 33 33 33 33 33 33 34 34 34 34 36 37 39 39 40 40 39 38 36 32 30 29 28 28 27 28
29 28 32 33 29 32 35 34 33 35 39 37 31 29 30 33 33 33 33 33 33 33 34 34 34 34 34 35 37 38 38 38 38 37 35 33 31 30 30 29 27 27 27 27
31 33 34 35 39 37 36 37 40 41 40 32 29 30 32 33 33 32 31 31 31 32 32 32 33 33 33 33 33 32 31 31 31 31 31 31 31 31 30 27 26 27 27 28
33 38 39 39 39 37 36 36 34 32 31 31 32 32 32 31 32 32 32 32 32 32 31 31 31 31 31 30 30 29 30 30 30 28 29 30 29 30 30 29 29 29 28 28
31 38 35 39 37 37 36 35 34 33 33 33 32 32 33 33 33 33 32 32 31 31 30 30 29 30 31 31 30 30 30 29 28 28 28 28 28 28 31 32 31 31 31 30
34 39 39 37 37 37 36 35 35 35 34 34 34 34 34 33 32 33 31 31 29 29 29 30 30 30 31 31 30 30 29 29 28 28 28 28 28 28 27 29 31 31 32 32
38 37 36 37 35 36 36 35 36 35 35 35 34 33 32 31 30 30 29 30 31 30 30 28 27 27 29 29 27 28 27 27 26 26 26 26 25 26 27 26 27 28 30 31
37 38 37 36 35 34 34 33 33 33 32 31 32 32 31 30 30 29 30 30 29 28 26 24 24 25 26 24 23 24 23 23 23 22 22 22 23 22 22 22 22 22 23 24
36 35 35 34 33 33 33 33 31 30 29 31 31 31 31 30 29 29 29 29 27 23 22 21 23 21 22 19 19 19 20 20 19 21 21 19 19 20 19 19 19 20 22 22
34 33 33 32 32 32 32 31 30 28 29 29 29 29 27 26 27 28 29 26 22 22 23 20 17 16 18 17 18 19 19 18 18 18 17 17 17 16 17 17 18 16 16 17
36 35 34 33 33 31 30 30 29 29 29 29 26 24 23 24 24 24 25 23 20 20 20 17 15 13 15 15 16 16 16 12 12 13 13 13 13 13 13 14 13 13 13 14
35 35 34 33 31 30 29 29 29 29 27 25 25 24 22 22 23 21 19 15 14 17 18 15 16 13 12 14 13 13 14 6 7 9 9 8 8 8 10 9 9 10 10 11
33 32 31 30 30 29 29 30 29 26 25 24 21 20 20 19 19 17 17 15 15 19 17 14 12 10 10 11 9 10 10 1 5 4 5 5 3 4 5 5 5 6 7 8
31 31 30 30 29 29 29 26 24 23 23 20 20 18 18 19 16 14 17 16 15 17 17 14 12 12 9 9 10 -1 1 -2 -4 -0 -3 -0 -0 2 1 2 2 3 4 5
31 30 29 28 27 26 25 23 22 21 19 16 15 16 16 17 15 15 12 15 16 11 16 15 13 3 6 3 7 -4 0 -1 -3 -8 -6 -5 -4 -2 -4 -2 -1 -1 1 3
30 29 28 27 26 25 24 21 20 18 16 16 16 17 18 17 17 13 13 16 16 10 14 6 3 -2 -4 -10 -10 -12 -12 -13 -10 -11 -14 -15 -12 -9 -7 -6 -5 -4 -3 -2
28 27 26 24 23 22 22 20 19 19 16 17 13 12 17 13 11 16 15 8 2 -2 -1 -5 -5 -4 -8 -13 -14 -16 -15 -18 -17 -17 -15 -15 -18 -14 -14 -10 -8 -7 -6 -6
26 25 24 23 22 21 21 21 20 19 18 19 19 19 17 16 10 10 4 3 6 3 -3 -9 -6 -8 -14 -17 -18 -19 -18 -20 -20 -19 -23 -23 -17 -16 -15 -12 -10 -9 -8 -8
24 22 22 22 22 21 20 20 19 17 14 10 11 8 8 9 9 7 1 -1 1 -1 -6 -14 -16 -16 -17 -12 -13 -17 -18 -17 -20 -18 -23 -23 -20 -17 -17 -13 -13 -12 -12 -10
23 22 21 20 20 18 17 16 16 14 10 8 9 10 8 4 1 1 -8 -10 -10 -13 -14 -16 -17 -14 -15 -17 -14 -11 -15 -19 -20 -18 -26 -26 -24 -23 -20 -16 -14 -14 -14 -13

GFSNGP_sfc_dewp_024.txt.gz
Dewpoint
23 25 28 26 25 27 25 25 23 24 23 24 25 24 24 24 31 40 42 44 45 46 47 48 48 48 47 46 45 44 43 42 42 41 40 39 35 35 35 35 33 33 33 33
28 29 28 26 26 26 26 25 24 24 23 26 26 28 29 28 32 35 37 38 39 41 41 42 45 47 46 44 42 42 42 41 41 40 38 37 36 35 34 33 32 32 33 38
23 27 26 24 26 26 27 27 26 24 25 27 29 31 31 33 33 33 33 34 34 34 37 40 43 43 44 43 42 41 40 39 39 38 37 37 34 34 34 35 37 38 39 37
23 24 17 25 29 27 26 25 26 26 26 29 31 32 33 34 34 34 33 32 32 32 34 37 42 43 41 40 39 38 37 37 37 36 36 35 35 36 37 39 39 39 38 36
24 24 23 25 26 26 25 23 27 26 32 33 35 34 35 34 33 32 33 32 32 32 32 33 33 34 35 35 35 35 35 35 35 36 36 37 37 38 39 39 39 38 36 32
24 21 19 26 28 27 26 22 29 33 34 35 32 26 32 32 32 32 32 33 33 34 34 34 34 34 33 33 34 34 35 35 37 38 39 39 39 39 39 38 37 33 32 32
22 21 27 29 28 26 21 24 31 34 35 33 29 29 33 33 33 33 33 33 33 33 33 34 34 35 34 35 35 37 38 39 39 40 40 39 39 39 37 36 34 31 29 29
24 21 25 29 28 24 29 32 33 34 34 34 34 32 32 33 33 33 32 33 33 33 33 34 34 35 35 35 37 38 38 39 39 40 39 38 37 36 32 30 28 28 26 28
30 30 33 32 29 29 33 34 34 34 36 36 31 30 33 32 32 32 32 32 33 33 33 34 34 35 34 35 36 36 35 34 33 32 32 32 30 29 29 28 26 27 28 28
30 32 32 33 36 35 34 34 36 37 37 34 30 32 32 32 31 31 31 31 32 32 31 31 31 31 31 31 30 30 29 29 30 29 30 29 29 29 28 27 26 28 28 28
31 36 38 38 39 36 36 36 34 33 31 31 32 32 32 31 31 31 31 32 31 30 30 29 30 31 31 31 30 30 30 29 29 28 28 28 28 28 28 28 28 28 29 28
31 35 33 32 37 37 35 34 34 32 32 32 32 31 32 32 32 32 31 31 30 29 29 30 30 30 30 30 29 28 27 27 26 26 25 27 27 25 28 30 30 31 32 31
33 38 37 37 36 36 35 34 34 33 32 32 32 32 32 32 32 32 30 29 29 30 30 28 27 26 26 27 27 26 25 25 24 24 23 23 22 22 21 22 23 24 25 25
37 37 35 36 35 35 35 35 35 34 34 33 33 33 32 31 30 30 30 30 29 27 26 25 25 24 21 21 22 21 22 23 22 22 21 21 19 20 21 20 18 18 20 20
37 37 37 35 35 34 34 33 33 32 32 32 32 31 30 29 29 30 30 28 25 24 23 21 19 19 19 19 18 19 19 19 20 18 18 18 18 18 17 17 17 17 16 16
35 35 35 33 33 33 32 32 31 30 31 31 30 30 30 29 29 29 28 26 23 21 19 17 17 16 17 17 17 17 17 16 16 16 16 15 15 14 14 13 14 13 13 13
34 32 33 32 32 32 31 30 30 30 31 30 30 29 28 29 28 25 23 22 22 20 18 16 14 14 15 15 14 15 13 12 12 13 12 12 11 11 11 11 9 9 10 10
37 35 35 33 32 31 30 29 29 30 29 29 27 26 26 27 26 23 21 21 20 18 16 14 13 12 13 12 10 12 10 8 9 9 9 8 7 8 8 7 6 6 6 7
35 34 33 32 31 30 29 29 29 28 26 26 25 25 24 24 23 20 18 16 16 17 15 13 15 12 10 13 10 10 10 3 4 6 4 3 2 2 4 2 3 2 3 4
32 31 30 30 30 30 29 29 27 26 26 24 24 23 22 20 17 16 16 15 17 18 15 12 11 10 9 10 8 7 6 -2 2 0 -2 -1 -7 -8 -5 -3 -1 -1 -2 0
31 30 29 29 28 28 28 27 26 24 23 23 22 21 20 19 16 15 16 15 15 18 14 13 11 11 8 8 8 -4 -5 -9 -9 -8 -15 -14 -15 -10 -12 -11 -7 -6 -5 -3
30 28 28 28 26 25 24 24 24 22 20 19 19 18 17 16 14 15 12 15 15 12 14 13 12 3 6 4 5 -7 -3 -7 -8 -13 -15 -16 -17 -17 -14 -16 -11 -9 -8 -7
29 28 28 27 25 23 22 21 21 20 19 18 18 18 18 18 17 14 14 15 15 10 12 7 6 -2 -5 -11 -13 -15 -15 -17 -17 -16 -21 -24 -24 -23 -19 -14 -13 -12 -11 -10
28 27 26 25 22 20 18 18 18 19 19 19 16 16 17 13 9 15 14 7 2 -1 -1 -4 3 -0 -7 -15 -17 -19 -19 -22 -22 -22 -20 -21 -27 -26 -22 -20 -17 -13 -13 -13
26 25 24 23 22 21 19 19 20 20 20 19 18 17 16 15 9 9 4 5 7 4 -1 -8 -6 -9 -17 -19 -19 -20 -22 -24 -25 -24 -26 -28 -26 -26 -24 -22 -20 -17 -15 -15
24 23 23 23 22 22 22 21 18 17 15 14 14 10 8 10 9 8 3 1 2 -0 -3 -13 -16 -19 -20 -18 -19 -20 -17 -18 -22 -22 -26 -28 -29 -24 -25 -22 -21 -19 -18 -17
21 21 20 19 19 18 19 19 17 15 13 13 12 10 7 5 1 3 -6 -8 -10 -14 -15 -15 -18 -17 -18 -21 -21 -18 -15 -19 -23 -20 -29 -31 -31 -30 -27 -26 -23 -21 -19 -19

GFSNGP_sfc_dewp_027.txt.gz
Dewpoint
24 22 26 26 26 27 25 28 28 27 25 25 27 28 27 28 36 40 42 43 45 47 49 50 50 50 49 49 48 47 46 46 46 46 44 41 39 38 37 36 35 35 36 37
26 28 27 28 27 27 27 26 26 25 25 28 28 27 29 32 37 37 37 37 39 41 42 43 44 47 48 48 47 46 45 44 44 43 40 39 38 38 37 36 35 33 35 40
25 28 28 28 30 28 28 28 29 27 30 28 28 31 31 35 34 34 34 34 35 37 40 43 44 45 46 46 44 44 43 43 42 40 39 38 37 36 35 35 37 39 41 41
29 28 26 28 29 28 29 28 28 27 28 28 30 33 34 34 34 33 33 33 33 35 36 37 39 39 41 41 41 40 39 39 39 39 37 36 36 37 39 40 41 41 40 40
30 27 26 24 28 28 28 24 28 27 28 31 35 35 34 33 34 34 33 33 34 35 35 36 36 37 37 37 37 37 37 36 36 37 36 38 39 40 41 40 40 40 39 39
27 27 25 31 28 30 27 25 29 30 33 34 35 34 34 33 33 33 34 34 34 35 35 35 35 35 35 35 36 36 37 37 38 38 39 39 40 40 41 40 39 38 37 37
27 32 30 31 28 29 27 28 33 33 35 36 33 34 35 34 33 33 33 33 34 35 34 35 36 36 36 37 37 38 39 39 39 39 40 40 40 39 38 37 37 36 34 34
30 32 29 32 27 29 35 33 35 37 38 38 34 34 33 33 33 33 33 33 33 34 34 35 36 36 36 38 39 39 39 38 37 37 36 35 35 34 33 33 33 33 34 33
34 35 38 33 36 34 34 35 36 38 37 36 34 33 33 32 32 32 32 32 33 34 34 34 33 34 33 33 32 31 31 31 31 31 30 30 31 31 30 31 31 31 31 32
35 35 34 35 35 36 35 36 35 37 37 34 33 33 32 32 31 32 32 32 31 31 29 30 30 31 31 31 31 31 31 30 29 28 28 27 26 26 26 27 28 28 28 28
33 33 39 38 38 37 37 39 37 36 36 34 33 32 31 31 31 32 31 30 29 29 30 31 30 30 29 29 29 27 26 24 23 24 21 21 20 21 22 23 26 25 25 25
34 34 37 36 39 38 37 36 35 34 33 33 33 31 31 31 32 31 30 29 29 30 30 28 26 25 25 24 23 22 21 20 22 22 21 19 18 17 21 22 22 22 22 23
35 38 37 37 37 36 35 35 34 34 33 32 32 31 31 32 31 31 29 30 30 28 26 24 21 19 20 21 20 20 19 19 20 20 19 17 17 17 17 18 19 19 19 19
38 38 36 36 36 35 35 34 34 33 33 33 32 32 32 31 30 29 30 29 27 25 24 22 18 16 17 17 17 18 18 20 19 18 17 17 17 17 17 17 17 17 16 16
37 37 37 36 35 34 34 34 33 33 33 32 32 32 31 30 30 29 27 25 24 22 19 17 16 15 17 16 14 15 13 13 17 18 17 16 15 15 15 14 14 13 13 13
35 35 35 35 34 33 33 33 32 32 32 32 31 30 30 30 29 26 24 24 22 18 15 18 16 15 15 15 13 13 13 14 14 14 14 13 12 12 11 12 11 11 10 10
34 33 33 33 33 33 32 33 32 32 31 31 30 30 30 28 26 24 22 20 20 19 17 16 14 13 13 11 11 12 11 11 11 11 10 10 9 10 9 9 8 8 9 10
37 35 35 34 33 32 31 32 32 31 30 29 30 29 28 27 24 23 21 20 19 17 15 13 12 12 11 9 9 11 9 8 8 8 8 8 6 6 7 6 5 6 6 6
36 35 34 33 31 31 31 31 30 29 29 29 28 28 27 25 23 22 21 20 18 16 13 13 14 11 10 11 9 9 8 7 6 5 5 3 4 3 4 4 4 5 4 3
31 31 31 30 31 30 28 28 28 28 28 26 26 25 23 22 21 20 19 18 17 16 13 12 10 9 9 9 8 6 7 7 4 4 4 2 1 1 2 -0 -0 2 2 2
30 30 29 28 28 29 29 29 28 26 26 27 25 23 22 19 18 18 17 15 16 16 13 12 10 9 7 8 6 8 6 6 5 3 1 -0 -1 -1 -1 -1 -0 -0 1 0
29 28 28 27 27 26 27 27 26 25 23 22 22 21 19 18 18 17 18 16 16 16 14 13 11 8 7 7 6 8 5 3 3 3 1 -0 -1 -2 -3 -3 -3 -2 -1 -1
29 28 28 26 25 24 24 24 23 22 21 21 20 20 18 17 16 15 14 15 15 14 13 12 8 4 3 9 8 6 4 2 1 1 0 -1 -3 -4 -5 -5 -6 -4 -4 -3
27 26 24 24 24 23 20 19 19 20 21 20 19 19 17 16 16 16 16 13 11 12 12 10 9 4 2 7 6 5 4 2 1 1 -1 -8 -3 -5 -6 -8 -8 -6 -6 -6
26 26 25 24 22 20 19 19 19 19 19 18 18 17 16 15 17 15 14 13 11 11 10 3 -0 -2 5 5 5 3 3 2 1 -1 -1 -3 -5 -6 -7 -8 -10 -9 -9 -8
22 21 21 22 22 22 22 21 19 19 18 17 16 16 15 15 13 12 12 10 9 7 9 6 5 3 3 3 2 1 1 1 -0 -1 -4 -4 -6 -8 -9 -11 -11 -11 -10 -10
19 20 19 17 18 18 18 19 18 16 17 18 16 14 12 12 10 9 7 8 7 6 5 5 4 2 3 2 1 1 1 1 -3 -2 -3 -6 -8 -9 -11 -12 -12 -12 -12 -12

GFSNGP_sfc_dewp_030.txt.gz
Dewpoint
19 18 17 18 17 21 22 23 22 21 20 23 22 25 27 29 32 36 40 43 46 48 50 51 53 53 52 53 52 52 51 50 51 51 51 50 49 48 46 44 40 37 36 37
25 21 21 20 19 18 20 19 18 23 23 25 26 28 28 30 35 38 40 42 43 43 43 43 45 47 49 49 49 49 48 48 47 47 46 45 43 41 40 38 36 36 36 38
23 28 26 28 27 22 22 22 24 24 27 25 27 28 30 34 36 37 37 37 39 41 43 43 44 46 46 46 46 46 46 45 44 44 42 42 40 37 36 35 37 37 39 39
29 33 31 23 28 25 24 23 26 27 26 26 26 30 33 35 36 35 35 36 38 39 40 41 42 42 43 42 42 42 41 41 42 41 40 38 37 37 37 39 40 41 41 39
36 28 25 24 27 28 29 26 27 28 26 26 32 34 35 35 36 36 37 37 38 39 39 39 39 39 39 39 39 38 38 38 38 39 39 39 38 39 41 40 40 40 38 38
32 28 31 27 26 29 29 25 26 27 28 30 34 34 31 35 36 36 36 36 37 37 37 38 38 38 38 38 38 38 39 38 38 39 39 39 40 40 40 40 40 40 39 38
33 34 29 29 28 29 27 29 31 30 31 34 35 33 36 36 36 35 35 35 37 37 37 37 38 38 38 38 37 38 38 38 38 39 39 39 40 39 38 37 37 38 36 36
35 36 33 32 29 30 34 37 35 36 35 38 37 38 36 36 35 34 34 34 35 36 36 37 37 37 36 37 37 38 38 37 37 36 34 33 33 32 30 30 32 32 35 33
34 33 37 34 34 35 37 34 36 37 36 39 37 36 35 35 34 34 34 34 35 35 36 36 36 36 35 35 34 33 31 30 30 29 29 29 30 30 29 29 30 31 29 30
35 32 35 36 34 35 34 35 34 35 37 38 37 36 35 34 34 33 33 33 33 32 32 32 31 31 31 30 29 29 29 28 28 26 25 24 22 20 21 23 24 22 22 23
36 35 35 37 36 35 35 36 35 36 38 37 36 35 34 34 33 32 32 32 31 32 31 30 29 29 29 28 26 26 25 23 23 23 19 17 15 18 19 21 22 22 22 21
37 35 36 33 36 38 37 37 36 37 37 36 35 35 34 33 33 32 32 30 30 30 29 28 26 25 25 24 24 23 20 19 22 21 20 15 14 16 22 21 20 20 20 21
35 36 38 38 38 39 37 37 37 37 37 35 35 34 34 33 33 32 31 31 30 28 27 25 23 22 20 21 20 19 16 17 19 19 17 16 17 17 16 20 17 16 16 16
39 39 37 37 36 38 37 37 38 36 36 35 34 34 34 33 32 31 31 30 28 26 23 21 19 17 17 16 17 17 17 19 17 17 16 18 17 18 18 18 19 18 15 13
39 38 38 38 37 36 36 35 35 34 34 34 34 34 34 31 31 31 29 27 26 24 21 18 16 15 16 14 11 12 12 14 18 20 19 17 17 17 16 16 16 15 15 13
37 37 37 36 35 35 35 35 34 34 34 34 34 33 32 31 30 28 26 25 23 20 18 21 16 14 15 12 11 11 14 15 15 16 17 15 14 14 13 14 14 14 13 13
37 36 36 35 35 35 35 35 34 34 35 34 33 33 31 29 27 26 23 21 21 21 20 19 14 12 13 10 9 10 13 14 13 15 14 13 14 14 12 13 13 12 13 14
38 37 37 37 35 35 35 35 35 34 34 32 32 30 29 26 24 23 22 22 21 19 15 14 13 11 9 8 10 10 11 11 12 12 12 14 10 10 12 11 10 10 11 11
37 36 36 35 35 35 35 33 33 32 31 31 29 27 27 27 25 23 23 21 20 17 13 13 15 12 10 11 9 11 11 13 12 9 11 8 12 10 11 11 10 10 10 9
34 34 33 32 32 31 30 30 29 29 29 29 28 26 24 24 25 24 23 21 19 16 13 12 10 9 9 8 6 8 12 14 9 10 11 8 11 10 10 6 7 9 10 10
31 30 29 29 29 30 30 30 30 30 30 30 28 26 23 23 23 22 20 16 16 15 13 13 11 9 8 8 6 15 13 13 12 10 10 10 9 8 8 8 8 8 9 9
29 28 28 29 28 28 30 29 28 27 26 25 24 23 22 21 21 20 21 18 16 16 14 14 12 10 9 6 9 13 11 9 9 10 9 8 7 7 7 7 6 7 7 7
28 28 27 27 26 25 26 26 26 25 24 24 24 24 22 20 18 17 15 15 16 15 14 15 11 9 6 13 14 12 11 8 8 8 8 7 7 6 5 4 4 3 4 4
27 26 26 27 26 24 22 22 22 21 22 21 21 21 19 20 19 17 17 16 15 15 15 14 12 5 7 13 11 10 9 9 8 8 7 3 6 5 4 3 1 2 1 1
26 26 25 24 22 22 22 22 21 21 21 20 19 19 19 20 22 19 19 17 13 12 15 8 3 1 11 11 10 8 8 9 8 7 6 5 4 3 3 2 0 0 -1 -1
22 21 21 22 23 23 23 22 21 22 21 20 20 21 20 19 18 17 17 14 12 9 12 13 12 11 10 9 8 7 7 7 6 6 4 3 3 2 1 -0 -2 -2 -2 -2
19 20 19 18 18 19 20 20 20 19 20 21 19 20 18 18 17 14 12 14 14 12 12 11 11 8 8 8 7 7 6 6 4 3 3 3 2 1 -0 -2 -3 -3 -4 -5

GFSNGP_sfc_dewp_033.txt.gz
Dewpoint
22 18 17 16 18 20 21 24 26 25 21 19 20 22 21 29 29 28 31 37 40 44 48 51 53 53 54 55 55 54 53 53 54 54 53 52 52 51 50 48 45 43 41 40
22 19 16 16 15 16 18 20 21 21 21 20 20 21 23 25 29 31 36 40 44 47 49 51 51 52 52 51 51 51 50 49 50 50 49 49 47 46 45 44 42 39 38 38
27 21 20 25 21 19 18 16 19 21 21 20 19 23 26 25 31 34 38 41 42 43 44 45 45 47 47 47 47 47 46 46 46 46 45 44 42 40 39 39 38 38 39 40
31 35 28 25 24 22 22 20 19 18 18 20 23 25 27 28 33 37 38 40 41 41 41 42 43 43 44 43 43 43 43 43 43 43 41 40 39 38 38 38 38 38 38 37
34 29 24 20 23 25 23 22 22 22 22 24 25 31 33 33 36 38 38 39 39 40 40 40 40 40 40 40 40 40 40 40 40 41 40 39 39 40 40 40 39 39 38 37
34 28 27 27 24 25 25 26 24 24 25 26 29 34 29 36 37 37 38 38 38 39 39 39 39 39 39 39 39 39 40 39 39 39 39 40 40 40 41 40 40 40 40 40
36 32 29 25 24 26 28 28 26 26 27 27 28 33 36 38 38 37 37 37 38 38 38 38 39 39 38 38 38 38 38 38 39 40 40 40 40 40 39 39 39 40 37 36
36 34 32 28 29 28 31 33 33 33 30 32 32 38 38 37 36 36 36 36 37 38 38 38 38 38 37 37 38 38 38 38 38 38 36 35 34 32 29 30 32 33 34 33
33 33 37 35 33 33 31 34 36 34 31 33 40 38 37 36 36 36 36 36 36 37 38 38 37 37 36 37 36 35 33 31 29 27 27 27 28 28 27 27 29 29 26 27
36 35 33 34 34 32 34 36 34 34 33 36 40 38 37 36 36 35 35 35 36 37 36 36 36 35 35 33 32 31 30 28 27 25 24 23 20 18 19 25 24 22 22 22
33 32 34 35 36 36 34 36 34 34 34 37 38 37 36 36 35 34 34 35 35 34 33 33 32 31 30 29 28 26 25 24 24 22 19 17 17 18 21 22 21 21 22 21
37 34 39 36 35 36 36 36 36 34 36 38 37 36 36 36 35 34 34 34 33 33 32 31 30 28 27 26 25 24 22 22 25 24 20 15 16 22 22 21 20 20 19 20
36 38 39 39 39 37 36 36 37 36 36 36 37 36 36 36 35 35 34 33 33 32 30 28 26 24 23 24 24 22 21 20 20 21 18 17 18 18 18 22 20 20 18 15
37 39 38 37 35 38 39 37 38 36 37 37 36 36 36 35 35 34 33 32 31 29 27 25 22 20 20 19 18 19 18 23 18 18 17 19 18 19 18 19 20 20 19 13
39 40 39 39 37 38 37 37 37 36 36 37 36 36 36 35 33 32 32 30 27 25 22 20 19 16 15 14 13 15 16 16 20 22 20 18 18 18 17 17 17 16 16 17
39 38 37 38 36 36 36 36 36 36 37 37 36 36 35 34 33 31 29 27 25 21 19 22 18 16 15 12 13 14 15 17 18 18 17 16 16 15 14 15 15 15 15 15
39 39 38 38 37 36 36 36 36 36 37 36 36 36 33 32 28 24 22 22 23 23 21 20 17 16 15 12 11 12 15 15 15 15 15 14 15 15 13 14 14 14 15 16
39 39 39 39 38 37 36 37 37 37 36 34 33 32 28 26 24 23 23 23 23 22 23 23 20 12 10 11 11 12 13 13 13 14 13 15 13 12 13 13 13 12 13 14
38 38 38 37 37 37 37 35 33 32 31 30 29 27 26 25 24 23 24 22 21 20 19 20 18 13 10 13 11 13 13 14 13 11 13 10 14 13 13 14 13 13 12 12
32 32 32 31 32 31 30 31 30 29 29 28 27 26 24 24 24 25 25 24 23 20 17 13 11 11 9 9 10 10 13 15 12 11 14 11 14 13 13 10 11 12 13 13
29 30 29 29 29 31 31 31 30 29 30 29 27 25 25 25 24 24 22 18 18 17 15 14 12 9 8 8 7 16 15 15 13 13 13 13 13 13 12 12 12 12 12 11
29 28 27 28 27 27 29 29 28 26 25 25 24 24 23 22 22 22 24 19 19 18 15 14 12 11 10 11 11 15 13 12 12 13 12 12 11 11 11 11 10 10 9 9
28 27 27 26 25 25 25 25 26 26 25 25 25 24 24 23 24 20 18 17 16 16 15 16 12 10 7 15 15 14 13 12 11 11 11 11 11 10 9 8 8 7 7 7
27 27 26 27 26 24 22 23 23 23 23 23 24 25 23 21 20 18 18 17 16 18 18 16 14 7 8 14 14 13 12 12 12 12 11 8 10 10 8 7 6 6 5 4
26 26 26 26 24 24 24 24 23 23 22 22 22 21 21 21 22 22 20 17 14 15 18 11 8 6 12 13 13 11 11 11 12 9 7 7 8 7 7 6 5 4 3 2
22 21 22 23 24 23 23 22 21 22 21 20 20 22 22 20 19 19 18 15 14 12 14 14 14 11 12 12 11 10 10 9 9 9 8 6 7 6 6 4 4 2 2 2
20 19 18 18 18 18 19 19 19 19 19 22 20 20 19 19 18 15 15 15 15 14 14 14 13 12 9 9 8 9 9 8 8 6 5 5 5 5 4 3 2 1 -0 -1

GFSNGP_sfc_dewp_036.txt.gz
Dewpoint
24 21 22 21 20 19 20 31 30 31 30 29 28 29 32 30 32 28 30 31 36 44 48 50 52 54 54 56 57 57 56 56 56 57 57 56 55 52 49 46 44 43 43 43
28 25 20 21 20 19 19 19 19 22 22 24 26 29 32 31 28 29 30 33 38 42 49 51 53 54 55 54 55 55 54 53 53 54 52 52 51 50 49 47 45 43 42 41
28 27 24 23 23 19 19 19 21 22 25 24 23 22 23 28 26 29 35 39 43 47 50 52 52 53 51 51 51 50 49 49 49 48 47 46 44 43 43 42 41 39 40 40
31 34 24 24 22 19 20 19 21 20 19 20 21 21 29 29 32 34 39 42 45 45 46 47 48 47 48 47 47 46 45 45 46 45 43 42 40 39 39 39 39 39 39 39
31 29 25 20 23 24 25 23 23 23 22 20 19 22 33 34 37 40 41 43 44 44 44 44 44 44 43 42 42 42 42 42 42 42 41 40 39 40 40 40 40 40 39 39
36 29 26 32 28 26 25 25 26 24 26 26 27 36 34 36 40 40 41 41 41 41 41 41 41 41 40 40 40 40 41 40 41 40 40 41 42 41 41 41 39 39 40 40
35 33 31 30 27 26 26 30 33 32 30 33 35 37 38 39 40 39 39 39 40 40 40 40 40 40 39 40 39 40 40 40 40 40 41 40 40 41 40 40 40 38 38 38
37 32 30 35 28 28 34 40 38 36 38 43 38 40 39 39 38 38 38 38 39 39 39 40 40 39 38 38 39 39 40 40 40 40 39 39 39 38 37 35 35 34 33 33
37 37 40 37 34 37 40 40 39 40 37 37 41 39 39 38 38 37 37 37 38 38 39 39 39 39 37 38 39 39 38 37 35 33 31 31 32 30 30 31 31 29 29 30
34 37 39 41 39 36 35 38 35 35 37 38 41 40 39 38 37 37 36 36 37 38 38 38 38 38 38 38 36 34 32 30 30 28 27 26 21 23 28 27 28 27 28 26
34 34 35 33 35 39 39 39 39 37 38 37 41 39 38 37 37 36 36 37 37 38 38 37 36 36 35 33 32 31 29 26 26 27 24 22 21 23 24 20 23 25 24 24
34 36 41 39 37 42 41 39 38 39 37 37 41 39 38 37 37 37 36 37 37 37 36 34 33 32 31 30 29 27 26 26 29 28 25 21 22 21 24 22 21 21 20 20
35 40 42 43 40 41 40 40 40 41 38 37 40 39 38 37 38 37 37 37 35 34 33 32 30 28 28 29 28 26 24 24 25 27 26 24 24 25 22 21 21 21 19 17
39 38 39 41 40 40 40 39 40 38 39 40 39 38 38 38 38 36 35 35 34 32 30 27 24 23 23 22 22 22 21 26 24 23 23 25 23 24 24 24 24 23 20 18
39 41 41 41 40 38 38 39 39 39 38 39 40 39 39 37 36 35 34 32 30 28 24 21 19 17 19 19 18 22 21 22 25 24 22 22 23 23 22 22 22 21 21 20
40 40 39 38 38 38 37 37 38 39 39 40 39 39 37 35 34 32 30 29 26 22 20 21 18 18 19 17 17 17 21 22 23 22 21 21 21 20 18 19 20 20 19 19
39 39 39 40 40 39 37 38 38 39 40 39 38 35 28 25 24 22 22 22 22 22 22 21 17 17 20 20 20 24 23 19 19 20 19 18 18 18 17 18 18 17 18 15
38 39 38 39 40 39 38 37 35 34 32 29 28 27 26 24 23 22 22 22 22 22 22 23 23 22 22 19 17 17 17 16 16 17 15 19 15 14 17 16 16 15 16 15
33 33 33 34 34 33 32 31 31 30 28 27 25 24 24 23 23 22 22 21 20 19 21 23 22 19 17 17 17 18 18 18 15 13 15 14 17 16 16 16 15 14 14 14
29 30 30 29 30 29 28 28 28 27 26 25 25 23 22 23 24 23 22 20 21 20 22 20 18 15 13 12 13 13 17 17 14 15 17 13 15 15 14 13 14 14 14 13
27 27 27 26 26 26 27 27 26 25 26 26 24 22 22 23 22 21 19 17 20 21 21 20 15 11 9 10 10 19 17 17 16 15 15 15 15 14 14 13 13 12 12 12
26 25 25 25 25 25 26 26 25 24 24 23 23 23 22 21 21 20 21 18 20 22 19 16 12 12 10 13 14 17 15 15 14 15 14 14 13 12 11 11 10 10 9 7
26 26 25 24 23 23 24 24 24 23 22 22 22 22 22 23 23 20 17 21 21 21 18 15 12 12 11 17 17 16 15 13 14 14 13 13 12 12 9 9 8 7 6 7
26 26 26 26 25 23 22 23 23 23 23 23 23 25 23 20 20 21 20 20 19 18 16 15 12 10 9 16 16 15 13 13 12 13 12 9 10 10 10 8 7 7 6 5
25 25 26 25 24 24 24 24 24 24 23 22 22 22 20 22 21 21 19 17 15 19 13 11 10 9 14 15 14 12 12 12 11 9 9 9 8 8 7 7 6 5 4 -0
22 21 21 22 22 23 23 21 20 22 22 20 21 22 22 21 21 18 17 15 15 13 15 17 14 13 13 11 9 9 10 11 10 9 8 7 6 5 4 5 4 4 2 1
18 19 17 17 18 18 17 17 18 16 18 21 20 20 19 20 19 17 17 16 15 16 15 14 14 12 12 10 10 9 8 8 8 7 6 5 4 3 3 3 2 1 -1 -3

GFSNGP_sfc_dewp_039.txt.gz
Dewpoint
21 24 25 25 25 26 23 26 28 30 31 31 32 30 29 33 30 31 31 29 41 45 46 49 52 54 55 56 56 58 58 57 56 56 56 54 52 50 47 47 46 45 45 45
27 22 23 23 26 26 23 24 29 29 28 31 30 31 36 31 31 29 29 32 35 47 49 51 52 54 54 54 54 55 55 55 55 55 54 54 51 49 47 45 44 43 43 43
24 29 26 24 26 24 25 24 23 27 29 29 28 30 31 31 31 30 30 35 40 49 51 52 54 53 52 51 50 51 51 50 49 48 47 46 47 47 45 43 41 40 40 39
28 30 24 26 27 26 24 23 22 21 23 24 23 25 27 29 31 31 38 43 49 50 50 51 51 50 49 48 48 47 46 46 46 44 43 41 40 39 38 39 38 38 39 40
29 27 29 30 25 24 24 22 25 23 23 23 23 25 31 32 35 40 43 45 45 46 47 46 47 46 46 45 45 45 45 44 43 42 39 38 38 37 38 38 38 37 38 38
33 27 25 30 30 27 29 24 27 29 28 28 27 27 31 36 41 43 43 43 43 43 43 44 42 43 42 42 42 42 42 42 41 40 39 40 40 40 39 39 39 40 39 40
30 29 30 32 29 32 26 27 33 31 31 33 30 34 36 41 41 42 41 41 42 41 41 40 40 40 40 40 40 41 41 41 41 40 40 40 40 39 39 38 37 35 36 36
34 29 27 37 32 28 31 34 33 33 32 33 37 38 40 40 39 39 39 40 40 40 40 40 40 40 39 39 40 40 40 40 40 40 39 39 39 38 39 38 35 32 31 30
36 35 39 36 39 41 41 39 38 34 32 36 40 39 39 38 38 38 38 38 39 39 40 40 39 39 38 39 40 40 39 39 38 38 38 38 37 33 32 32 28 27 28 29
32 33 36 35 40 41 46 43 42 36 36 40 40 40 39 38 38 38 37 37 38 39 39 38 39 38 39 39 39 38 36 34 31 29 26 23 27 26 25 24 25 25 24 24
35 35 36 36 42 45 46 45 44 42 41 38 42 39 38 38 38 37 37 38 39 39 38 38 38 38 37 35 33 31 29 26 27 25 22 22 24 22 19 22 24 22 23 23
34 37 38 37 42 43 40 47 45 43 42 40 40 40 39 38 38 37 37 38 38 38 36 35 34 33 33 32 30 27 26 26 26 25 23 20 21 21 23 22 22 22 23 22
34 37 34 34 38 41 41 42 42 41 41 40 41 39 39 38 38 37 38 38 36 34 32 30 25 24 29 29 28 27 25 24 25 23 23 24 23 21 20 22 22 21 20 19
41 41 39 40 39 40 40 39 41 39 38 38 40 40 39 38 38 37 36 34 32 27 24 22 20 20 22 23 23 24 25 26 24 25 25 24 23 24 24 23 22 22 20 18
40 41 40 40 39 39 38 38 38 38 39 40 40 40 38 36 35 34 31 26 22 20 18 18 18 19 21 22 22 23 24 24 23 22 22 23 24 24 23 23 22 21 22 20
39 40 39 39 40 38 38 38 39 39 39 38 35 31 30 28 27 25 23 21 19 18 18 20 20 19 22 21 22 23 24 25 25 25 24 23 23 21 20 20 20 20 20 18
36 35 36 36 39 35 34 33 31 30 29 27 26 26 24 22 21 20 20 20 20 20 21 22 22 24 26 26 25 23 22 23 24 23 21 20 20 19 19 19 18 18 17 14
35 34 34 34 34 33 31 29 28 27 26 25 24 23 22 21 20 20 21 21 21 20 21 21 22 23 24 24 24 23 22 21 20 19 20 19 16 15 18 17 17 16 15 14
31 31 31 30 30 29 27 26 26 25 24 24 22 21 22 22 22 21 21 19 18 17 19 20 21 20 21 22 21 21 20 20 18 18 17 16 16 17 15 15 14 14 14 14
26 26 25 25 26 26 25 25 25 24 25 24 22 20 19 19 19 19 18 17 19 19 21 20 20 18 18 19 20 19 19 18 16 16 15 14 14 12 12 13 14 13 10 10
24 25 24 24 23 24 23 24 23 22 23 23 21 20 19 20 20 19 17 15 20 21 20 18 19 16 15 15 18 19 17 16 15 15 13 11 10 11 10 9 9 7 6 5
23 22 22 22 21 22 23 24 23 23 22 22 21 20 19 18 18 18 19 18 20 19 17 15 14 13 12 17 17 16 15 14 13 12 10 8 5 3 2 -0 -1 -0 -4 -8
23 23 22 22 21 21 22 22 22 22 21 21 20 19 20 20 20 17 15 20 17 16 14 13 11 10 11 15 14 12 11 9 9 8 9 8 7 5 1 1 1 -6 -9 -3
24 23 23 23 21 20 20 21 22 22 21 21 20 21 19 17 18 18 18 16 14 13 12 10 10 9 9 10 8 7 6 4 4 1 -0 -2 -7 -8 -3 -6 -5 -1 -3 -6
20 19 20 20 20 20 22 22 20 19 19 19 19 19 18 18 16 17 15 15 15 12 8 7 7 6 8 5 3 2 1 4 4 1 2 -3 -7 -10 -11 -8 -2 -2 -5 -7
19 18 18 18 17 17 18 16 15 18 18 17 17 17 17 17 16 16 14 12 13 12 13 7 7 8 1 -2 -5 -7 -7 -5 1 0 -7 -10 -13 -12 -9 -5 -4 -6 -11 -16
15 15 14 15 15 12 12 13 13 12 14 15 14 14 14 14 13 11 9 10 11 7 4 3 6 7 2 -1 1 -1 -7 -9 -9 -6 -10 -14 -16 -17 -10 -10 -13 -18 -19 -19

GFSNGP_sfc_dewp_042.txt.gz
Dewpoint
35 32 24 22 24 25 24 26 25 26 29 29 30 31 32 31 29 29 29 29 41 42 44 48 53 55 55 51 53 55 55 55 54 57 58 58 55 54 53 52 51 50 49 48
32 32 27 22 21 25 24 26 26 25 26 32 32 33 32 31 30 29 28 29 38 44 46 51 54 54 55 56 56 58 58 58 57 56 55 54 52 50 48 48 47 46 45 45
28 31 28 24 23 22 28 27 27 27 30 31 30 31 32 31 31 30 30 30 32 44 48 52 54 54 54 54 55 55 56 56 55 54 53 51 50 48 47 44 43 43 43 44
29 30 26 27 26 23 26 26 26 24 24 28 29 30 30 33 32 31 31 32 41 47 51 53 53 52 51 52 51 50 51 50 50 49 49 48 46 44 41 41 40 39 38 39
28 29 30 28 28 28 26 24 27 26 24 23 25 25 28 32 32 31 33 38 45 50 51 51 50 49 49 48 47 47 48 47 46 45 44 42 40 39 38 38 38 38 38 38
31 25 26 30 30 31 30 24 26 26 27 27 27 24 26 32 35 38 44 47 48 48 49 48 46 46 46 45 45 45 43 42 41 40 39 38 38 37 37 37 37 38 37 37
29 27 32 37 35 33 27 27 33 31 30 29 29 31 29 38 42 44 45 45 45 47 47 44 44 44 43 43 42 42 41 40 40 40 39 38 38 38 38 37 36 35 33 32
31 29 27 39 37 33 38 42 43 42 33 32 33 37 39 41 42 42 42 42 43 43 42 41 42 42 41 40 41 41 40 40 40 40 39 39 38 38 38 36 33 31 29 27
32 30 39 41 41 40 43 44 44 42 42 38 37 38 40 40 41 41 41 41 41 40 40 40 40 40 39 40 40 41 40 39 39 39 39 38 38 36 35 33 31 29 27 25
36 34 36 38 39 43 41 43 44 43 43 40 40 40 39 40 40 40 39 39 39 39 39 39 39 39 40 40 40 39 38 38 36 29 29 27 26 29 28 27 27 29 27 24
35 34 36 36 38 41 38 44 44 42 44 42 42 42 42 41 40 38 38 39 39 39 39 38 39 39 38 38 37 33 30 27 25 26 25 20 19 21 23 25 25 25 25 24
32 33 31 32 36 39 38 42 44 43 44 43 42 41 40 40 39 38 39 39 38 38 37 36 36 34 34 32 30 27 25 24 24 23 23 18 18 21 25 24 25 25 24 22
38 40 39 39 36 41 40 40 45 44 42 41 44 43 41 38 38 38 39 37 35 30 28 27 28 28 28 28 26 24 24 24 24 24 22 22 22 22 21 23 23 22 22 22
38 40 40 39 38 39 39 38 40 40 40 41 40 40 39 39 38 36 33 27 24 23 23 23 23 23 25 25 24 25 25 26 24 24 23 24 25 23 23 23 22 23 22 19
36 38 39 40 38 38 39 40 37 35 35 34 38 38 37 33 27 24 22 20 19 19 20 20 21 22 24 24 23 23 21 22 24 24 24 25 25 25 25 24 24 23 22 20
36 36 36 35 34 33 33 32 30 28 28 27 26 25 24 22 20 20 20 20 20 21 23 24 24 24 25 25 25 25 25 25 25 24 24 24 24 23 22 22 21 21 21 18
35 33 34 34 32 30 29 28 27 26 25 24 23 23 22 20 20 20 21 21 22 23 24 23 24 25 26 25 24 23 24 23 23 23 22 22 21 20 20 20 19 19 17 15
34 33 33 31 30 28 27 26 25 24 23 23 23 22 21 21 20 20 20 20 19 18 20 21 22 23 23 23 23 22 22 21 21 20 19 18 18 19 18 18 17 15 15 15
26 26 27 26 27 25 24 24 24 23 23 22 21 20 20 20 19 19 19 18 17 15 17 20 22 21 21 22 21 20 19 19 19 19 18 16 17 16 15 15 15 14 14 13
24 24 23 22 23 23 22 23 22 22 22 21 20 18 17 18 18 17 17 16 17 18 19 19 18 18 19 20 20 19 18 17 17 16 15 15 14 13 13 13 12 10 9 9
22 22 22 22 22 22 22 22 21 20 21 21 19 18 18 18 19 18 15 13 16 17 16 16 16 16 18 19 18 17 16 15 14 13 12 11 10 9 8 6 5 4 2 -0
22 21 21 21 21 21 22 22 21 21 20 19 19 18 18 17 18 17 17 14 15 15 14 13 13 15 16 16 15 13 12 11 11 10 8 8 7 5 4 1 -0 -3 -8 -13
22 22 21 20 20 20 20 20 20 19 18 17 17 17 16 17 17 14 11 15 14 12 11 11 13 13 12 11 10 9 8 6 4 3 0 -0 -1 -3 -3 -4 -4 -6 -9 -8
20 21 21 21 19 18 17 18 19 18 18 19 18 17 15 13 14 15 14 12 11 10 10 11 10 9 8 7 5 4 3 2 -0 -5 -3 -9 -16 -17 -14 -17 -12 -13 -9 -8
18 17 17 17 16 16 18 18 17 16 16 16 16 16 16 16 13 13 13 12 12 9 8 7 5 1 -1 -3 -3 -6 -8 -9 -10 -14 -16 -18 -20 -21 -21 -18 -15 -13 -14 -16
16 14 13 14 14 14 14 14 14 15 13 12 12 12 12 14 14 13 12 10 9 8 7 6 4 0 -4 -3 -7 -12 -14 -12 -11 -10 -17 -20 -21 -19 -19 -18 -19 -20 -22 -24
12 12 11 11 9 9 10 10 8 9 9 6 6 8 7 6 7 7 2 2 1 -1 -4 -10 -9 -8 -9 -14 -14 -16 -14 -14 -12 -13 -20 -23 -21 -20 -21 -23 -25 -27 -27 -25

GFSNGP_sfc_dewp_045.txt.gz
Dewpoint
35 32 31 30 32 30 24 23 23 24 26 26 29 30 30 32 30 29 27 33 38 40 41 43 45 46 47 48 51 53 54 55 55 56 57 57 57 58 58 57 57 54 53 51
31 30 29 28 29 29 28 24 26 25 25 30 30 32 31 32 32 29 29 29 33 40 42 45 48 49 51 49 51 53 53 55 55 55 56 57 56 54 53 52 51 51 50 48
26 31 28 23 30 28 27 24 27 25 27 28 31 32 32 31 32 31 30 30 30 38 42 45 51 53 53 54 55 54 54 55 55 55 55 53 52 51 50 48 46 46 46 46
28 29 19 19 30 25 29 26 25 26 27 30 30 30 32 34 33 33 32 31 31 31 44 49 53 52 53 54 55 56 56 55 55 53 51 50 49 47 45 45 44 44 43 43
24 25 25 21 26 30 32 33 32 26 26 26 25 26 25 30 34 34 34 33 32 33 46 52 52 51 52 51 52 53 52 51 51 50 49 47 45 43 41 41 41 40 41 40
30 22 17 13 29 33 38 32 35 39 32 28 27 25 26 27 31 34 35 35 43 49 51 51 50 50 50 48 49 50 49 47 48 47 46 43 41 40 38 38 38 38 36 35
30 28 27 32 35 39 32 31 40 42 41 38 30 27 29 30 30 37 40 46 49 50 50 49 48 48 47 46 46 45 44 43 42 42 42 39 38 37 37 37 36 35 32 32
30 29 25 35 41 34 39 40 42 43 42 41 41 37 36 34 38 43 44 46 48 47 46 46 46 46 45 43 42 41 41 40 39 39 38 38 37 37 37 35 33 31 28 27
30 29 35 41 41 41 41 42 43 44 42 43 41 37 38 39 41 42 44 44 45 44 42 42 43 44 41 41 41 40 40 39 39 38 38 38 37 36 34 33 32 29 27 25
32 31 32 34 38 40 41 44 42 42 43 43 41 40 39 40 41 41 41 41 41 41 40 40 40 41 41 41 40 39 38 37 34 32 30 30 29 32 31 32 31 28 26 23
30 33 35 35 37 40 41 43 42 43 42 43 44 42 40 40 40 40 39 40 40 40 39 39 39 39 40 40 38 34 30 29 28 25 24 23 24 25 25 26 29 27 25 23
30 39 39 37 37 40 41 39 41 43 41 41 42 43 42 42 41 40 40 39 38 38 38 37 36 34 34 34 32 29 27 26 24 22 21 20 20 21 26 27 27 27 26 24
37 38 39 41 42 40 41 41 42 43 41 40 40 43 41 40 41 37 34 31 31 30 30 29 28 27 27 28 28 26 25 24 23 22 21 21 21 21 21 23 24 23 23 22
37 38 40 40 38 35 35 37 34 32 31 33 39 41 39 34 30 28 27 25 25 25 25 25 24 24 25 26 25 25 25 26 24 24 24 24 23 24 23 23 22 23 24 23
35 36 37 37 34 31 31 31 29 27 27 25 25 26 25 23 22 21 22 23 23 23 24 24 24 24 24 23 23 23 23 24 25 25 26 26 25 25 25 25 24 23 23 23
35 35 35 34 31 29 28 27 26 25 24 23 22 21 21 22 22 22 23 23 23 23 24 24 24 26 27 27 26 26 25 25 25 24 24 24 24 23 23 22 22 21 21 19
32 32 31 32 30 28 26 26 25 23 23 22 21 21 20 20 20 20 20 21 21 21 22 22 22 24 25 25 24 23 23 23 22 21 20 20 20 20 20 19 19 18 16 17
31 29 28 27 26 25 24 24 23 23 22 22 21 20 19 19 18 18 19 19 18 18 19 21 21 22 22 22 22 22 21 20 19 18 18 18 18 18 17 17 16 15 16 16
25 24 25 24 24 23 22 21 21 22 21 21 19 18 18 18 17 17 18 16 15 14 16 20 22 20 20 21 20 19 18 18 17 16 17 16 15 15 15 15 13 13 12 11
23 23 22 22 22 22 21 22 21 21 21 20 18 17 16 16 16 15 14 12 14 15 18 18 19 19 18 18 18 16 16 15 15 14 14 13 12 11 12 11 10 7 5 5
21 21 20 20 19 21 21 21 19 18 19 19 17 16 16 17 17 15 12 10 14 16 16 16 17 17 17 16 15 14 14 13 11 10 8 7 6 5 4 3 3 1 -2 -4
20 19 19 19 18 18 19 19 19 18 18 18 18 17 14 14 13 12 13 12 13 14 14 14 13 12 11 12 11 10 9 8 7 6 5 4 2 -1 -4 -5 -6 -8 -11 -13
21 20 20 19 18 18 19 18 18 17 16 15 15 15 14 15 14 10 8 12 12 13 12 10 8 7 7 7 6 5 4 2 1 -1 -3 -7 -9 -12 -13 -13 -14 -16 -15 -9
18 18 19 19 17 16 15 17 16 16 15 15 14 13 13 10 10 11 10 8 7 7 6 4 3 1 -0 -0 -2 -4 -7 -10 -14 -16 -14 -18 -24 -24 -23 -24 -20 -21 -20 -19
15 15 15 15 14 15 15 14 13 13 12 12 12 13 13 13 9 10 9 8 8 5 3 -2 -3 -7 -9 -12 -14 -17 -19 -20 -21 -22 -23 -24 -25 -26 -26 -23 -24 -24 -25 -26
12 11 11 12 12 12 12 11 9 9 8 7 7 7 6 9 9 7 5 2 2 -1 -4 -11 -12 -12 -13 -14 -20 -22 -20 -14 -18 -20 -23 -25 -25 -23 -25 -24 -27 -27 -29 -30
10 9 9 8 8 7 7 6 5 4 -2 -5 0 2 4 5 2 0 -7 -8 -10 -13 -17 -19 -19 -16 -19 -22 -21 -21 -20 -21 -21 -21 -27 -27 -26 -26 -26 -28 -30 -32 -32 -33

GFSNGP_sfc_dewp_048.txt.gz
Dewpoint
35 35 33 30 27 28 27 30 26 26 24 24 27 27 29 30 31 28 27 27 35 37 41 43 47 49 50 51 52 52 51 50 51 52 53 53 54 54 55 56 56 57 57 55
31 34 32 28 28 27 29 30 29 27 25 27 28 29 30 31 31 31 29 29 29 37 39 41 44 47 49 50 51 53 53 52 52 53 54 54 54 55 56 56 57 57 55 51
25 30 28 24 26 27 27 26 28 27 29 28 27 29 30 30 31 32 32 30 29 33 39 41 43 45 46 48 49 52 53 53 54 54 54 55 56 56 56 55 53 51 50 49
26 27 20 20 29 28 26 29 31 30 30 32 30 28 29 32 32 32 33 32 31 31 35 40 44 50 50 52 51 51 52 53 53 54 55 55 53 52 49 49 49 47 46 46
22 25 25 22 22 23 29 17 30 26 33 40 36 28 26 29 32 33 34 35 34 33 32 39 49 51 52 53 53 53 53 54 54 54 51 50 49 47 46 46 45 45 44 43
28 21 15 19 29 37 36 23 37 39 41 40 41 31 28 28 28 30 32 34 35 35 44 48 50 52 52 53 54 53 52 51 51 50 49 47 44 43 42 41 39 39 37 38
27 27 26 30 32 38 25 22 38 38 39 40 39 38 37 39 38 30 31 31 43 48 48 49 50 51 49 51 51 48 48 48 47 46 44 42 40 40 39 37 34 33 31 30
29 27 21 31 38 30 32 38 38 37 41 41 41 42 42 40 37 36 40 43 46 47 46 47 49 48 47 44 44 44 43 42 41 40 39 39 38 38 36 34 32 30 28 27
28 27 32 38 39 41 40 38 39 40 39 39 40 41 42 39 41 42 43 44 45 44 43 44 45 45 42 41 42 43 42 39 39 38 38 38 36 36 34 32 31 30 28 26
30 29 32 32 34 36 40 41 42 39 39 40 41 42 43 40 40 40 40 41 42 42 41 41 42 42 42 43 41 40 37 35 34 33 32 32 32 34 33 32 30 29 27 24
29 29 35 32 37 41 40 41 41 41 41 40 42 42 43 41 40 39 39 40 40 39 39 39 40 41 41 40 37 34 32 30 29 29 28 27 27 28 29 30 31 29 27 24
28 37 37 38 40 37 39 39 40 42 41 43 40 40 42 40 40 40 39 38 36 35 34 34 34 34 34 34 33 31 29 28 27 27 25 25 25 25 29 29 29 27 26 24
36 36 37 37 39 35 34 34 34 34 30 30 36 39 37 34 32 32 31 31 30 28 27 27 27 27 29 30 30 29 26 25 24 24 23 22 22 23 21 25 28 28 27 27
36 36 37 37 35 32 31 31 31 27 26 25 26 26 25 25 25 26 26 27 27 27 26 25 25 24 26 26 26 25 25 25 24 24 25 25 25 24 24 23 22 23 25 23
33 34 36 34 31 29 29 27 26 24 23 23 23 24 24 23 23 24 25 25 25 25 26 26 26 27 28 28 27 27 26 26 26 26 26 26 26 26 25 24 23 22 22 22
30 33 32 32 28 27 26 25 24 23 23 22 22 21 21 21 21 21 21 22 21 21 22 23 23 26 27 27 26 25 25 25 24 24 23 23 23 23 22 21 21 21 20 18
27 28 27 28 26 24 24 24 23 22 22 21 21 21 20 19 18 18 19 19 19 19 20 20 21 23 24 24 23 22 21 21 21 20 20 20 20 19 19 19 17 16 15 17
27 27 26 25 24 22 22 21 21 20 20 20 20 19 18 16 16 16 17 18 17 17 19 20 20 21 21 21 21 20 19 19 18 18 17 16 16 16 16 15 15 15 13 12
24 23 24 23 23 21 21 20 20 20 19 18 17 15 15 15 14 15 16 14 14 13 16 19 20 19 19 20 18 17 16 16 16 15 15 14 13 13 12 11 10 10 9 9
21 21 21 20 20 20 18 19 19 18 19 17 16 14 13 13 14 13 13 11 13 15 18 17 16 16 16 16 16 15 15 14 13 12 11 10 8 7 7 7 5 2 -2 -3
19 19 19 18 17 18 19 19 18 16 16 15 13 12 11 12 13 13 11 9 13 15 15 14 14 13 12 11 11 11 10 9 7 6 5 3 0 -1 -5 -10 -11 -13 -14 -14
19 18 18 17 16 16 17 17 17 16 16 15 15 14 12 11 11 11 12 11 12 11 10 9 9 9 9 9 7 6 5 3 1 -0 -4 -6 -11 -15 -19 -20 -20 -20 -21 -18
19 18 18 17 16 15 16 16 15 14 13 13 12 12 11 12 11 8 6 10 8 7 6 5 3 2 0 0 -2 -4 -5 -7 -8 -11 -16 -19 -23 -24 -22 -22 -23 -24 -23 -20
17 18 18 18 17 14 13 14 14 14 13 13 11 11 9 7 8 9 7 4 1 -0 -1 -3 -4 -5 -8 -9 -10 -13 -15 -17 -20 -23 -21 -24 -30 -29 -28 -27 -23 -27 -26 -25
15 15 14 14 13 13 12 11 10 10 9 9 9 10 10 10 5 6 5 3 4 -2 -6 -10 -10 -13 -16 -20 -21 -21 -22 -24 -26 -26 -27 -28 -29 -29 -29 -29 -29 -29 -30 -31
11 10 10 11 10 10 9 8 6 6 7 5 4 3 3 5 4 2 -2 -4 -4 -9 -12 -20 -22 -23 -23 -22 -25 -25 -23 -20 -24 -24 -28 -28 -28 -26 -28 -27 -31 -31 -33 -33
8 8 7 6 6 5 5 4 2 -2 -7 -8 -4 -1 -0 -4 -7 -7 -15 -16 -18 -21 -24 -25 -25 -21 -23 -24 -23 -24 -23 -24 -25 -25 -31 -30 -29 -31 -32 -33 -34 -35 -36 -36

GFSNGP_sfc_dewp_051.txt.gz
Dewpoint
28 30 32 30 27 26 26 27 25 24 27 29 30 31 31 31 31 31 32 32 32 36 42 46 49 51 52 52 52 51 49 49 50 51 52 52 53 54 54 54 54 55 56 56
31 33 31 29 28 27 26 26 26 29 28 31 32 30 30 31 31 31 32 33 33 34 37 43 46 49 51 52 53 52 51 50 50 51 51 52 52 53 54 55 55 56 56 56
24 30 27 24 27 26 24 23 25 21 21 31 31 31 34 33 32 32 33 34 34 34 35 39 43 47 49 51 53 53 52 52 52 52 52 54 53 53 54 55 56 57 57 56
28 28 19 19 27 26 26 26 25 26 30 30 32 37 39 39 32 32 34 35 36 36 36 38 43 44 47 48 51 53 53 53 53 53 53 54 54 54 56 56 56 55 53 51
27 25 23 21 21 20 23 18 30 34 36 37 38 40 38 35 34 37 38 36 35 36 37 38 40 45 46 47 49 50 52 53 54 54 54 55 55 52 49 48 46 45 45 45
30 22 19 21 32 36 33 22 34 37 35 35 38 36 37 41 42 43 43 43 38 35 37 37 38 48 49 49 50 50 50 52 54 55 53 52 48 46 43 42 40 39 38 39
30 27 26 28 29 34 24 23 33 37 36 38 37 38 39 43 43 43 41 40 38 38 39 43 48 50 51 53 53 53 52 52 51 51 48 45 42 41 39 36 34 33 32 32
29 28 23 30 37 31 31 38 37 37 38 40 40 40 40 42 42 41 41 43 45 46 47 49 51 51 51 49 48 48 46 45 44 43 43 41 39 37 36 34 32 30 29 28
30 29 32 35 37 40 39 39 40 40 39 40 39 39 42 43 43 41 41 43 45 46 46 47 48 47 45 44 45 43 42 41 42 41 38 38 36 35 34 33 31 30 29 27
30 30 31 32 34 40 38 41 41 41 41 40 41 42 43 43 42 41 41 41 42 43 43 43 44 45 44 44 43 41 38 37 36 35 34 35 34 34 33 32 31 30 28 25
30 31 34 34 39 38 37 37 37 37 40 38 39 39 42 42 39 39 39 39 39 39 39 39 39 39 40 40 38 36 34 33 32 31 30 30 30 31 31 32 32 31 29 26
29 36 36 36 38 37 35 34 34 33 34 32 33 33 35 32 32 32 31 32 32 32 33 33 34 33 34 35 34 34 32 31 31 30 30 29 27 27 30 29 28 27 26 25
34 36 36 38 38 33 32 31 31 29 28 27 28 27 29 28 28 29 29 29 27 27 28 28 29 28 29 29 30 29 28 27 27 27 27 25 24 23 23 27 28 28 28 27
36 35 36 36 34 31 30 28 27 25 25 25 25 26 26 26 27 26 26 27 27 26 27 27 27 28 29 29 28 27 27 28 27 26 26 26 26 26 26 25 24 25 27 26
30 32 34 36 30 27 27 26 25 24 23 23 23 23 23 22 22 22 22 22 22 23 24 25 25 26 28 29 28 28 27 26 27 27 27 28 27 27 26 24 23 22 21 22
27 29 31 30 26 25 25 24 24 23 22 22 21 20 20 20 20 19 20 20 19 19 21 21 22 24 25 25 25 25 24 24 25 25 25 24 24 24 23 23 22 21 19 18
25 26 24 25 24 23 23 23 22 21 21 20 20 19 17 17 17 17 18 19 19 18 19 20 20 22 23 23 23 22 23 22 21 21 20 21 21 20 19 18 17 16 16 17
26 25 25 25 23 22 21 21 20 20 18 19 19 18 17 16 14 16 17 18 17 16 18 20 21 21 21 21 21 20 20 19 19 18 18 18 17 17 17 16 14 13 13 12
23 22 23 22 23 21 20 19 19 18 18 17 15 14 14 14 14 15 16 15 14 13 16 18 19 18 19 18 18 17 17 16 15 15 14 14 14 13 13 12 11 11 10 9
20 20 20 19 20 19 17 18 18 16 17 16 15 14 13 14 14 14 13 11 13 14 16 16 16 15 15 14 14 13 14 14 11 11 11 10 11 11 9 7 7 8 8 8
19 19 18 17 16 18 18 17 16 14 14 14 12 11 11 12 13 14 11 8 12 12 11 10 10 9 8 8 8 12 11 10 9 8 8 7 7 5 5 5 5 5 5 5
18 17 16 16 15 15 16 17 16 16 15 14 14 13 12 12 11 9 9 7 6 7 7 7 6 5 5 6 6 7 6 5 5 5 4 4 4 3 2 2 2 2 2 2
18 18 17 15 15 15 15 15 14 14 12 11 10 10 10 9 8 6 4 6 5 5 4 5 3 2 3 5 5 4 3 2 2 1 1 1 1 1 0 -0 -1 -1 -2 -2
18 17 16 17 16 13 11 13 13 12 12 11 11 11 8 7 8 7 6 4 3 3 3 2 0 -1 0 3 2 2 2 1 1 1 -1 -4 -1 -2 -2 -3 -3 -3 -4 -6
15 14 14 13 12 11 11 10 9 8 8 7 8 8 8 8 6 6 5 3 3 1 1 -5 -5 -5 1 2 1 -0 -0 -0 -2 -1 -2 -2 -3 -4 -4 -4 -6 -6 -7 -8
11 10 10 10 10 9 8 7 7 7 7 6 5 6 6 5 3 3 1 -1 -2 -4 -3 -3 -4 -2 -1 -2 -2 -3 -2 -2 -2 -3 -4 -4 -5 -5 -6 -8 -9 -10 -11 -11
8 8 7 6 5 5 5 5 5 3 2 3 2 4 2 2 0 -0 -4 -1 -2 -3 -3 -3 -3 -4 -2 -1 -2 -2 -2 -3 -8 -4 -6 -5 -7 -8 -11 -11 -12 -12 -13 -14

GFSNGP_sfc_dewp_054.txt.gz
Dewpoint
25 25 24 25 25 25 24 26 25 24 22 23 23 21 27 30 31 30 29 30 32 33 34 40 47 50 51 52 53 53 52 52 53 55 54 54 54 54 54 55 54 53 53 53
22 21 26 25 23 22 22 22 22 23 23 24 22 22 23 24 26 30 31 30 31 32 33 35 41 47 49 51 52 53 52 52 52 53 53 54 53 54 54 54 53 53 53 53
17 26 23 19 23 22 22 21 20 17 18 18 20 23 26 27 31 35 36 35 33 33 35 36 39 46 48 50 52 52 52 51 51 52 52 53 53 52 53 54 54 54 54 54
24 29 17 15 24 23 22 20 18 17 19 26 30 34 36 37 37 39 40 42 42 41 39 36 37 39 43 44 49 52 52 51 51 51 51 52 52 52 53 54 54 55 55 56
26 23 19 19 15 17 19 12 24 25 27 28 30 34 32 38 38 40 43 43 43 42 42 42 37 37 41 42 45 49 51 51 51 52 52 52 53 54 55 55 56 54 53 52
29 20 18 19 27 30 29 19 29 30 31 32 33 32 31 37 40 42 42 43 42 43 43 41 37 37 39 42 44 46 49 50 51 52 53 53 54 56 52 49 42 40 38 39
26 27 23 24 23 29 26 29 33 32 32 33 35 36 39 40 41 41 42 42 43 45 46 44 42 43 41 43 44 45 48 50 52 53 54 55 50 46 41 38 36 34 33 34
26 25 24 27 29 27 38 37 35 35 35 37 39 39 40 41 41 42 41 41 43 45 46 48 49 49 46 46 52 53 52 51 49 48 45 44 42 40 39 36 34 32 31 30
25 25 32 34 36 36 39 39 39 40 40 41 40 40 41 41 42 41 40 40 41 43 44 45 46 49 49 48 48 47 45 43 42 40 39 39 40 38 35 34 33 30 28 27
29 28 28 29 34 39 39 39 38 38 39 41 42 41 40 40 40 39 36 37 37 39 39 38 39 40 44 44 43 41 39 38 37 37 37 37 36 35 34 32 31 29 28 26
27 26 26 29 37 39 37 38 37 36 35 37 36 37 36 37 35 34 33 32 32 32 33 34 36 36 37 38 38 36 35 34 34 32 31 30 30 31 31 32 32 29 28 26
26 34 35 35 36 37 37 36 35 34 33 33 33 32 32 32 32 31 31 32 30 30 30 29 29 32 35 37 37 34 32 32 31 30 29 28 26 27 30 30 29 28 28 26
34 36 37 37 36 34 34 33 32 30 29 29 29 29 30 30 29 28 28 28 29 29 29 29 28 29 30 32 31 30 29 28 29 28 27 27 26 25 23 27 28 28 28 28
33 34 35 36 34 32 30 29 28 27 27 27 27 27 27 26 25 25 24 25 26 25 26 26 26 26 30 30 29 29 28 28 28 28 27 27 27 27 27 26 24 25 27 27
29 29 30 32 31 28 28 27 27 25 25 25 24 24 23 21 20 21 22 24 24 23 23 24 24 25 28 28 27 28 28 29 29 29 29 30 29 28 27 25 23 22 22 23
25 27 30 29 27 26 27 26 25 23 22 22 21 20 19 19 18 19 19 19 18 18 20 21 21 23 26 27 27 27 27 26 27 26 26 26 27 26 25 23 22 22 21 21
25 26 25 25 24 23 23 23 21 21 20 19 20 20 19 18 17 17 19 19 19 20 21 21 22 24 26 27 26 25 25 25 25 25 24 24 24 23 22 21 19 17 17 17
24 25 25 25 24 22 21 21 21 20 19 19 19 19 17 17 17 18 18 19 19 17 19 21 23 23 24 24 25 24 23 22 21 21 20 20 19 19 19 17 16 15 14 14
23 24 24 23 24 22 21 19 19 19 19 19 17 16 16 16 16 16 17 16 16 15 17 19 19 19 19 20 20 20 20 19 18 17 17 17 17 16 16 16 15 14 13 12
21 21 20 20 21 19 18 19 19 17 18 17 17 16 15 16 16 15 14 12 13 14 15 14 13 13 13 14 15 15 16 16 13 14 15 14 15 15 12 9 11 12 13 12
19 19 18 17 18 18 18 18 16 15 16 16 14 13 12 12 13 15 13 9 10 10 9 9 9 8 7 8 9 15 14 14 13 13 13 12 11 10 10 11 10 10 10 9
19 17 17 17 16 16 17 17 16 16 15 15 15 15 13 11 9 8 8 8 7 6 6 6 6 7 7 8 8 11 10 9 10 10 10 9 9 9 8 8 7 7 7 7
19 18 17 16 16 16 16 15 15 15 13 12 11 11 10 9 9 8 6 6 6 6 5 6 5 5 6 10 10 9 8 7 7 7 7 7 7 7 6 5 5 5 5 4
19 18 18 19 18 16 14 14 13 13 12 11 11 11 10 10 10 8 7 5 4 5 6 6 5 4 5 9 8 7 7 7 7 6 5 2 5 4 4 3 2 4 2 1
17 18 17 15 13 12 12 11 9 9 9 8 8 8 8 8 9 8 8 5 3 3 5 2 2 3 7 7 6 5 5 5 4 5 4 4 3 3 3 2 1 0 -1 -1
13 12 12 12 12 10 10 9 10 10 9 9 9 11 10 9 7 7 5 3 3 2 4 5 4 5 5 4 4 3 4 3 3 2 2 2 1 1 -0 -2 -2 -2 -2 -3
12 11 10 9 8 8 9 8 10 9 10 10 8 9 8 8 7 5 4 5 5 4 4 5 5 3 3 4 3 3 3 3 -2 0 1 1 -1 -0 -2 -3 -3 -4 -4 -5

GFSNGP_sfc_dewp_057.txt.gz
Dewpoint
22 25 24 23 25 25 25 26 25 25 25 23 24 24 22 23 23 24 26 32 34 34 33 34 40 47 49 51 53 54 53 52 54 56 57 57 57 58 58 58 57 56 57 57
29 24 23 24 24 23 22 21 21 21 21 22 23 23 22 23 21 23 28 35 38 39 38 36 36 36 46 49 52 53 54 54 54 55 55 56 56 57 57 57 57 57 56 56
27 25 23 22 23 24 24 23 23 23 22 19 19 18 22 26 30 31 34 38 40 42 42 42 41 41 39 44 50 51 53 54 53 55 55 56 56 55 56 56 57 56 56 56
27 27 23 20 20 19 21 20 20 17 16 20 24 26 28 28 35 37 39 41 41 42 43 43 43 42 43 38 43 48 50 52 53 54 54 55 55 55 55 56 56 56 56 56
24 23 20 15 17 17 17 14 16 17 24 26 28 30 29 35 37 38 40 41 41 42 44 45 45 45 42 38 38 40 47 50 51 53 53 53 54 55 56 56 56 56 56 56
27 21 18 18 20 26 22 15 26 28 29 29 30 30 29 36 38 39 38 40 40 42 44 45 47 47 47 40 37 39 43 48 51 51 52 52 54 55 56 56 54 46 41 41
26 23 20 18 23 23 23 27 32 31 31 32 31 31 35 37 39 39 39 39 41 42 43 44 45 46 47 48 45 40 41 44 50 51 52 53 54 55 51 45 39 37 34 35
26 25 21 25 24 25 37 35 35 35 36 39 38 36 35 39 39 40 38 38 38 39 41 41 39 40 43 47 50 53 52 51 51 51 50 49 46 43 41 38 35 33 32 32
24 24 30 29 36 38 37 37 37 37 37 38 37 36 38 39 39 39 37 37 36 37 37 35 33 36 38 42 46 48 48 45 43 41 42 41 40 38 36 35 34 32 30 28
32 27 31 28 35 37 37 37 36 36 36 36 37 38 37 37 37 36 35 35 34 34 33 31 31 32 34 38 40 39 38 38 37 36 35 35 35 36 35 34 33 30 28 26
27 27 27 27 36 38 36 36 36 35 36 36 35 35 34 35 34 33 32 32 33 31 30 29 29 30 31 35 36 34 33 32 31 30 30 29 29 31 31 32 31 28 27 26
28 35 35 33 35 36 35 35 35 34 34 33 33 32 32 32 30 28 30 29 28 28 28 27 28 29 30 32 33 32 30 30 29 28 28 27 26 26 30 29 30 29 28 27
34 36 37 36 36 35 35 33 32 31 30 30 30 30 29 29 27 26 26 26 26 26 26 27 27 26 30 31 31 31 30 30 28 28 27 26 25 23 22 27 29 29 29 29
33 33 34 35 34 33 32 31 31 29 28 27 26 26 25 23 23 23 24 23 23 23 24 25 26 26 28 30 30 30 29 29 28 28 28 28 27 26 25 24 22 23 27 27
29 29 30 33 32 29 29 28 29 26 25 23 22 22 21 20 19 20 22 22 22 22 23 24 24 26 28 29 28 28 29 29 30 30 28 28 27 25 24 23 22 22 23 23
26 27 28 29 27 26 26 25 25 23 22 21 20 20 20 19 19 20 20 19 18 19 22 22 23 26 29 29 28 27 27 28 28 27 27 27 26 25 23 23 23 23 22 23
26 27 25 26 25 23 23 22 22 21 20 20 22 23 22 20 19 19 20 20 19 20 21 21 22 25 27 28 28 28 27 26 26 26 27 26 25 23 21 20 19 18 18 20
25 25 25 26 26 23 22 22 21 20 20 20 21 20 19 18 18 19 19 20 19 18 19 21 21 22 24 26 26 25 24 23 23 23 22 22 21 20 19 19 17 16 15 15
24 23 23 24 24 22 21 21 20 20 20 20 19 17 17 17 17 17 17 16 16 14 16 18 17 17 18 19 19 20 20 20 19 18 18 17 19 17 17 17 15 15 13 12
21 21 21 20 21 20 19 20 20 19 20 19 18 17 16 17 18 16 14 12 12 11 12 13 12 12 12 14 16 14 16 16 13 14 15 15 16 16 13 11 12 13 13 12
19 19 19 18 19 19 19 19 17 16 17 16 14 13 13 12 11 14 12 8 10 10 9 8 8 8 7 9 10 16 15 15 14 14 14 14 14 12 12 12 12 12 12 11
19 18 18 18 17 17 18 18 17 17 17 17 17 16 14 13 11 9 10 9 8 7 7 7 7 8 8 10 10 13 11 11 12 12 12 12 12 11 10 10 10 10 10 10
19 19 19 17 17 17 17 17 16 16 13 13 12 12 10 9 9 8 5 6 6 6 5 7 6 8 8 13 13 12 11 10 10 10 10 10 10 9 8 7 8 7 7 6
21 21 20 21 21 17 15 15 14 13 12 12 12 12 11 12 11 8 7 5 5 6 5 6 7 6 7 11 10 10 10 10 9 9 8 5 8 7 6 5 5 6 5 3
21 21 19 16 14 13 12 11 10 9 9 9 9 8 8 8 11 9 10 7 5 7 9 4 4 5 9 9 8 8 8 7 6 8 7 7 6 5 5 5 3 3 2 2
15 13 13 14 12 11 11 10 11 11 10 11 11 12 12 11 9 9 8 5 5 5 8 8 7 9 9 7 7 6 7 6 6 5 4 5 4 3 3 1 1 1 1 1
14 12 11 10 9 9 10 10 12 12 12 12 10 11 10 10 9 7 7 8 8 8 8 8 8 5 5 5 6 5 5 5 2 1 3 3 2 3 1 0 0 0 -1 -1

GFSNGP_sfc_dewp_060.txt.gz
Dewpoint
30 30 28 28 29 27 28 34 33 30 29 34 36 36 27 25 25 24 27 34 39 41 42 43 43 44 49 52 55 55 54 52 52 55 57 57 57 57 57 57 57 57 56 55
31 30 25 23 28 35 34 24 25 30 33 32 31 23 24 25 25 28 33 38 39 41 42 43 43 43 44 46 52 55 55 54 53 53 55 56 57 57 58 57 57 57 57 56
28 28 26 24 23 28 30 22 22 22 23 26 22 21 23 29 30 36 37 40 41 41 43 44 45 46 45 46 45 50 54 54 54 54 54 55 56 56 56 57 57 57 56 56
29 32 23 22 20 21 23 23 23 23 24 21 23 26 26 35 37 37 37 39 40 41 42 44 46 47 48 48 48 44 46 52 54 55 54 54 55 55 55 56 56 56 56 56
30 27 29 26 20 17 18 20 20 17 19 23 27 29 34 36 37 38 39 39 39 41 42 44 44 44 45 46 47 48 47 41 50 53 54 54 54 55 55 56 56 56 56 55
28 24 23 22 23 23 20 19 24 28 29 29 29 34 36 38 37 38 39 38 38 39 40 42 41 41 42 44 45 48 51 53 51 48 52 53 54 55 55 55 55 53 42 41
27 25 23 18 20 23 21 30 34 33 34 35 34 34 35 37 38 38 39 38 38 38 38 38 36 36 38 40 41 41 46 50 49 50 52 53 54 54 55 48 40 36 34 34
26 23 21 20 23 22 38 39 37 37 37 39 36 35 36 39 39 38 36 36 36 35 35 35 33 33 34 35 37 39 43 46 44 44 46 46 46 43 42 39 36 34 32 31
24 23 32 31 37 38 38 38 37 36 35 35 35 35 35 36 36 35 34 33 33 33 33 32 31 31 31 33 37 37 38 38 38 38 38 39 40 39 37 35 34 32 30 28
30 28 24 37 38 36 36 36 35 34 35 35 35 35 34 35 33 31 31 29 30 29 28 28 28 29 31 32 35 33 32 32 31 30 31 32 35 36 35 33 31 30 29 27
31 34 38 40 40 35 34 34 34 34 34 34 33 33 33 31 30 28 28 27 27 26 26 26 27 27 29 31 32 30 30 30 29 28 28 28 28 28 28 30 30 28 27 27
34 37 39 38 35 34 34 33 32 32 31 31 31 30 30 28 26 26 26 26 25 24 24 25 26 27 29 30 31 29 28 28 28 27 27 26 26 26 30 30 30 30 29 28
34 33 35 35 34 34 33 32 31 30 28 28 27 27 26 25 24 24 23 23 24 25 25 26 27 27 28 30 30 29 29 29 27 27 26 25 24 23 22 26 29 29 29 29
30 31 34 33 32 31 31 31 31 27 26 24 23 23 23 21 21 21 22 23 23 23 24 25 26 26 29 29 28 29 29 28 27 26 26 25 24 23 23 21 20 22 26 27
28 29 31 31 29 27 27 28 26 24 23 22 21 21 20 18 19 19 21 22 22 21 22 22 23 26 28 29 27 27 27 27 28 27 26 26 25 24 23 22 21 21 21 22
26 29 27 28 26 25 24 24 24 22 21 21 20 19 19 19 18 19 19 19 17 18 19 20 21 25 27 27 26 26 25 26 27 26 25 24 23 21 20 19 19 20 21 21
25 25 25 26 25 23 22 22 21 20 20 21 23 23 21 19 17 17 19 19 19 18 19 19 20 22 25 26 26 25 24 24 25 24 23 23 22 20 19 18 17 17 18 18
25 25 25 25 25 22 21 20 20 19 19 19 19 19 17 16 15 16 17 17 16 15 17 19 20 20 22 23 24 24 23 21 20 19 20 19 19 19 19 17 16 15 15 14
23 22 23 23 22 20 19 19 19 19 19 19 18 17 17 16 15 14 15 13 12 11 12 15 16 16 17 18 18 17 17 17 17 17 16 15 14 15 16 16 15 14 13 12
19 19 19 19 19 18 18 19 19 18 19 18 16 14 13 14 17 15 13 10 11 11 12 12 13 12 13 14 16 15 16 16 14 14 14 14 14 14 13 12 13 13 12 12
19 19 18 18 17 18 18 18 17 15 16 16 14 13 12 12 11 12 11 8 10 11 10 10 10 10 9 10 11 14 14 14 14 14 13 13 12 12 12 11 11 11 10 10
19 18 18 17 17 17 18 18 17 16 16 15 15 16 15 13 10 8 8 8 7 8 7 8 9 10 11 12 12 12 11 11 11 11 11 11 10 9 9 9 8 8 8 8
20 19 18 17 17 17 17 17 16 16 15 14 14 13 11 9 8 6 4 5 5 6 5 7 7 9 10 12 12 12 11 10 10 9 10 9 8 8 7 5 7 7 5 4
21 21 20 20 20 17 15 14 13 13 13 12 12 11 12 13 11 9 6 6 7 6 6 7 6 8 9 11 11 9 7 7 10 9 8 5 8 7 7 3 4 5 2 2
20 20 19 18 14 12 12 11 10 10 10 9 9 8 8 8 10 8 10 9 6 8 10 3 6 7 10 9 8 8 9 7 6 6 7 6 5 5 4 3 2 0 0 1
15 14 13 14 13 12 11 11 12 13 12 12 12 14 14 13 11 11 10 7 8 7 9 10 7 7 8 8 8 7 7 7 4 4 4 5 3 4 3 1 -0 1 -0 -2
14 14 11 10 9 10 11 12 14 13 14 14 11 12 11 12 10 9 8 10 11 10 10 10 10 6 5 6 6 6 6 6 2 2 3 3 3 2 1 -1 -2 -2 -3 -4

GFSNGP_sfc_dewp_063.txt.gz
Dewpoint
33 31 33 34 33 30 30 31 35 35 37 37 43 42 37 26 33 37 39 40 40 41 42 43 44 46 47 48 52 56 55 54 55 56 56 55 55 55 55 55 55 55 55 54
30 31 30 30 31 30 35 35 34 37 38 44 43 44 41 32 37 38 39 39 40 40 42 44 46 46 47 47 48 50 55 54 53 56 56 56 56 56 56 56 55 55 54 55
28 29 32 27 28 34 36 37 35 36 35 42 42 38 35 36 36 37 38 39 40 41 43 44 43 42 42 44 46 47 49 52 55 54 55 56 56 56 56 56 57 56 56 56
28 27 25 29 32 32 32 35 34 26 31 27 32 36 36 37 37 37 37 38 39 40 42 41 40 39 41 42 44 45 46 46 49 52 53 53 55 56 56 57 57 56 56 56
26 27 28 27 29 23 26 26 27 25 26 29 35 35 36 38 39 38 38 37 37 39 40 38 35 35 38 39 40 40 41 42 44 49 48 49 53 54 55 55 56 56 57 57
27 24 23 29 29 27 26 29 35 34 34 34 35 33 35 39 38 37 36 36 35 36 36 34 33 33 35 35 36 36 38 39 43 45 44 45 47 50 55 55 55 55 47 41
25 24 29 30 28 27 24 33 37 37 37 35 34 37 38 37 35 34 33 33 34 34 32 31 31 32 32 33 33 34 36 39 39 39 39 41 43 44 52 51 41 38 36 36
25 23 21 28 32 30 38 39 37 36 37 37 36 37 36 34 32 31 30 30 29 30 29 28 28 28 30 30 31 35 35 34 33 33 33 35 39 41 41 40 38 36 34 32
26 25 35 39 39 41 40 37 37 36 36 36 35 34 32 30 30 29 28 27 27 27 26 27 27 27 28 30 32 33 31 30 29 29 29 30 31 34 36 37 35 34 32 30
32 36 37 41 40 37 35 35 35 35 35 35 34 33 30 29 28 27 26 25 25 25 25 25 26 27 28 30 31 30 28 28 28 27 26 27 28 29 30 32 32 31 30 28
34 38 39 39 39 37 34 34 33 33 32 32 32 30 28 27 26 25 24 23 23 24 24 25 26 26 28 30 30 28 27 26 26 26 26 25 26 28 27 29 30 28 29 28
34 38 38 38 38 37 34 32 31 30 28 28 29 28 26 25 24 23 23 23 23 24 25 26 26 27 28 29 29 28 26 25 26 25 26 25 23 24 29 30 30 30 30 29
32 39 36 34 33 32 31 28 27 26 26 25 25 25 23 23 22 23 22 23 23 23 24 26 26 26 27 28 28 26 25 25 24 23 23 23 24 23 21 24 27 29 30 30
30 34 31 30 28 29 29 27 26 23 23 22 22 21 21 21 21 22 22 22 22 21 21 22 23 24 26 26 25 25 25 25 25 24 23 23 22 21 21 20 19 19 25 25
28 30 29 27 25 25 26 25 23 22 21 20 20 19 18 17 17 18 20 20 19 17 18 18 19 22 25 25 24 24 25 25 24 24 23 22 21 21 21 21 19 19 19 19
26 26 27 25 23 22 22 23 22 21 20 20 20 20 19 17 17 17 17 17 15 15 17 16 18 21 23 23 22 22 23 24 24 23 21 20 19 19 18 18 17 17 17 17
24 23 24 23 21 21 22 21 21 20 18 18 20 20 18 16 15 15 15 14 13 13 15 16 17 20 22 22 23 22 22 21 21 21 21 20 19 18 17 16 15 15 15 15
26 25 24 23 21 20 19 18 18 17 16 16 16 14 13 12 11 12 12 12 12 11 12 14 16 17 19 20 19 19 20 18 17 16 16 18 18 17 16 15 14 13 12 13
22 21 21 21 20 19 18 17 18 17 17 15 13 12 11 10 10 11 11 10 8 7 9 12 16 15 15 17 16 16 15 14 15 16 15 14 14 14 13 12 11 11 11 10
19 19 18 18 18 17 15 14 14 13 11 10 9 10 7 8 9 7 8 8 8 9 10 11 13 13 12 13 14 14 14 13 13 12 12 11 11 10 11 10 10 10 9 9
16 16 15 14 14 13 12 9 10 11 11 10 7 3 3 6 6 7 7 5 8 9 10 10 11 12 10 10 11 12 11 10 10 10 10 7 7 7 7 6 6 5 5 5
15 14 12 10 12 13 11 10 11 11 11 10 10 10 9 7 4 5 6 6 7 6 7 8 9 8 10 11 11 9 9 7 7 6 4 4 -2 -4 -1 0 -4 -6 -4 2
16 15 13 11 11 12 11 12 10 10 8 8 9 8 7 8 7 3 1 7 6 3 6 4 3 5 6 4 2 2 3 5 2 -3 -3 -9 -9 -10 -10 -5 1 -4 -12 -4
18 17 17 16 16 15 13 13 12 12 9 10 8 8 13 9 8 8 7 3 2 -5 -4 -1 2 -0 -2 -6 3 -4 -10 -9 -5 -7 -6 -7 -12 -9 -4 -15 -13 -16 -15 -5
21 21 20 17 14 13 14 13 12 12 11 11 11 10 8 9 1 3 1 0 5 7 -3 -5 1 3 -5 -5 -11 -6 -5 -13 -11 -11 -3 -10 -14 -8 -16 -17 -17 -11 -10 -14
16 15 14 14 13 13 15 16 13 14 13 9 6 1 -1 3 8 8 6 4 2 2 -1 -8 -11 -11 -12 -4 -10 -11 -4 -8 -13 -14 -12 -11 -14 -8 -14 -17 -16 -15 -17 -19
15 15 14 12 12 11 12 12 11 7 1 0 -1 2 7 5 1 7 0 -4 0 -6 -6 -4 -2 -6 -10 -10 -10 -10 -9 -9 -10 -10 -7 -10 -14 -14 -13 -18 -19 -19 -19 -18

GFSNGP_sfc_dewp_066.txt.gz
Dewpoint
33 32 30 30 35 35 33 34 32 33 34 39 44 42 42 41 39 39 39 40 42 44 44 43 42 43 44 45 47 49 55 55 55 55 55 55 55 55 55 55 55 54 54 54
30 29 26 28 35 35 37 38 32 33 35 42 46 46 42 40 38 38 39 40 42 41 40 39 39 40 41 43 44 47 47 47 54 56 57 56 55 55 55 55 55 54 54 54
25 29 27 28 30 31 33 38 38 37 37 44 42 43 41 38 38 38 38 40 40 39 37 35 35 37 39 40 42 42 42 43 45 46 50 55 56 56 55 54 55 55 55 55
26 27 19 28 27 28 36 37 38 39 41 43 41 43 44 37 37 37 38 38 38 36 34 33 33 34 35 36 37 37 38 39 41 43 46 46 47 50 56 56 55 55 55 55
23 24 24 21 29 30 33 34 37 37 41 43 39 38 37 37 37 36 36 36 35 33 32 31 31 32 33 33 33 34 35 36 37 40 40 41 43 44 46 47 55 56 56 56
25 22 19 28 30 31 31 34 37 36 39 37 36 35 35 35 33 33 33 33 32 31 29 29 29 30 31 31 31 32 33 34 34 34 35 36 39 40 42 44 45 52 56 56
23 22 25 30 31 33 26 34 37 37 38 38 36 35 33 32 30 30 30 30 30 29 27 27 27 29 29 30 31 32 32 31 30 30 30 33 33 37 40 41 41 41 40 36
25 23 19 33 33 29 37 40 38 37 37 36 34 32 31 29 28 28 27 27 27 26 26 26 27 28 28 29 30 30 29 29 28 28 28 29 31 32 35 37 36 34 32 31
26 25 37 36 36 38 39 39 38 38 36 34 32 30 30 28 27 26 25 24 24 24 25 26 26 27 28 29 29 28 27 26 27 26 26 27 28 29 30 32 32 31 30 28
34 36 36 37 36 34 33 33 33 34 34 33 31 29 28 27 25 23 23 22 23 24 24 24 25 26 28 28 27 26 25 24 25 25 24 26 27 28 28 28 28 28 27 26
36 37 37 37 37 37 32 32 30 29 30 29 28 27 25 24 23 22 22 22 23 23 23 24 24 25 26 27 27 25 24 24 24 24 24 23 25 27 28 29 29 27 27 27
31 37 35 37 37 36 33 29 28 27 26 26 26 24 23 22 22 22 22 22 21 22 22 23 24 24 24 25 25 24 22 22 22 21 21 21 22 21 25 28 30 30 30 29
33 35 33 35 33 32 28 26 24 24 24 23 23 23 22 21 21 21 20 20 20 19 20 21 22 23 24 24 26 24 22 23 22 21 21 20 20 19 18 22 23 26 27 27
37 37 30 29 29 27 24 23 23 21 21 21 21 20 20 19 19 18 18 19 18 18 18 18 19 21 23 22 21 21 21 21 20 20 19 19 19 20 19 18 17 17 21 23
28 27 25 24 25 25 23 22 21 19 19 19 19 18 17 16 15 16 18 17 17 16 16 17 17 19 22 20 19 20 22 20 19 19 18 19 19 19 18 17 17 16 16 17
28 25 24 22 22 23 22 22 20 19 19 18 17 16 16 15 14 14 14 14 13 13 15 15 16 19 20 19 16 18 19 20 19 18 17 16 17 17 16 15 14 13 13 13
25 25 23 21 21 21 21 20 19 19 21 19 18 17 15 13 12 12 12 12 12 10 11 12 14 16 18 18 18 19 18 16 15 18 18 17 16 15 14 13 12 12 11 12
24 23 24 21 19 18 18 18 18 17 16 15 14 11 9 9 8 9 9 9 9 8 9 11 13 13 14 15 15 15 15 15 15 14 15 15 14 13 13 12 11 10 10 9
21 21 21 19 18 17 16 16 16 15 14 13 10 8 9 9 8 8 7 6 6 6 7 9 16 12 13 15 14 14 13 11 12 12 13 11 11 11 10 9 8 8 8 7
17 17 17 16 16 15 13 13 13 11 10 9 6 5 6 0 -0 2 2 2 0 3 7 10 12 12 11 11 11 11 10 9 10 8 7 8 7 6 7 6 5 5 5 4
13 13 12 12 11 11 9 8 9 7 4 3 4 2 2 2 0 -2 1 3 4 7 8 8 10 11 10 8 8 5 6 5 5 4 2 -1 -1 1 -0 -2 -0 -0 0 -2
11 11 10 10 11 10 9 8 8 7 8 6 3 2 3 3 3 4 0 4 6 1 5 7 8 3 4 5 6 4 4 2 1 -0 -3 -4 -5 -6 -8 -11 -14 -14 -13 -15
14 14 13 12 12 11 11 9 7 7 6 6 4 4 6 6 6 0 1 5 6 2 6 1 -3 -3 -3 -5 -6 -5 -4 -3 -4 -8 -12 -14 -18 -18 -16 -15 -18 -18 -17 -13
17 16 15 15 14 12 10 12 11 10 6 9 9 9 8 3 -2 7 6 -1 -6 -10 -7 -6 -3 -6 -9 -9 -11 -13 -14 -14 -12 -14 -12 -14 -18 -20 -21 -22 -21 -20 -18 -18
20 19 18 18 15 15 15 14 12 12 11 10 9 8 8 7 -0 2 -3 -1 2 -0 -8 -10 -6 -9 -12 -16 -14 -11 -15 -19 -20 -15 -16 -16 -15 -20 -23 -22 -21 -18 -21 -23
15 13 13 13 13 14 15 14 13 13 11 4 2 -5 -6 -0 3 7 3 3 6 3 -4 -12 -16 -17 -16 -14 -18 -15 -15 -14 -17 -17 -16 -19 -18 -18 -20 -22 -22 -22 -21 -21
14 13 12 11 12 12 13 12 8 7 6 2 1 -2 -1 -4 -3 -1 -8 -9 -10 -12 -13 -6 -8 -8 -9 -11 -12 -14 -15 -15 -16 -15 -20 -19 -19 -17 -21 -22 -23 -24 -25 -25

GFSNGP_sfc_dewp_069.txt.gz
Dewpoint
31 31 30 31 32 35 36 36 34 31 31 37 42 44 44 43 39 40 40 40 38 38 39 40 40 42 44 44 45 46 50 50 53 55 56 56 56 55 55 55 54 53 53 52
27 31 27 23 26 32 35 36 37 36 33 42 44 44 44 45 41 40 40 38 36 33 33 34 35 37 38 39 40 40 41 42 44 46 51 54 56 56 56 56 55 55 54 54
23 27 26 24 30 28 35 36 35 36 37 44 44 42 44 43 42 40 38 37 34 33 33 32 33 35 35 35 36 37 37 39 40 42 42 44 45 47 53 55 55 55 55 55
24 25 15 21 21 31 31 36 39 39 41 42 42 44 42 43 42 40 38 34 32 33 31 31 31 33 33 33 34 35 35 35 36 36 37 38 40 42 43 45 47 51 55 55
20 21 21 21 30 30 30 31 37 37 39 41 42 37 36 36 37 37 35 32 31 29 29 28 29 31 31 31 32 32 32 32 31 32 32 34 36 36 38 42 43 44 46 47
25 20 15 22 30 32 34 30 39 38 41 41 38 36 35 35 34 33 32 30 28 28 27 28 29 30 30 30 30 30 30 29 28 28 30 31 32 33 35 38 40 41 40 36
23 21 23 27 36 35 28 33 38 38 44 41 37 36 32 32 31 30 29 28 28 26 26 27 28 29 29 29 28 28 28 28 27 27 28 29 30 31 33 35 36 35 32 31
25 22 18 34 36 30 37 39 38 36 34 33 32 31 30 29 27 26 25 25 25 25 26 26 27 28 27 27 27 27 27 26 25 26 26 27 28 30 31 31 31 30 29 28
26 25 35 35 34 38 40 40 40 39 37 35 33 32 30 28 24 23 23 24 24 25 25 25 26 27 26 25 26 25 25 24 24 24 24 25 26 26 27 28 28 27 27 26
34 35 35 35 33 33 31 33 34 37 37 35 32 30 28 24 23 22 23 23 24 24 24 24 25 25 26 26 25 24 23 23 23 23 22 22 24 24 24 26 26 26 26 25
35 36 37 37 35 35 34 32 30 29 28 28 27 25 24 23 22 22 21 22 22 22 22 23 24 24 25 24 24 22 22 22 22 22 22 22 24 24 24 26 25 24 24 25
30 36 35 35 36 35 32 30 28 26 25 25 24 23 22 21 21 20 20 20 20 20 21 22 22 23 24 25 23 22 21 21 21 21 21 20 20 21 23 24 25 26 25 24
32 34 34 33 32 27 26 28 28 26 24 22 22 22 21 19 19 20 18 18 17 17 19 20 20 21 22 22 23 22 21 21 20 19 19 19 18 17 16 17 21 22 23 24
35 35 29 29 26 24 22 22 22 20 20 20 19 19 18 17 17 17 17 18 17 17 17 17 18 18 20 18 19 18 17 17 17 17 17 16 16 15 15 14 13 13 18 20
25 26 25 25 24 23 22 21 19 19 18 17 17 17 16 15 14 14 15 16 16 15 15 16 16 17 18 15 17 19 18 16 14 15 15 15 15 14 13 12 11 11 11 12
25 24 23 23 22 22 21 20 19 17 16 15 15 14 13 13 12 13 13 12 11 10 12 13 14 15 15 14 13 14 14 16 15 15 14 14 13 12 11 10 9 9 8 9
26 24 22 21 21 20 19 19 19 18 17 16 15 15 13 12 11 10 10 9 6 5 7 9 9 11 13 12 12 12 12 13 12 14 14 13 12 11 11 10 8 7 6 7
22 22 22 21 19 17 17 17 17 15 14 13 11 9 8 7 7 6 6 3 3 4 6 6 8 9 11 11 13 13 13 13 13 12 12 11 11 10 9 8 7 6 5 4
21 19 19 18 17 16 16 15 14 13 12 9 7 6 6 5 6 3 -1 -1 -0 2 5 6 15 11 10 14 12 11 10 8 9 9 9 5 6 7 5 4 3 2 3 2
16 16 15 14 14 13 12 11 10 8 7 5 4 4 3 2 1 -3 -6 -2 -1 4 7 8 11 10 10 9 8 8 6 4 7 4 2 3 -1 -4 -2 -0 0 -3 -8 -5
13 13 12 10 9 10 10 9 8 6 6 6 5 3 0 -4 -7 -7 -1 2 5 7 8 8 7 8 8 6 5 2 1 -1 -1 -4 -8 -10 -8 -8 -10 -12 -10 -13 -14 -12
11 10 10 10 10 10 11 10 10 8 6 2 -2 -6 -5 -3 -5 -3 -7 1 6 2 5 6 4 -4 0 2 2 -2 -0 -3 -6 -7 -9 -11 -13 -16 -21 -21 -21 -21 -22 -23
13 13 13 12 12 11 12 9 7 7 5 3 -2 -2 2 6 5 -0 -1 5 6 2 5 1 -4 -7 -9 -9 -10 -11 -10 -10 -12 -14 -18 -22 -22 -23 -21 -21 -23 -23 -24 -22
15 15 15 15 14 11 10 10 11 10 6 8 3 -1 6 -2 -5 6 4 -2 -6 -8 -7 -9 -9 -8 -10 -14 -15 -17 -19 -21 -19 -21 -17 -20 -25 -26 -25 -26 -22 -23 -22 -22
17 17 16 15 14 13 12 12 11 10 9 9 10 9 8 7 -1 1 -3 -2 1 -3 -8 -13 -10 -13 -18 -20 -18 -19 -21 -23 -23 -22 -23 -22 -23 -25 -26 -26 -26 -25 -27 -28
18 16 15 14 14 14 14 13 11 11 10 4 3 -8 -7 -3 2 2 -1 -2 -0 -3 -8 -16 -18 -20 -20 -17 -19 -20 -19 -17 -20 -20 -22 -21 -23 -22 -24 -24 -26 -25 -26 -27
13 11 12 11 11 12 13 12 10 8 6 3 1 -7 -6 -10 -9 -4 -8 -9 -12 -15 -14 -12 -14 -8 -13 -17 -18 -16 -16 -15 -18 -18 -23 -24 -24 -22 -24 -24 -25 -28 -30 -30

GFSNGP_sfc_dewp_072.txt.gz
Dewpoint
29 29 30 30 29 29 31 34 33 34 35 37 41 42 44 39 39 36 34 33 35 37 38 40 40 41 40 40 41 43 46 46 47 51 56 56 56 56 56 55 54 53 52 52
25 29 25 23 19 23 27 34 34 35 34 38 45 45 45 42 38 36 34 33 32 32 33 34 35 34 35 37 38 39 39 40 41 43 45 45 47 48 54 56 56 55 54 53
21 25 24 16 25 21 27 36 36 32 35 43 43 43 43 43 39 37 34 33 32 31 31 31 32 33 33 34 35 35 35 35 35 37 37 38 41 42 43 45 47 48 52 55
24 23 13 15 20 28 34 34 37 37 40 43 41 43 43 42 40 37 35 33 31 30 29 30 31 31 32 33 32 32 31 31 31 32 33 35 36 36 38 41 43 44 45 45
19 20 19 20 29 31 31 28 35 38 39 39 37 37 36 38 37 35 33 32 29 29 29 29 29 30 31 30 29 29 28 28 28 30 31 32 32 34 35 37 40 41 37 36
25 19 13 19 30 34 34 27 38 37 38 38 38 34 34 36 35 33 31 29 28 28 28 28 28 29 29 28 27 27 27 26 27 29 29 29 30 32 34 36 36 35 31 30
23 20 22 26 34 36 25 27 36 36 40 39 39 37 36 34 32 31 28 27 26 26 27 27 28 28 26 27 26 26 25 25 25 26 27 28 29 30 31 32 31 30 29 29
25 23 18 34 34 28 35 37 35 34 35 33 32 32 30 29 28 27 25 25 25 25 26 27 27 26 24 25 25 25 25 24 23 24 25 25 26 28 28 29 28 28 27 27
26 25 34 34 33 33 39 39 36 35 35 32 31 30 29 27 27 26 24 24 25 25 25 25 25 26 25 25 25 24 23 23 22 22 22 24 24 25 25 25 25 25 25 25
33 34 33 33 33 32 31 31 35 35 35 33 31 29 27 26 25 23 23 23 23 23 23 24 25 25 25 24 23 23 22 22 23 22 22 22 23 24 24 23 23 23 22 22
34 36 36 36 36 35 32 31 31 30 30 29 28 26 24 22 22 21 21 22 22 22 22 22 23 23 25 23 23 21 21 21 21 21 22 22 23 23 23 25 24 22 23 23
29 34 34 32 33 33 30 29 28 25 24 24 24 23 23 21 20 18 18 19 19 20 19 20 20 21 21 23 23 22 21 20 20 20 20 20 20 20 23 24 24 25 25 23
32 34 31 30 29 29 27 27 27 27 26 24 23 21 19 19 19 20 18 18 17 17 18 18 18 18 19 20 21 20 19 19 18 18 18 17 16 15 13 16 19 21 22 23
32 35 29 28 25 26 22 21 21 20 20 20 20 19 18 17 17 16 17 18 17 16 16 16 16 16 17 16 17 15 14 14 14 15 14 12 10 9 9 9 8 10 15 18
25 26 25 24 23 21 21 20 18 17 16 16 17 17 15 14 13 14 16 15 15 14 13 13 12 13 15 13 12 12 13 11 8 7 9 8 7 8 8 7 6 6 7 8
25 24 23 22 22 21 20 18 16 16 15 15 14 14 13 12 12 11 11 12 10 9 11 9 11 11 12 10 9 8 8 13 11 10 9 9 9 8 7 6 5 4 4 5
26 23 23 21 20 19 18 19 17 16 16 15 15 15 13 12 10 9 8 7 7 5 5 7 7 7 9 8 8 7 6 9 9 11 10 10 9 8 7 6 4 3 2 2
21 21 21 20 19 17 17 17 16 14 13 12 10 9 7 6 4 3 3 4 3 2 4 4 3 6 8 8 10 10 9 11 11 9 9 7 7 7 5 4 3 2 1 -1
19 19 18 17 17 16 15 13 12 11 10 7 5 4 4 3 2 -1 -4 -2 -2 -1 3 4 14 9 8 12 10 9 7 4 6 6 5 1 1 3 0 -1 -2 -4 -2 -3
15 15 13 13 13 12 10 9 9 6 5 4 0 -1 -2 -7 -9 -7 -5 -2 -1 3 6 6 8 8 8 6 6 5 3 1 5 1 -1 -2 -8 -11 -7 -4 -4 -10 -14 -14
11 11 9 9 7 7 4 2 5 5 5 2 1 -3 -4 -7 -8 -8 -2 1 4 5 6 4 4 5 5 3 3 -3 -3 -5 -6 -6 -10 -15 -14 -13 -16 -20 -18 -21 -19 -19
7 10 10 10 9 9 10 9 8 5 2 -0 -2 -4 -2 -1 -3 -1 -4 3 6 -1 3 3 1 -7 -1 0 -0 -5 -2 -5 -9 -10 -13 -16 -18 -23 -25 -25 -24 -25 -26 -27
10 11 11 10 9 9 9 8 7 6 3 2 0 1 3 5 5 -0 -2 4 6 0 3 -3 -8 -11 -12 -13 -14 -15 -13 -15 -16 -16 -21 -25 -25 -26 -24 -23 -25 -24 -24 -23
14 14 14 14 13 11 10 11 11 9 6 8 2 -1 6 0 -2 6 2 -4 -8 -10 -9 -10 -9 -11 -14 -19 -20 -21 -21 -22 -22 -22 -19 -24 -29 -29 -27 -28 -25 -27 -28 -27
16 15 14 14 12 12 12 11 10 10 10 9 9 9 7 6 -1 1 -2 -3 -0 -4 -9 -15 -13 -15 -21 -22 -22 -23 -24 -25 -24 -24 -23 -25 -25 -27 -29 -29 -28 -27 -29 -29
17 16 15 15 14 13 13 11 9 10 9 3 3 -6 -7 -4 1 -0 -4 -5 -4 -5 -9 -17 -20 -22 -21 -20 -22 -22 -22 -19 -22 -23 -25 -24 -26 -25 -27 -26 -28 -27 -29 -30
12 11 11 10 10 11 12 12 10 8 7 3 -1 -9 -7 -12 -13 -6 -9 -10 -13 -16 -18 -20 -19 -13 -16 -20 -20 -19 -18 -19 -20 -20 -25 -26 -27 -27 -26 -24 -26 -29 -32 -32

GFSNGP_sfc_dewp_075.txt.gz
Dewpoint
27 28 29 25 24 22 22 30 30 28 30 35 40 42 43 37 33 34 33 34 34 35 36 38 39 41 42 41 42 43 44 44 45 47 48 50 52 54 56 56 54 54 54 54
23 29 23 20 18 21 25 24 28 32 33 36 38 44 42 39 35 33 32 32 31 31 32 33 34 35 37 37 37 36 36 36 38 39 41 43 45 46 47 47 48 53 54 54
18 24 21 13 19 18 24 29 32 31 33 40 43 43 41 39 36 33 32 32 30 30 30 31 32 33 33 32 33 33 33 32 33 35 36 37 38 39 41 43 45 45 44 44
22 22 9 12 20 24 31 33 32 32 38 41 39 39 41 39 37 36 33 31 30 30 30 30 31 31 31 30 29 29 29 29 31 33 33 34 36 37 39 41 42 39 37 35
20 18 17 16 28 28 31 28 37 36 39 39 38 37 36 36 35 33 32 32 31 30 30 30 30 29 28 28 27 26 27 28 30 31 31 33 34 35 37 38 37 33 32 31
25 18 12 16 30 31 34 20 36 36 37 39 39 37 34 34 33 31 29 28 28 29 29 28 28 28 27 26 25 25 26 27 28 29 30 30 31 33 33 33 31 30 29 30
24 21 21 29 33 35 15 23 35 35 38 39 38 35 32 32 30 30 29 27 27 27 27 27 26 26 25 25 25 24 24 25 26 26 28 29 29 30 30 29 29 29 28 28
23 21 17 33 34 27 34 36 34 33 33 32 31 29 29 28 28 28 28 25 25 25 25 25 26 25 24 23 24 24 23 24 24 25 26 26 27 28 28 28 28 28 27 27
25 24 34 33 33 33 38 37 35 34 33 32 29 28 27 26 26 26 25 23 23 24 24 24 24 24 23 23 23 24 23 23 23 23 23 24 25 25 25 25 25 25 24 24
32 34 34 34 32 32 33 34 34 33 31 29 26 26 25 25 25 25 23 21 22 22 22 22 23 23 23 22 22 22 21 22 22 22 22 22 23 24 24 23 23 23 23 24
33 34 34 33 34 33 31 31 30 31 30 28 27 25 24 22 22 21 20 20 20 20 20 21 21 22 23 22 22 21 21 21 21 22 21 21 23 23 23 26 25 23 23 24
28 32 30 29 30 31 29 29 29 26 25 26 25 23 22 20 20 19 18 18 19 19 19 20 20 20 21 22 22 21 21 21 21 21 20 20 19 19 22 23 23 23 24 24
31 31 29 29 29 29 26 26 26 25 25 22 21 20 20 20 19 20 18 18 18 18 19 19 19 20 20 21 21 21 22 21 20 20 19 19 18 18 17 18 18 20 21 21
32 32 27 28 24 25 22 20 21 20 19 19 19 17 17 16 16 17 17 17 17 17 17 16 16 16 18 20 19 18 18 17 20 19 18 18 18 17 16 16 15 14 15 16
28 28 26 24 22 20 20 18 17 16 16 16 16 16 15 14 14 15 16 16 16 14 14 14 14 14 16 16 17 18 19 18 18 18 17 16 16 15 14 13 12 12 12 11
25 24 23 22 21 19 17 16 16 15 14 14 14 13 13 12 12 12 12 13 11 10 12 12 12 13 14 15 17 18 18 15 16 16 16 15 14 12 11 10 9 8 8 8
25 23 22 20 19 18 17 16 16 15 15 14 14 14 12 11 10 10 10 10 10 10 11 11 11 11 13 14 17 17 17 16 14 15 14 13 12 11 9 8 7 6 5 5
20 21 22 20 19 17 16 16 15 14 13 13 12 11 9 9 8 7 7 8 8 8 9 10 12 12 13 14 15 15 15 14 13 12 11 11 9 8 8 6 5 4 5 3
18 18 18 17 17 16 15 14 13 12 11 11 9 6 6 5 5 4 5 5 6 7 8 10 12 11 11 13 11 12 12 12 10 9 9 7 9 7 7 7 5 5 4 3
15 14 13 13 13 13 11 11 11 10 9 7 6 4 3 2 3 3 5 5 7 8 9 9 9 9 8 7 7 8 10 11 8 8 9 7 8 7 6 3 4 4 5 3
12 12 11 11 10 10 10 10 9 7 6 6 5 4 3 2 2 3 5 5 7 7 6 6 6 6 5 4 4 9 9 8 8 7 7 6 6 5 5 5 5 5 4 4
12 11 11 11 11 10 11 11 9 7 5 4 2 2 3 3 4 5 5 6 6 5 5 4 4 0 3 5 5 7 5 5 5 6 5 5 5 4 4 4 3 3 2 2
12 12 12 11 11 11 10 8 7 6 5 4 5 6 6 6 5 4 3 5 6 5 5 5 -2 -3 -3 5 5 5 4 4 4 3 3 3 3 3 3 2 2 2 2 1
14 14 14 13 13 11 11 11 11 10 9 8 6 6 6 6 7 5 4 2 1 4 5 5 3 -2 -1 3 3 3 3 3 3 3 3 -7 2 0 1 0 0 1 -1 -3
15 15 14 14 12 11 11 11 10 10 9 8 9 8 7 6 7 8 8 7 5 3 5 -3 -4 -6 4 4 4 3 3 3 3 3 3 3 2 1 1 0 -2 -0 -1 -2
16 14 15 15 15 14 12 10 10 10 9 9 9 7 7 7 7 8 7 4 6 4 7 6 4 3 4 4 4 3 3 3 2 2 0 1 1 0 -0 -0 -1 -1 -1 -2
15 14 12 11 12 12 13 13 13 12 12 12 10 9 8 7 7 6 3 8 8 6 6 5 4 3 5 5 4 3 3 3 -0 2 2 1 0 1 -0 -1 -1 -1 -2 -5

GFSNGP_sfc_dewp_078.txt.gz
Dewpoint
28 29 29 21 20 20 24 25 25 18 19 24 33 38 40 35 36 35 34 33 34 35 36 37 38 40 41 41 44 45 43 43 44 45 47 48 50 50 54 55 55 55 55 55
26 27 25 21 19 15 18 23 22 23 25 31 38 42 39 36 37 35 33 32 32 32 33 34 35 36 36 37 38 38 37 38 39 41 41 42 43 45 46 47 48 47 45 43
21 24 19 16 16 17 19 21 28 28 30 36 38 41 39 38 35 35 32 31 30 31 32 32 32 32 32 33 33 34 35 35 36 38 37 39 40 41 43 44 42 40 40 39
20 18 9 19 19 22 24 25 31 30 37 40 39 38 39 37 36 34 34 33 31 31 31 30 29 30 29 28 29 30 31 32 33 35 36 38 39 40 41 39 37 35 35 35
19 16 12 10 26 25 26 25 34 34 36 39 37 34 33 34 33 32 32 32 32 31 31 30 28 28 27 27 27 27 28 29 30 33 33 35 36 37 37 36 34 33 32 32
23 14 7 25 28 29 28 21 34 35 37 38 39 37 31 33 31 31 31 31 29 28 28 28 29 27 26 26 26 26 28 27 29 30 31 33 33 34 33 32 31 31 30 32
21 18 17 28 30 32 18 28 36 35 35 37 38 32 29 29 29 31 31 30 30 28 27 26 27 27 26 25 24 26 26 27 28 29 30 31 31 31 31 31 31 31 30 30
22 20 16 33 32 28 35 37 35 33 32 29 28 28 28 28 28 29 30 28 25 25 25 25 25 25 24 25 25 25 25 25 26 27 27 28 29 29 30 29 29 29 29 28
26 28 34 34 34 34 36 36 36 33 31 29 27 27 27 27 27 28 29 23 23 23 24 24 23 23 23 24 24 25 24 24 25 25 25 25 26 27 27 28 28 28 28 28
34 32 33 34 32 32 33 32 31 31 29 29 27 27 26 26 26 26 27 22 22 22 22 22 23 23 23 23 23 23 23 23 23 23 23 23 24 25 26 27 27 26 27 27
32 32 32 32 32 31 31 31 30 32 31 30 29 28 26 25 24 24 25 24 21 21 21 22 22 23 23 23 23 22 23 23 23 23 23 22 24 24 23 26 26 26 26 25
29 32 30 29 31 31 30 30 32 29 28 28 27 25 24 23 23 22 22 21 21 22 22 22 22 22 23 24 23 23 23 24 24 24 23 22 21 20 22 23 23 23 23 25
30 32 31 30 30 29 28 27 28 27 25 23 22 21 21 21 22 23 21 21 21 21 22 22 22 22 24 24 25 26 26 25 24 24 24 23 24 23 21 20 19 19 20 21
34 33 29 29 26 26 23 22 22 20 20 20 19 19 19 19 19 19 19 19 19 19 20 21 20 20 22 24 24 24 25 23 26 25 25 25 25 24 23 23 22 21 16 16
30 31 28 26 23 21 20 19 19 18 18 18 18 18 17 17 17 17 17 17 18 18 18 18 18 19 21 22 22 24 25 25 24 24 23 22 22 21 20 19 19 18 18 16
28 25 23 22 20 19 18 18 17 17 16 16 16 16 15 15 16 16 16 15 15 15 16 16 16 17 19 22 23 23 21 19 21 22 22 21 19 17 16 15 15 14 13 13
25 23 22 21 20 19 18 18 17 17 16 16 16 16 14 14 14 14 14 14 14 14 16 16 16 16 18 19 21 21 21 20 18 20 18 18 17 15 14 13 12 11 10 9
23 23 23 22 20 18 18 17 17 16 16 16 16 15 14 14 13 12 12 13 12 12 14 15 15 16 16 17 18 18 18 17 16 16 15 15 12 12 12 11 9 9 9 8
20 20 20 19 19 18 17 17 16 16 15 14 13 12 11 11 11 10 11 11 11 12 12 13 13 14 14 14 13 15 16 16 14 12 12 11 14 11 12 12 11 11 9 8
18 18 18 18 18 17 16 16 15 14 13 12 10 8 8 8 8 9 10 10 10 11 12 11 11 10 10 9 11 11 15 16 12 13 14 12 14 14 11 7 9 11 12 11
17 16 15 14 14 14 14 14 13 12 10 10 9 8 7 7 7 9 10 9 10 9 8 8 8 7 5 5 6 15 14 14 14 13 14 13 13 11 12 12 12 12 12 11
16 15 15 14 14 14 15 15 13 11 9 7 6 6 6 7 7 8 9 9 8 6 7 7 6 5 6 7 8 12 10 10 11 12 12 12 12 12 12 10 9 10 10 9
16 16 16 15 15 14 13 12 11 10 9 8 8 9 10 9 9 10 8 7 7 7 6 9 5 4 5 10 11 10 10 9 10 9 10 10 11 10 9 8 7 8 8 7
17 17 16 16 15 13 12 13 11 12 11 10 9 9 8 11 11 7 7 7 6 7 9 9 7 2 5 11 10 9 9 10 10 10 9 1 10 8 7 6 5 7 5 3
17 16 16 15 13 13 13 12 11 10 10 9 9 9 7 8 14 11 12 10 7 7 10 3 1 2 11 11 10 9 9 9 9 8 8 8 7 6 6 6 4 4 4 3
16 16 16 17 16 15 14 12 13 13 12 14 14 16 15 13 11 11 11 8 7 7 10 12 11 10 10 9 9 8 8 7 7 7 6 6 6 5 5 4 4 3 4 4
17 16 14 13 13 13 14 13 15 15 16 16 14 15 14 14 14 11 9 12 12 12 11 12 11 9 9 9 8 8 7 7 5 5 6 6 6 6 5 4 4 4 4 3

GFSNGP_sfc_dewp_081.txt.gz
Dewpoint
25 21 25 29 33 26 28 27 24 20 16 20 31 38 41 37 36 35 34 33 33 34 35 36 38 39 40 41 43 45 45 45 45 46 47 48 49 52 54 52 51 50 54 47
26 29 26 25 29 20 17 15 16 18 19 31 40 42 39 37 36 34 34 32 32 33 33 33 34 36 37 38 38 40 40 41 41 42 43 44 45 46 44 43 43 43 40 38
20 28 25 24 23 19 15 17 19 25 31 37 39 40 38 37 35 34 34 32 32 33 32 32 32 32 35 36 38 37 37 37 39 41 41 42 43 41 40 39 38 38 37 35
25 26 19 19 17 16 16 19 27 28 35 38 38 36 36 37 36 34 34 34 32 32 30 31 31 32 33 33 34 35 34 36 37 38 39 41 40 38 37 36 35 35 35 34
27 19 17 13 22 22 23 32 32 31 31 38 35 34 32 34 34 33 33 34 32 33 32 30 28 28 29 29 31 30 31 31 33 35 36 36 36 36 35 35 34 33 32 33
27 18 14 27 25 27 25 25 33 33 34 35 37 36 30 32 31 31 32 32 33 33 33 33 32 28 26 27 27 28 30 30 31 32 34 34 34 35 34 33 32 32 30 30
27 19 21 29 27 27 19 31 35 34 33 32 32 30 29 30 30 32 32 32 33 33 32 32 33 33 30 28 27 27 28 28 29 31 32 33 33 34 32 32 31 31 30 29
23 20 15 33 30 30 35 36 35 33 30 28 27 28 28 29 30 32 32 34 34 32 28 26 26 26 26 28 30 30 29 27 28 30 29 30 32 33 32 31 31 30 30 30
31 32 34 33 32 34 35 35 34 32 30 28 28 28 29 28 30 31 33 28 25 24 24 24 24 24 25 25 25 26 27 28 28 28 28 29 30 30 30 30 31 30 29 29
33 31 31 32 32 32 32 31 30 29 30 30 28 29 28 28 28 28 29 25 23 23 23 23 24 24 24 24 25 24 24 24 25 25 25 25 24 26 26 29 28 29 29 28
31 31 31 30 34 34 32 31 31 32 31 30 30 29 28 26 26 27 28 29 23 22 23 23 23 24 23 24 24 24 25 24 24 24 22 22 23 24 23 26 26 26 25 25
29 31 31 30 33 34 32 31 33 29 28 28 28 26 27 26 26 25 26 27 25 23 23 23 23 24 25 26 26 25 25 25 26 25 24 22 20 20 21 23 22 23 23 25
31 34 32 32 33 33 30 29 30 29 28 25 26 26 25 25 24 25 24 24 23 23 23 23 23 24 25 26 26 27 27 25 25 26 25 25 26 22 20 20 19 19 19 20
35 35 31 32 29 28 25 24 23 22 22 22 21 21 21 21 21 20 21 22 23 22 22 22 22 22 25 26 26 26 26 25 26 26 26 26 26 25 26 26 23 20 16 16
32 33 30 29 25 22 22 21 20 20 20 19 20 20 20 19 19 19 19 20 20 19 20 19 19 20 24 25 24 25 25 25 25 25 25 24 24 23 23 22 21 21 21 18
31 27 24 23 21 21 20 20 19 19 19 18 18 18 18 18 18 18 17 17 17 16 17 17 16 19 21 25 25 25 23 21 23 24 23 22 22 20 19 18 18 16 14 14
27 23 23 22 21 21 20 19 19 19 18 18 18 18 18 17 16 16 16 16 16 16 17 16 17 17 19 21 23 22 23 21 19 21 19 19 19 17 16 16 14 13 11 12
25 25 24 23 21 20 19 19 19 19 19 17 18 17 16 16 15 15 14 15 14 13 15 16 16 17 17 19 19 19 19 17 16 17 16 17 15 14 15 13 12 12 12 11
21 21 21 21 20 20 19 18 18 17 17 17 16 14 14 13 13 13 14 14 14 14 14 14 13 14 14 15 15 16 17 17 15 14 14 13 16 13 15 15 14 14 12 11
19 20 19 19 20 19 17 18 17 16 16 14 12 11 10 10 11 12 12 11 12 12 13 12 11 10 9 9 12 13 16 17 12 14 15 15 16 16 14 9 11 13 14 13
19 18 17 17 17 17 17 16 16 14 13 12 11 10 10 10 10 12 13 12 12 10 9 8 7 8 6 7 8 17 16 16 15 15 15 15 15 13 14 13 13 13 13 12
18 17 17 17 17 17 17 17 14 12 10 9 9 9 10 10 10 10 11 12 9 9 9 9 7 5 7 10 11 14 12 12 13 14 14 14 14 13 13 12 11 11 11 11
19 18 18 17 17 16 15 14 13 12 11 10 11 12 13 11 10 11 12 8 9 8 8 11 6 6 7 13 13 13 12 11 11 11 12 12 12 11 11 10 9 9 9 9
19 19 18 17 16 14 13 13 12 13 12 12 11 11 12 15 16 10 9 7 5 9 10 10 8 5 6 12 12 11 11 11 11 11 10 3 10 10 9 8 7 8 7 6
18 17 16 16 14 14 14 12 12 11 11 10 10 10 8 9 14 14 14 12 5 8 13 6 4 5 11 12 11 10 10 10 11 9 10 9 8 8 8 8 7 7 7 6
17 18 17 18 17 15 14 12 13 15 13 15 16 18 17 15 13 11 12 9 9 9 11 15 13 12 12 11 11 10 9 9 9 10 9 7 8 8 7 7 6 6 6 6
18 16 15 14 13 13 14 13 15 17 19 18 17 19 15 16 15 11 10 14 14 14 12 13 14 12 11 10 10 11 10 10 9 7 8 8 8 8 7 7 7 7 6 6

GFSNGP_sfc_dewp_084.txt.gz
Dewpoint
23 21 20 26 32 29 28 33 27 24 20 34 39 41 39 37 36 34 33 33 33 33 34 34 35 37 39 41 42 45 47 47 48 48 48 50 49 48 48 48 46 46 42 41
18 19 19 24 24 29 31 35 33 31 23 40 42 40 38 37 35 34 33 33 32 32 32 33 33 35 37 39 40 41 42 43 44 44 45 44 43 42 41 41 40 38 36 36
18 17 20 25 22 21 24 29 24 25 35 36 37 37 37 35 34 33 33 33 33 33 32 32 33 34 34 35 37 39 40 41 42 43 41 40 39 38 38 37 37 35 35 34
23 22 16 20 19 19 20 31 35 30 35 36 35 34 33 34 33 32 32 33 33 34 33 32 32 32 33 33 34 35 36 38 40 40 40 39 38 37 36 35 35 35 33 32
23 21 25 19 19 20 21 34 32 31 32 36 34 32 31 32 32 32 32 33 32 33 34 33 32 31 31 32 33 33 34 35 36 38 38 37 36 36 35 35 33 33 32 31
22 20 22 33 30 25 23 32 33 32 32 32 35 33 28 30 32 31 32 32 33 32 32 33 32 33 32 32 32 32 32 34 34 35 35 35 35 35 34 33 32 30 29 30
24 24 30 31 31 27 19 30 33 32 30 29 28 28 29 31 31 32 33 33 33 34 33 32 32 32 31 32 31 32 32 33 34 34 34 33 33 33 32 31 31 30 28 27
25 26 23 31 30 29 34 35 33 30 28 27 27 27 28 30 31 32 32 34 34 33 34 34 34 33 32 30 32 32 31 32 32 33 33 34 33 33 32 31 31 30 30 30
28 28 33 31 32 32 32 32 32 30 29 28 27 27 28 28 29 30 33 32 32 31 28 26 27 29 27 30 32 33 32 32 31 31 30 29 28 30 31 31 30 29 28 27
32 30 29 31 31 31 31 30 30 30 30 30 28 27 27 27 28 29 30 30 28 25 23 24 24 24 25 25 24 25 24 24 24 23 24 25 25 25 24 28 28 28 28 26
30 32 31 28 34 31 32 31 32 32 30 30 28 28 27 27 27 28 28 29 28 27 25 24 24 26 28 25 26 26 25 24 23 22 21 21 23 23 23 24 26 24 23 24
27 31 30 30 33 31 30 33 34 29 28 28 27 26 26 25 25 25 25 26 26 26 25 24 24 25 26 28 28 26 26 27 27 24 23 21 19 20 22 23 23 23 24 23
30 33 32 33 34 33 31 30 31 30 30 27 27 26 25 25 25 25 24 24 23 24 24 24 24 25 27 27 27 28 28 27 26 26 27 28 24 21 18 18 19 18 19 20
35 35 32 32 30 32 29 26 24 22 22 22 22 22 22 22 23 22 22 23 23 23 22 22 22 22 26 26 28 27 26 26 27 27 26 26 26 26 25 24 19 17 17 17
33 34 31 31 26 25 24 22 21 20 20 21 22 22 21 21 21 21 23 21 20 19 19 19 19 20 23 26 23 24 26 27 26 26 26 25 25 24 23 22 21 19 20 18
32 33 28 25 22 21 21 21 20 20 19 19 19 19 19 18 17 17 16 17 16 15 16 16 16 18 20 21 26 24 23 23 24 25 24 23 23 21 20 19 17 14 12 13
33 29 26 23 21 21 20 21 21 20 20 21 22 21 18 17 16 15 15 16 16 16 16 16 17 17 17 19 23 24 24 23 19 21 21 21 20 19 18 17 14 11 10 10
25 25 25 24 23 21 20 20 18 17 17 17 18 17 16 16 15 15 15 15 14 13 14 16 16 17 16 17 18 21 21 19 18 18 17 18 17 17 17 16 15 14 13 10
22 22 22 21 21 20 18 17 17 18 18 17 15 13 13 13 14 14 15 16 15 13 13 15 17 16 14 15 16 19 19 19 18 17 17 16 18 16 16 16 15 15 14 13
21 21 20 20 19 18 17 19 17 16 15 14 12 11 11 10 11 11 12 11 11 12 14 12 14 12 10 10 14 16 19 19 15 15 16 17 18 16 12 8 13 14 13 13
19 18 18 17 17 17 17 18 15 13 12 11 11 9 9 11 11 12 17 15 12 12 12 10 6 6 6 8 11 18 17 17 17 16 16 17 16 15 14 13 13 12 12 12
19 18 18 18 18 17 17 16 14 12 11 9 7 8 9 12 11 12 10 12 10 8 11 10 6 5 7 8 14 16 14 14 15 16 15 15 14 14 13 12 10 11 10 11
19 19 19 19 17 15 15 15 13 13 11 11 12 13 12 11 10 12 14 9 9 8 12 8 4 3 3 14 15 14 14 13 13 13 13 13 13 12 11 10 7 7 8 9
20 20 18 17 17 15 14 14 13 14 13 13 12 10 12 15 17 11 10 5 5 6 10 9 6 2 1 14 14 13 12 13 13 13 12 1 10 10 10 8 6 7 6 3
19 18 17 17 15 15 14 13 12 12 12 10 10 11 11 11 15 16 16 13 7 6 15 4 2 0 10 13 13 11 11 12 12 8 7 9 9 8 9 10 7 7 5 2
17 18 18 17 17 15 14 13 14 16 15 15 18 19 18 17 14 12 15 10 11 8 12 14 14 10 13 12 14 11 11 10 11 11 10 9 7 7 8 6 5 5 4 5
18 19 15 14 13 12 15 13 15 19 21 20 18 21 17 18 17 12 10 15 16 16 16 16 16 14 13 12 10 10 12 12 10 10 9 7 6 7 6 6 6 6 5 2

GFSNGP_sfc_dewp_087.txt.gz
Dewpoint
20 18 18 19 26 24 27 31 31 33 32 39 39 38 37 35 34 33 33 32 32 32 33 33 34 35 36 39 41 45 48 48 48 50 49 47 46 46 45 44 43 43 41 40
20 21 21 16 17 20 25 32 33 34 35 40 40 38 35 34 33 32 32 32 32 32 32 32 33 34 35 36 38 42 43 44 45 44 43 43 42 41 41 39 38 37 36 37
16 20 22 20 22 21 27 32 32 31 37 37 35 34 34 34 33 32 32 32 32 32 32 32 32 33 33 35 36 37 40 41 41 40 39 38 38 38 37 36 35 35 35 35
20 21 15 18 25 28 34 35 36 37 35 35 33 32 31 32 31 31 31 31 32 33 33 34 34 33 33 33 34 35 36 39 39 38 37 37 36 35 35 34 33 33 32 33
20 19 22 23 34 33 31 33 32 31 31 34 32 30 28 30 31 31 32 32 32 33 33 33 33 34 33 33 33 33 33 35 37 37 36 36 35 34 34 33 32 31 31 31
24 19 16 30 34 33 34 30 31 30 29 30 33 30 26 30 31 31 32 32 32 33 32 32 32 33 32 32 32 32 32 33 34 35 36 35 34 34 33 31 30 30 30 31
23 20 26 32 31 31 25 28 30 28 27 27 25 26 29 31 31 32 32 32 33 34 32 32 33 32 30 30 30 32 33 33 33 34 34 34 34 33 32 31 30 28 28 29
25 22 21 30 30 26 34 32 29 28 26 25 26 28 28 28 29 32 32 33 34 32 33 35 34 32 30 29 32 32 32 31 31 31 31 32 33 33 33 31 29 28 28 28
27 26 33 31 31 33 32 32 30 28 27 27 26 26 27 26 27 28 32 31 32 31 30 30 31 30 29 31 32 30 28 27 27 28 28 28 27 29 31 31 29 26 25 24
30 29 29 32 33 33 34 31 29 29 28 26 24 24 24 25 26 25 28 29 28 26 25 26 28 29 29 27 26 27 26 25 25 25 25 25 25 25 25 26 26 26 24 23
30 31 29 30 33 34 33 31 30 30 28 28 26 26 26 25 24 25 25 26 26 25 25 25 26 27 28 28 27 25 23 22 22 21 22 22 23 23 23 25 23 22 22 22
24 30 29 30 33 32 30 32 30 27 27 27 26 24 25 23 24 23 23 24 23 23 23 24 24 26 27 27 28 27 28 26 24 21 20 19 19 19 23 23 23 23 22 22
28 32 30 32 33 32 29 30 29 28 27 25 26 25 24 24 24 24 23 22 21 21 22 22 21 23 25 27 26 26 26 27 26 27 25 21 19 17 16 18 19 21 21 22
34 33 29 31 29 29 26 24 24 23 24 24 23 23 23 22 22 21 21 21 21 20 19 20 20 20 22 25 26 25 24 25 25 25 25 24 24 20 19 16 14 13 18 19
33 32 31 30 28 27 26 22 21 21 22 22 23 21 19 18 17 18 22 19 17 16 16 16 16 17 20 22 22 21 24 20 20 19 19 20 20 19 19 17 15 13 13 15
32 29 26 23 21 21 22 21 20 20 21 21 20 19 18 17 17 17 17 17 14 14 16 15 15 15 16 18 21 17 17 19 20 20 19 17 17 18 16 13 10 7 7 7
31 27 27 22 21 22 21 21 21 21 17 17 20 19 17 16 14 13 14 15 13 12 12 11 10 13 14 14 16 19 17 18 17 18 17 17 15 16 15 11 9 7 4 2
26 25 24 23 21 19 19 18 17 16 16 17 14 13 12 12 11 10 11 11 9 10 11 11 12 13 12 14 16 19 18 17 17 15 15 14 16 16 14 13 11 8 6 8
23 22 23 21 20 18 17 17 16 15 12 9 7 4 3 2 3 3 8 10 7 7 8 10 16 13 12 14 15 19 17 16 17 15 18 13 11 11 11 10 8 7 9 8
20 19 18 18 17 17 16 12 13 10 5 5 1 1 -1 -2 -3 0 -0 0 1 5 8 10 10 10 11 11 11 16 16 15 15 12 13 13 9 0 0 5 7 3 -1 -2
16 15 13 11 10 10 10 6 6 2 -1 -1 0 -4 -2 -2 -1 0 8 9 4 7 11 7 5 5 8 7 11 9 10 8 6 7 6 4 1 3 2 0 1 -0 1 2
11 12 12 12 13 10 4 3 2 -1 -1 -2 -4 -3 -1 2 -1 2 -0 7 9 4 8 7 6 -2 3 3 11 4 6 6 6 8 4 4 5 6 4 -2 -2 -2 -2 -2
12 13 12 11 8 6 4 3 1 1 -1 -2 -2 0 4 9 10 9 6 8 10 7 8 3 -2 -4 -4 2 -1 -2 3 -1 -2 -2 -2 -6 -4 -7 -4 -5 -6 -5 -6 -7
16 15 11 10 11 13 12 12 12 12 5 8 3 1 10 6 12 12 7 1 -3 -4 -1 -3 -6 -5 -7 3 0 -4 -4 -5 3 -2 -1 -4 -2 -3 -5 -6 -9 -10 -10 -6
15 14 14 14 16 17 16 16 15 15 14 14 12 11 11 13 6 8 8 3 3 0 3 -2 -3 -5 -9 -6 -2 -6 -6 -4 -3 -10 -11 -10 -7 -5 -3 -2 -1 -4 -9 -12
17 17 18 19 17 18 18 17 15 18 18 14 13 11 9 7 7 6 3 3 4 3 -1 -0 -5 -3 -7 -6 2 1 -4 -2 -5 -2 0 -5 -6 -3 -4 -1 -3 -6 -9 -10
19 15 17 17 17 16 13 12 10 8 6 6 9 15 13 8 3 4 0 1 -2 5 2 -1 3 6 1 -5 -6 -6 -6 -4 1 -1 -8 -9 -10 -11 -11 -8 -6 -5 -2 -5

GFSNGP_sfc_dewp_093.txt.gz
Dewpoint
21 21 18 16 17 17 19 19 19 18 23 26 36 35 35 32 31 30 30 30 31 30 31 32 33 34 35 37 39 42 43 43 44 49 51 49 48 46 45 45 44 44 44 43
16 13 12 15 18 19 19 19 19 17 18 37 37 35 34 31 30 29 30 30 31 30 31 31 32 33 34 35 37 39 39 39 40 41 42 41 41 41 40 39 40 40 39 38
11 17 19 15 21 28 20 19 23 20 28 36 33 30 29 29 29 29 29 30 30 31 31 31 32 32 32 34 35 36 37 37 36 37 36 36 36 36 36 36 37 37 36 35
16 17 11 19 31 32 30 32 34 35 34 33 29 29 29 29 28 29 30 30 30 30 30 31 32 32 32 32 33 33 34 35 35 34 33 33 33 33 33 34 34 35 34 34
13 16 17 20 30 29 28 29 33 33 32 30 29 27 26 29 30 30 31 31 31 32 31 31 31 32 32 31 30 30 31 32 33 34 33 32 31 31 31 31 31 32 33 32
23 11 10 22 28 30 34 24 30 30 29 32 29 29 24 29 31 31 32 32 31 32 32 31 31 31 29 28 28 28 30 30 32 32 32 32 31 30 30 30 30 30 30 31
20 18 21 27 30 33 23 23 28 26 26 27 24 26 29 31 30 31 29 30 29 28 30 31 31 29 26 26 25 28 29 30 30 30 32 32 31 31 30 30 29 29 28 29
23 21 18 29 28 23 29 30 28 26 26 25 26 26 26 26 26 27 25 26 26 27 27 28 28 28 26 26 27 27 27 27 27 28 29 30 29 29 29 29 28 28 27 27
23 22 31 31 29 31 32 30 28 27 26 24 23 21 21 22 21 22 24 25 24 25 25 27 28 25 25 27 26 25 25 25 26 26 26 27 26 27 26 27 26 26 26 26
26 27 27 30 30 31 29 27 27 27 25 23 20 20 19 19 19 19 21 22 23 22 22 23 26 28 27 26 25 24 24 24 25 25 25 25 25 25 24 24 24 24 25 25
25 28 28 29 30 29 28 28 28 27 26 24 21 20 21 20 19 19 18 20 21 20 21 21 23 25 27 30 26 24 23 24 23 23 23 24 25 25 24 26 25 24 24 25
20 27 27 27 29 31 27 26 27 24 22 23 21 19 18 18 20 19 18 18 18 18 19 19 21 22 24 27 28 25 21 21 21 21 21 21 23 24 28 28 28 28 28 27
26 30 30 29 30 29 27 26 25 24 22 22 22 21 20 19 19 20 18 17 16 16 17 16 17 18 19 25 25 25 26 25 22 21 19 19 19 19 18 20 23 26 25 26
33 29 27 29 27 30 27 25 24 22 22 22 21 20 20 18 18 17 17 17 17 16 14 14 14 13 15 18 22 22 22 22 22 23 20 18 18 17 17 16 15 16 21 23
32 32 28 28 24 23 23 22 22 20 20 19 18 17 17 16 15 16 17 14 14 13 13 13 11 11 13 15 15 17 19 18 18 19 19 19 17 16 15 14 13 13 15 14
31 29 26 28 25 21 21 20 19 19 19 17 16 16 15 14 14 13 13 12 10 9 10 8 10 10 13 12 14 16 16 18 17 17 18 17 16 13 12 12 12 11 10 10
25 24 24 22 21 21 20 20 19 19 18 17 17 15 12 12 11 11 8 6 3 0 0 3 4 7 11 12 16 14 14 15 14 16 16 15 12 10 11 10 11 10 7 6
26 27 26 23 20 19 18 17 17 17 15 15 10 7 5 5 3 1 -1 -3 -1 1 1 1 5 7 9 12 15 16 15 16 16 15 15 14 13 11 10 10 10 9 7 5
25 23 22 20 19 17 16 15 13 11 7 5 5 -0 -6 -8 -6 -6 -4 -6 -6 -2 1 1 13 10 11 13 14 14 13 11 13 14 13 11 10 11 7 6 5 3 5 5
19 18 18 16 15 14 11 7 8 5 -2 -1 -6 -5 -5 -9 -12 -9 -8 -4 -3 0 1 5 7 9 10 10 9 12 11 7 11 8 6 6 0 -1 4 7 7 2 -3 -1
12 11 9 8 3 1 0 -3 1 -2 -8 -10 -4 -9 -8 -10 -11 -11 -1 3 -0 4 6 3 3 5 9 6 7 -0 3 2 3 2 -3 -2 -7 -6 -7 -4 -4 -9 -11 -11
2 5 4 3 3 -2 -6 -6 -3 -8 -8 -9 -13 -13 -9 -2 -5 -2 -6 3 6 2 4 3 2 -5 3 2 5 -4 1 1 3 5 3 1 -1 -5 -8 -6 -8 -7 -6 -11
6 5 3 2 3 0 -4 -4 -6 -6 -6 -8 -6 -4 -0 5 7 3 2 8 10 3 6 -1 -6 -8 -7 -11 -11 -12 -11 -9 -8 -8 -7 -8 -5 -4 -4 -3 -6 -6 -8 -8
8 10 6 6 7 10 8 8 7 8 -2 3 1 -4 6 4 0 10 8 1 -1 -4 -6 -8 -9 -7 -10 -13 -14 -14 -14 -14 -14 -16 -13 -14 -16 -12 -10 -10 -10 -16 -19 -16
13 12 10 10 12 12 14 13 12 13 12 12 11 10 6 11 4 4 -1 -2 -0 -3 -4 -6 -5 -8 -15 -16 -15 -14 -15 -16 -16 -17 -17 -18 -16 -14 -13 -15 -15 -13 -18 -17
16 15 13 14 15 15 16 16 11 11 13 10 10 11 9 7 10 9 5 -1 -1 0 -3 -6 -13 -13 -15 -14 -14 -14 -14 -12 -12 -12 -16 -15 -18 -16 -17 -15 -15 -10 -10 -13
17 16 16 15 15 14 14 13 7 5 2 -3 -1 -3 1 -3 2 6 3 0 -2 -2 -3 -2 -3 -3 -2 -1 -2 -4 -4 -8 -11 -8 -9 -8 -9 -11 -10 -12 -14 -15 -14 -14

GFSNGP_sfc_dewp_096.txt.gz
Dewpoint
19 21 18 18 13 11 15 16 15 8 13 17 30 33 34 34 33 31 30 30 30 30 30 31 32 32 33 34 36 39 37 38 39 41 42 47 51 49 47 46 46 46 45 43
16 17 14 12 14 16 18 18 18 18 17 27 35 34 31 30 30 29 28 30 30 29 30 31 31 32 32 33 34 35 36 37 36 37 37 37 40 41 41 41 40 39 38 38
10 17 14 6 15 26 27 28 28 19 20 32 30 28 28 28 29 29 28 29 29 30 30 30 31 32 32 32 32 33 33 35 36 36 35 34 34 36 37 37 36 35 35 35
14 15 1 19 30 30 28 30 29 31 33 33 28 28 29 30 28 29 28 29 29 30 30 30 31 30 30 32 31 30 31 32 33 34 34 34 32 32 33 34 34 33 33 33
9 14 14 20 27 26 26 25 30 30 31 29 28 27 26 29 29 30 31 30 30 31 30 30 29 29 28 28 29 29 30 30 32 32 32 32 32 32 31 31 31 31 32 32
20 10 7 20 26 29 32 22 28 28 29 30 29 27 23 28 29 29 30 29 28 29 30 29 29 28 27 26 26 26 28 29 30 31 31 30 30 30 31 31 30 30 30 31
18 15 18 25 28 30 22 20 27 27 27 30 24 26 28 28 26 27 28 28 28 28 28 27 28 27 25 24 24 26 28 28 28 29 29 30 29 29 29 29 29 28 28 29
21 18 13 27 25 21 26 29 28 27 26 24 24 24 23 23 23 24 24 25 26 26 26 27 26 26 24 24 25 25 25 25 25 26 27 27 27 28 28 28 27 27 27 27
23 20 29 29 28 30 30 28 27 26 25 23 21 20 20 20 19 20 22 23 24 24 24 25 27 26 24 26 26 24 23 24 24 24 24 25 24 24 25 26 26 26 26 26
25 27 27 29 29 29 28 26 26 25 23 22 19 18 17 16 16 17 19 20 21 21 20 21 24 26 28 26 25 24 23 23 23 24 23 24 24 24 24 24 24 25 25 25
25 27 27 28 29 29 28 27 24 24 23 22 20 19 19 18 16 16 16 18 19 19 19 20 21 22 24 27 24 22 22 22 22 21 22 23 24 24 24 27 26 24 25 26
18 27 26 26 30 30 27 25 25 22 21 22 20 19 19 18 19 17 16 17 16 16 16 17 18 19 21 24 26 25 21 20 20 21 21 21 21 20 27 28 28 29 29 28
22 29 27 29 28 27 25 24 24 22 21 20 21 20 19 18 18 19 17 16 14 13 14 13 14 15 17 20 23 23 23 24 21 20 19 19 19 18 18 21 24 27 27 26
29 28 26 28 26 26 24 22 23 22 21 20 19 20 18 17 16 15 16 17 15 14 12 10 10 11 12 15 17 16 16 18 18 17 16 16 15 16 16 15 15 15 20 22
31 30 28 27 24 24 23 22 19 19 18 18 18 17 16 15 14 14 14 12 12 11 10 9 10 10 11 11 12 13 13 11 10 13 13 13 14 14 15 15 14 13 14 14
30 29 28 25 23 22 21 20 19 18 18 17 16 15 15 13 12 11 10 9 8 7 8 5 8 7 10 9 10 11 11 14 13 13 12 12 12 13 12 12 12 11 10 10
25 24 25 24 22 22 20 20 19 18 17 16 15 14 12 11 10 8 5 3 -1 -4 -4 -1 2 5 8 9 12 11 11 12 12 13 12 11 10 10 11 11 10 9 8 8
26 25 24 23 22 19 18 18 18 17 15 14 9 6 3 3 0 -3 -4 -6 -4 -2 -1 -3 2 6 7 11 13 14 13 14 14 12 13 10 11 11 10 10 10 8 7 5
25 24 22 20 20 18 16 14 12 10 6 4 4 -2 -8 -11 -10 -9 -11 -8 -6 -2 1 0 12 9 10 12 12 13 11 9 11 11 11 8 7 8 5 5 5 4 7 6
19 19 17 15 14 14 11 6 7 3 -4 -1 -5 -8 -7 -10 -15 -12 -10 -5 -5 -1 0 4 6 8 9 8 7 10 8 4 9 7 5 5 -3 -3 2 5 3 -2 -5 -3
12 11 9 7 2 2 0 -5 -0 -2 -11 -12 -5 -9 -7 -11 -13 -13 -2 3 -1 3 5 2 3 5 7 6 5 -2 1 -3 -2 -1 -5 -6 -8 3 -2 -2 -1 -2 -7 -8
2 4 2 2 3 -3 -9 -8 -2 -6 -8 -11 -15 -16 -11 -4 -7 -4 -6 3 5 0 3 2 1 -6 1 -1 3 -6 -0 -1 -4 -1 1 1 -3 -5 -6 -6 -5 -4 -6 -4
4 3 2 1 3 -0 -4 -5 -8 -7 -8 -9 -8 -7 -2 4 5 2 2 7 8 2 5 -1 -6 -10 -10 -12 -14 -14 -13 -12 -11 -10 -13 -15 -13 -10 -5 -4 -5 -5 -11 -11
7 8 6 6 6 8 6 8 6 6 -3 2 -0 -5 5 2 1 9 7 1 -3 -7 -7 -9 -10 -8 -12 -16 -15 -16 -16 -16 -16 -17 -13 -16 -21 -18 -16 -14 -12 -15 -17 -17
12 11 9 9 11 10 12 11 10 12 12 12 11 11 6 8 5 5 0 -3 -1 -2 -5 -9 -8 -9 -16 -18 -17 -17 -18 -18 -18 -18 -17 -19 -18 -18 -13 -13 -12 -6 -7 -8
15 13 12 13 13 13 14 14 10 10 10 6 5 -2 -1 6 10 10 7 0 -1 1 -4 -8 -13 -14 -15 -13 -14 -14 -13 -12 -15 -15 -17 -16 -20 -18 -19 -17 -19 -15 -7 -4
16 13 14 13 14 13 12 11 6 4 -0 -5 -3 -6 -3 -6 -7 2 5 1 -2 -1 1 0 0 2 1 1 1 -2 -4 -4 -8 -6 -12 -11 -13 -11 -13 -12 -14 -16 -18 -11

GFSNGP_sfc_dewp_099.txt.gz
Dewpoint
16 19 19 18 15 14 11 11 12 -1 7 12 16 23 32 31 30 28 28 28 29 29 30 30 30 31 32 32 33 35 36 37 38 38 38 39 44 44 55 53 50 49 47 45
15 17 17 14 13 11 11 13 15 18 21 25 26 33 31 30 30 29 27 28 28 28 28 29 30 30 31 32 32 33 33 34 36 37 37 36 36 38 40 42 41 40 39 39
5 14 11 6 12 12 21 25 25 23 25 29 31 30 28 28 29 28 28 27 28 28 28 29 29 29 30 31 32 30 31 32 33 35 35 36 35 34 34 35 36 35 35 35
10 13 -2 23 27 28 25 27 28 28 31 32 29 28 29 30 29 29 28 28 28 29 29 29 29 29 29 29 30 30 29 30 31 32 33 35 34 33 32 32 33 33 33 34
14 13 12 23 26 26 25 24 27 26 30 28 28 27 27 30 30 28 28 28 28 29 28 29 28 28 28 27 28 28 28 28 30 30 30 31 32 32 32 32 31 31 32 32
19 13 10 21 24 26 30 21 26 26 26 27 29 26 23 28 28 27 28 28 28 29 29 27 29 28 26 26 26 26 28 29 30 30 29 28 29 30 32 31 30 30 30 31
18 17 19 25 26 28 20 20 26 26 26 30 23 24 26 26 25 26 26 27 27 27 27 29 28 28 26 25 25 27 28 28 28 29 29 29 29 30 29 29 29 28 28 28
19 18 15 26 23 20 26 29 27 26 26 23 23 23 23 23 22 24 24 24 24 25 25 26 27 26 26 25 27 26 26 27 27 27 28 30 28 29 30 30 28 28 27 26
23 22 29 28 27 29 29 26 26 25 25 23 21 20 20 20 20 21 22 22 22 23 22 23 24 25 25 26 26 26 26 25 27 27 28 29 29 28 28 29 28 28 28 28
25 26 27 28 29 28 28 25 25 25 23 22 20 19 18 19 19 19 20 21 20 19 19 21 23 24 24 24 22 23 23 24 25 26 26 27 26 27 27 28 28 28 28 27
24 27 28 28 28 28 27 26 24 25 24 22 20 20 19 18 19 19 19 19 19 19 19 20 21 22 23 25 24 20 21 23 23 23 24 23 26 27 27 30 28 27 27 28
22 27 26 27 29 29 26 25 25 22 20 20 19 19 19 18 19 18 17 18 17 17 17 18 19 20 21 23 24 24 22 19 21 22 22 21 21 23 25 28 28 27 26 27
26 29 28 28 28 26 24 23 22 21 20 19 19 18 18 19 19 19 18 17 15 14 14 16 17 17 17 21 22 23 22 19 18 20 20 21 21 21 21 23 22 24 25 24
28 27 26 27 24 24 22 21 22 20 19 19 18 17 16 16 15 14 15 15 14 13 14 15 15 15 15 19 21 20 23 19 21 20 21 21 21 21 21 21 19 19 19 21
29 29 28 26 24 23 22 20 18 17 17 17 17 15 14 13 12 11 11 10 10 11 11 13 13 13 14 16 18 19 23 23 22 21 20 19 20 20 19 18 17 17 17 16
29 27 25 23 22 22 21 19 18 17 17 16 15 14 12 10 10 9 8 7 6 6 7 9 12 11 14 16 19 20 21 19 19 21 19 17 17 17 17 16 15 14 14 14
26 25 25 23 22 21 20 19 18 17 16 15 15 13 10 9 9 8 7 6 5 5 6 7 10 11 12 15 19 19 20 20 17 19 16 15 15 15 16 15 13 12 12 13
27 26 27 24 23 20 19 19 18 17 16 14 12 10 9 10 9 7 4 5 6 8 7 6 10 12 13 16 17 18 18 17 17 17 15 15 14 14 15 14 12 11 11 10
26 24 24 23 21 19 18 16 15 13 11 10 9 6 5 3 5 5 3 6 8 9 8 7 12 12 12 14 14 15 15 17 16 15 16 14 15 14 15 15 14 13 12 10
22 21 19 18 17 16 13 11 11 7 5 6 2 4 6 3 1 3 4 7 8 10 7 6 9 11 11 10 10 11 14 15 13 14 14 14 15 16 16 12 13 14 14 13
17 15 13 10 7 6 6 6 6 6 1 2 8 6 6 3 1 2 10 10 10 9 5 4 4 8 8 7 8 13 13 13 13 12 12 12 13 13 14 15 15 14 14 13
11 9 7 7 6 3 2 5 5 2 2 1 -2 -1 3 8 5 7 6 10 10 5 5 6 3 -1 6 6 8 11 10 10 11 11 11 11 11 11 11 12 12 13 13 13
9 9 8 7 9 7 5 5 4 5 5 5 5 7 10 12 12 12 10 10 10 8 9 10 2 -3 -2 11 11 11 10 10 10 10 10 9 8 9 10 10 10 11 11 11
10 10 9 8 7 6 5 6 6 8 7 8 8 6 9 14 15 13 13 8 4 6 10 10 8 1 -4 9 9 10 10 10 10 10 10 2 9 8 9 9 9 10 9 6
12 11 9 10 8 8 8 9 10 12 12 12 13 12 10 11 13 14 14 14 6 7 12 3 -1 -2 8 9 8 8 9 9 10 9 9 9 9 8 9 9 8 9 9 8
12 10 10 13 13 14 13 13 14 15 15 16 15 13 13 12 14 14 15 12 12 8 12 12 10 10 10 9 9 8 8 8 8 8 7 8 8 7 7 8 7 8 8 8
15 13 13 14 16 17 17 16 17 15 14 14 12 12 10 11 12 12 11 14 13 11 11 11 10 8 8 9 9 9 10 10 8 8 8 8 7 8 7 8 8 8 7 5

GFSNGP_sfc_dewp_102.txt.gz
Dewpoint
13 14 13 13 12 11 10 8 11 1 1 6 19 27 28 31 30 30 30 30 29 30 30 31 31 31 31 31 32 33 34 34 36 38 39 38 39 41 45 52 57 56 53 51
9 11 12 10 8 8 9 8 6 6 11 25 29 32 32 31 30 29 29 29 28 28 29 30 29 29 30 31 33 31 31 32 34 35 37 37 37 36 37 37 40 44 44 44
-1 9 8 4 9 8 7 10 19 20 25 27 29 33 30 30 29 28 28 29 28 28 29 29 30 30 30 32 32 31 29 30 31 32 34 35 36 35 34 34 34 36 38 37
9 10 7 22 26 27 25 26 28 27 26 28 30 31 30 30 29 28 28 29 28 29 29 29 29 29 29 30 30 31 29 29 30 31 31 32 34 34 33 33 32 32 33 35
19 15 13 23 26 27 27 23 29 27 26 26 29 29 28 29 29 29 29 30 30 30 30 30 29 29 28 28 28 28 30 30 31 30 30 30 30 31 32 32 31 30 32 33
19 14 12 27 25 25 29 22 25 26 26 29 31 29 24 28 29 29 30 30 30 31 31 29 30 29 28 28 28 29 29 30 31 32 31 30 31 30 31 30 29 29 28 30
19 19 24 25 26 27 22 23 26 26 26 29 26 26 27 28 27 29 29 30 30 29 28 30 33 31 29 28 27 29 30 30 30 31 32 32 32 32 32 31 29 28 27 27
19 20 17 26 25 26 27 29 28 28 27 26 26 25 25 25 25 26 28 28 28 27 26 26 26 27 29 28 30 31 30 30 30 31 32 33 32 32 32 32 31 30 28 27
25 25 28 27 27 28 30 29 28 27 26 25 23 22 23 23 24 25 26 23 22 23 23 24 24 25 26 27 29 31 30 29 30 31 31 32 31 31 32 32 32 31 30 29
28 27 27 28 27 28 29 27 28 27 26 25 22 22 22 23 23 23 24 23 21 21 21 22 23 24 25 25 22 24 25 26 27 28 29 29 28 28 28 30 30 29 30 29
27 28 27 28 29 28 28 27 26 26 25 24 24 24 23 22 23 23 23 23 21 21 21 21 21 21 22 23 24 22 21 24 25 24 25 25 26 26 27 28 27 28 28 28
26 27 29 28 29 29 27 26 25 22 21 22 22 22 22 21 21 21 21 21 20 20 20 21 20 20 21 22 21 21 19 19 22 23 24 23 23 23 24 24 25 25 25 26
29 31 30 30 29 27 25 25 24 22 21 20 20 20 20 21 20 20 19 19 19 19 20 21 21 20 21 23 23 23 22 20 20 21 21 22 23 23 23 24 22 21 22 23
30 28 27 27 25 25 22 21 21 19 19 19 18 18 17 17 16 15 16 17 17 18 19 19 19 18 20 23 23 24 26 23 25 24 25 25 25 25 24 23 23 22 19 19
29 29 27 25 23 21 20 19 19 18 18 17 17 16 16 14 12 12 11 9 10 13 15 17 17 18 19 21 23 23 25 25 26 26 25 23 24 23 23 22 21 21 21 19
29 27 24 23 22 21 20 19 18 17 17 16 15 14 11 10 9 10 9 9 7 9 11 13 15 16 18 21 23 23 23 21 21 23 22 21 21 20 19 19 18 18 17 17
27 25 24 23 22 21 20 19 18 17 17 17 16 12 11 9 8 10 11 12 12 12 11 12 14 16 17 20 21 21 22 21 19 20 19 19 19 19 17 17 16 15 15 15
29 28 26 25 23 21 20 19 18 18 18 17 16 15 15 14 12 10 11 12 12 12 11 12 14 16 16 17 18 17 17 17 16 17 17 18 17 15 17 16 14 14 14 14
28 28 27 25 23 22 21 20 20 18 15 15 15 14 13 12 13 11 12 12 12 12 11 11 12 13 14 14 13 13 14 16 15 13 15 15 17 15 16 16 15 15 14 13
26 26 24 23 21 21 19 18 17 15 14 14 11 11 12 10 10 11 12 12 12 12 11 10 10 10 9 8 10 9 14 15 12 13 15 14 16 17 17 13 13 14 16 15
24 23 20 17 16 16 16 15 13 12 12 12 14 13 13 12 11 11 14 13 13 11 8 7 6 8 6 7 6 15 14 14 14 14 14 14 15 14 16 16 16 16 16 16
20 17 14 14 14 13 14 15 13 10 10 10 9 9 11 13 12 13 13 13 12 9 9 10 7 6 8 10 10 14 11 11 12 12 12 12 12 12 13 13 14 14 14 14
17 16 15 13 13 13 12 12 10 11 11 11 12 14 16 16 16 16 15 12 12 11 11 14 8 5 6 15 15 14 13 12 12 11 12 12 12 11 11 11 11 11 12 12
17 17 16 16 13 10 9 10 11 13 14 14 14 13 14 19 20 16 16 14 10 13 16 17 14 9 7 16 16 16 15 15 14 14 12 9 12 11 10 10 9 10 11 10
17 16 13 11 8 10 10 10 11 11 12 13 14 14 15 15 19 18 19 19 12 12 17 11 7 9 16 16 16 15 15 15 15 15 15 14 12 12 11 10 10 10 9 9
14 9 9 10 12 13 14 13 16 17 16 18 18 20 21 19 18 18 18 15 17 15 17 17 15 14 14 13 12 12 12 11 12 13 13 14 14 13 12 11 10 10 10 10
12 14 15 15 16 16 18 18 19 18 19 20 17 19 18 19 19 16 15 17 17 16 15 14 14 11 11 11 10 10 10 10 9 9 10 11 12 12 12 12 11 12 13 10

GFSNGP_sfc_dewp_105.txt.gz
Dewpoint
10 10 10 12 13 12 11 11 11 5 2 4 23 27 31 30 30 30 29 29 29 29 30 30 31 31 32 33 34 33 32 32 33 34 36 38 39 39 39 39 41 50 56 54
12 10 8 6 4 5 5 5 6 3 3 27 28 29 32 31 30 28 28 28 28 28 28 29 30 30 31 31 32 33 31 31 31 33 33 34 35 37 36 36 35 37 40 43
3 7 5 2 7 5 5 3 10 12 24 25 29 30 31 31 28 28 27 27 28 27 28 29 30 29 30 30 31 31 32 32 32 32 32 32 33 34 34 35 34 33 34 36
10 9 3 21 25 24 24 23 26 25 25 25 28 29 29 29 29 27 27 28 29 29 29 30 32 30 30 30 29 30 31 32 32 32 32 32 31 31 32 32 32 32 31 33
18 12 15 19 24 28 27 27 28 26 26 26 28 28 26 27 28 29 30 31 31 30 31 32 32 30 29 28 28 28 30 31 32 33 32 32 31 30 30 28 29 29 30 30
18 16 11 29 24 24 28 23 25 26 26 25 28 28 25 27 29 30 31 31 31 32 32 32 32 30 28 29 28 29 30 31 32 33 33 32 32 32 32 31 29 28 27 28
18 17 25 26 25 27 23 24 26 26 26 29 30 27 28 29 28 30 30 31 32 30 31 32 33 33 30 30 29 31 31 31 31 32 33 33 34 33 33 32 32 30 28 27
18 20 21 26 25 25 28 29 26 27 28 28 27 26 26 26 27 28 30 29 30 30 28 26 26 27 30 30 33 34 32 31 31 31 32 32 32 33 33 32 32 32 31 30
27 27 28 28 28 28 29 28 29 28 28 27 25 25 25 25 25 26 28 27 24 23 23 23 23 24 25 28 30 32 32 32 32 31 30 31 30 29 29 32 30 30 29 28
28 27 26 27 27 28 28 28 27 27 27 26 24 25 25 25 25 25 26 23 21 21 20 20 21 21 21 22 22 22 25 26 27 29 28 27 26 26 25 26 28 27 26 27
27 27 26 26 27 27 27 27 27 27 25 25 25 25 24 24 25 25 24 23 21 20 19 19 18 19 20 20 20 19 20 21 23 25 26 26 25 24 24 26 25 25 26 25
30 28 30 28 28 27 27 26 26 23 22 23 23 23 23 23 22 22 22 22 21 21 20 19 18 19 20 21 21 20 20 20 22 22 22 21 23 25 23 23 22 23 23 23
31 31 31 29 28 27 26 26 24 23 22 21 21 21 21 22 21 21 20 21 21 21 21 21 21 21 22 23 23 23 21 21 21 22 22 22 23 22 22 25 22 21 20 20
30 29 26 27 26 25 23 22 22 21 20 20 19 19 19 18 17 16 16 16 17 19 19 19 19 19 22 25 25 25 26 24 25 25 25 25 25 25 25 24 23 24 22 20
28 28 27 25 23 21 21 20 19 19 19 19 19 19 17 15 13 11 10 8 8 11 14 16 16 17 21 23 25 25 25 25 28 27 26 25 25 24 23 22 22 21 21 20
27 26 24 23 21 20 20 20 19 19 19 18 17 15 13 12 10 10 10 10 10 12 12 14 15 17 19 21 24 26 25 21 21 23 22 22 21 20 19 20 19 19 17 15
26 25 24 23 22 21 20 20 20 19 19 17 15 14 11 9 9 12 14 15 14 14 14 14 15 18 19 19 20 20 21 20 18 19 19 19 19 18 17 17 17 16 17 15
28 27 26 25 23 22 21 20 19 19 19 17 19 18 17 16 14 14 14 15 15 14 14 14 15 17 17 16 17 16 16 16 16 16 16 17 16 15 16 16 15 14 15 16
30 28 28 26 24 23 21 21 22 21 19 18 17 16 16 15 15 15 16 15 15 14 14 14 13 14 13 12 12 13 15 16 14 12 15 14 17 16 17 17 16 17 16 15
31 29 26 25 25 24 23 22 20 19 19 17 15 15 14 13 14 14 15 14 14 13 13 11 11 10 8 8 11 11 15 16 13 14 15 14 16 17 17 15 16 17 18 17
30 28 26 25 23 22 21 20 18 17 16 16 16 16 15 15 14 15 18 16 15 12 10 10 8 7 6 9 9 16 15 15 15 14 15 15 15 14 15 17 16 17 19 17
25 23 21 20 19 19 19 19 17 15 15 16 15 14 15 15 14 14 14 16 14 11 11 12 9 8 8 11 12 16 14 12 13 14 14 14 14 14 13 14 14 15 14 15
23 21 19 18 18 19 18 15 14 14 14 13 14 16 19 17 16 16 17 13 13 12 11 16 11 10 10 17 17 17 17 15 16 16 15 16 14 14 13 13 12 12 14 13
21 20 19 20 16 13 11 13 14 16 17 17 17 17 17 19 23 16 16 15 11 14 17 18 15 11 11 17 19 18 16 16 16 17 16 16 17 16 15 13 13 12 12 12
21 20 19 15 10 11 12 12 12 13 14 12 13 14 16 16 19 19 19 21 17 14 19 16 13 13 18 17 17 14 15 15 15 14 15 16 14 16 16 14 14 13 12 10
18 16 13 12 14 13 13 13 15 17 16 19 19 21 22 19 18 18 19 16 16 14 19 19 17 14 15 14 12 14 13 13 13 11 10 12 13 14 14 14 15 15 14 14
16 14 12 14 14 15 17 18 20 19 21 22 20 20 19 20 19 16 15 18 17 16 17 16 15 13 12 10 11 10 10 9 8 7 7 8 8 9 8 8 9 9 10 10

GFSNGP_sfc_dewp_108.txt.gz
Dewpoint
18 11 10 14 10 10 10 11 17 12 6 24 28 32 31 30 29 28 28 28 28 28 28 29 29 30 31 32 33 33 32 32 32 32 33 33 34 34 36 37 38 38 40 42
18 12 9 7 4 5 8 8 5 2 7 29 31 31 31 30 29 28 27 27 27 27 27 28 29 30 31 31 32 32 31 32 32 32 32 32 32 32 32 33 35 35 35 36
12 12 6 5 9 4 7 5 12 10 24 25 28 28 29 29 28 27 26 26 26 27 28 28 31 32 31 31 31 32 32 31 32 33 32 32 32 30 29 30 31 32 33 33
11 11 1 21 24 22 22 27 27 25 25 27 28 28 27 27 27 25 26 27 27 29 30 31 33 32 31 29 30 31 31 31 32 32 32 33 32 31 30 28 28 28 29 31
14 10 18 19 23 27 25 27 27 25 25 28 28 26 26 26 26 27 29 30 30 31 32 33 32 32 32 29 29 29 30 30 32 32 32 32 32 32 32 29 28 27 27 27
19 15 11 27 23 24 28 23 25 25 25 25 29 26 23 27 28 29 30 31 31 32 32 32 32 34 30 29 29 29 30 30 31 32 31 31 32 32 32 32 31 30 28 28
19 16 25 27 24 26 22 23 26 25 26 30 26 26 26 26 27 30 30 31 32 32 31 31 32 33 31 30 29 30 30 30 29 30 30 30 30 32 32 32 31 30 29 30
19 19 19 26 26 25 28 28 27 25 27 26 26 24 24 25 26 28 30 31 31 30 29 27 24 25 27 30 32 34 32 30 29 28 28 28 27 27 28 29 28 29 27 27
26 26 27 28 28 29 31 28 27 25 26 25 24 23 25 24 25 27 28 29 27 22 20 20 21 20 21 23 27 28 30 30 30 28 27 26 25 25 25 25 26 24 24 24
27 26 25 26 27 27 27 26 26 26 25 25 24 25 25 25 26 25 26 22 20 18 17 18 19 20 21 21 20 21 22 24 26 27 28 25 24 23 22 22 22 23 22 21
27 27 27 25 26 26 26 26 25 25 25 24 25 26 24 23 24 24 25 24 20 20 19 18 17 19 20 21 21 21 22 22 23 23 24 25 24 23 22 22 21 21 21 22
30 28 30 28 27 27 26 25 25 23 23 24 23 23 23 24 23 22 22 22 21 21 19 18 17 19 22 22 22 22 21 22 23 23 23 22 22 24 24 23 22 21 21 21
33 32 31 29 28 26 25 25 24 23 22 22 22 22 22 23 21 21 20 21 20 20 20 19 19 19 21 23 24 23 23 24 23 23 23 23 23 23 22 25 24 23 22 22
30 29 26 26 25 25 24 23 23 21 21 21 20 21 20 18 17 15 14 16 16 17 17 17 16 16 19 21 26 23 23 24 26 25 25 25 25 24 24 22 21 21 19 19
28 28 27 26 24 23 22 21 20 19 19 19 20 20 18 15 12 10 11 10 10 12 15 16 14 15 18 19 21 27 25 23 25 26 25 23 24 23 22 21 21 20 16 14
28 26 24 23 21 21 20 20 19 19 19 19 18 16 14 11 10 11 11 12 11 12 13 12 15 16 17 17 19 22 23 21 20 22 22 21 20 20 19 19 19 20 16 14
27 25 24 22 21 21 20 21 20 20 20 18 16 14 11 10 11 13 15 16 14 13 13 13 13 14 15 15 18 19 20 19 17 19 19 18 18 18 18 18 17 16 19 14
28 28 27 24 24 23 23 23 22 21 20 19 19 17 14 14 14 13 13 14 14 12 14 13 14 15 14 14 16 17 17 17 16 16 16 16 17 16 18 17 16 17 17 17
29 28 28 26 25 24 23 23 23 20 19 18 17 15 15 14 15 15 16 14 14 14 14 14 16 16 13 13 14 15 16 17 15 14 15 14 17 15 17 17 17 17 18 17
29 29 27 26 25 25 23 21 20 19 19 17 15 14 13 12 12 12 15 14 13 13 16 14 12 11 9 10 12 13 16 16 14 14 15 14 15 15 15 14 15 16 17 18
30 27 26 25 23 22 21 21 19 17 16 15 16 14 14 14 13 12 19 19 17 14 12 10 9 8 7 9 11 18 17 16 15 15 15 15 14 13 13 13 13 14 14 14
28 25 23 22 22 21 20 20 18 16 16 16 13 13 13 15 14 15 14 16 14 8 13 15 12 7 9 9 16 18 16 16 15 16 15 14 14 13 13 12 12 12 11 13
24 23 22 21 20 21 20 17 16 16 14 13 13 16 19 18 18 18 20 13 15 10 13 17 9 8 8 15 17 18 16 15 15 15 16 15 15 15 14 12 12 11 12 11
23 22 21 22 19 16 13 14 14 15 16 17 17 16 18 21 23 18 18 14 11 14 18 18 14 9 8 17 18 15 14 14 14 13 13 11 13 12 13 14 14 12 12 10
22 21 21 18 14 12 11 13 14 14 15 13 14 14 16 16 21 20 21 21 18 14 19 15 11 9 16 16 14 13 14 13 13 12 10 9 9 9 10 8 8 9 12 11
20 19 17 15 15 14 14 14 15 17 16 20 21 23 23 21 20 20 21 16 18 15 18 19 16 14 14 11 10 12 10 10 9 7 5 6 6 5 5 4 3 5 6 7
20 18 15 16 16 16 17 18 21 21 24 23 21 22 21 21 19 17 16 19 18 18 17 16 16 13 12 10 10 8 7 7 5 3 5 4 2 1 0 -1 -0 0 3 3

GFSNGP_sfc_dewp_111.txt.gz
Dewpoint
22 25 18 14 14 16 18 19 19 17 26 31 31 30 30 29 27 27 27 26 27 26 27 28 29 30 30 31 31 31 31 32 32 33 33 32 31 30 30 31 31 33 35 36
23 20 13 12 9 8 10 10 12 21 27 30 30 30 29 28 27 26 25 25 25 26 26 28 28 30 30 31 31 31 31 32 33 32 32 32 31 30 29 29 29 30 31 32
21 20 17 10 20 18 22 25 25 23 28 28 27 27 27 27 27 27 26 25 26 28 28 29 30 32 30 32 32 31 31 32 32 32 33 32 32 30 29 29 28 28 28 30
20 13 9 22 25 26 27 27 27 26 27 27 27 27 27 27 26 26 26 26 27 28 30 30 32 32 32 32 31 31 30 30 32 30 30 32 32 32 32 30 29 28 28 28
18 18 21 21 26 25 23 25 27 26 28 27 26 25 25 27 27 28 28 29 27 30 31 32 32 33 33 31 30 29 29 29 30 30 29 29 29 31 31 29 29 28 29 29
21 17 12 23 26 28 30 19 25 25 25 29 26 23 21 27 28 29 30 29 30 31 31 30 32 32 32 31 30 30 29 27 28 28 27 27 27 28 30 30 29 28 27 27
21 19 23 29 26 29 16 17 25 26 26 27 22 22 25 28 26 27 30 31 31 30 30 30 31 30 29 31 30 31 31 29 27 27 25 25 25 26 26 26 25 26 25 26
21 18 17 27 27 23 24 27 26 27 25 23 24 25 25 25 24 27 29 30 30 29 27 26 22 23 24 26 29 29 30 30 27 26 26 25 23 23 24 23 23 21 22 23
25 23 28 27 28 31 30 27 27 27 27 25 24 24 23 23 25 26 27 29 26 20 18 19 20 20 21 22 25 25 25 26 27 26 25 25 23 21 20 21 21 21 20 20
25 25 25 27 28 29 28 27 26 26 25 24 23 22 22 24 24 24 24 21 19 17 17 18 20 22 22 22 21 23 22 23 24 24 25 24 23 21 20 19 19 19 19 20
27 27 26 27 27 27 27 26 26 25 24 24 23 23 23 23 22 21 21 21 20 19 18 18 19 20 22 23 23 22 23 22 22 23 23 23 24 23 23 22 21 21 20 20
25 27 27 27 28 26 26 25 26 25 25 25 25 24 23 22 22 21 20 20 19 19 18 17 17 18 20 21 24 22 22 23 22 22 23 23 22 22 26 23 21 20 21 23
28 30 28 28 28 26 26 26 25 24 23 22 23 23 23 22 22 21 20 18 14 13 14 12 13 14 16 19 21 22 21 21 24 23 23 22 23 22 19 21 21 17 19 21
29 27 27 27 26 26 25 24 24 23 23 22 22 22 22 19 17 16 17 16 15 14 12 11 11 12 14 16 17 19 17 18 20 20 19 19 18 17 16 14 13 13 15 19
29 28 27 26 25 24 23 22 21 21 21 21 21 20 16 12 11 12 14 12 12 13 13 11 11 11 12 12 13 17 18 16 15 17 16 16 18 16 16 14 10 6 9 13
28 26 25 25 23 22 21 21 20 20 21 19 17 14 12 12 13 13 12 13 11 12 12 6 11 8 9 8 10 14 16 16 16 17 17 17 18 18 17 16 14 9 9 8
26 25 24 22 22 21 21 21 21 20 19 17 15 13 12 13 13 14 11 9 5 2 2 2 3 6 7 7 12 16 16 17 13 17 15 16 16 16 18 15 14 15 9 6
28 26 25 23 23 23 23 22 21 20 18 17 15 13 12 10 7 2 3 3 0 0 0 1 1 4 5 9 14 16 16 15 15 15 14 14 14 15 15 15 15 15 16 12
28 27 26 25 25 24 23 21 20 18 16 14 12 9 9 7 5 3 -0 0 -0 0 3 3 16 10 12 14 13 16 15 12 13 14 13 11 10 12 10 8 10 10 12 14
29 27 25 25 25 23 21 19 18 16 15 13 11 9 6 -0 -1 2 0 1 2 6 6 10 11 12 9 9 10 15 13 9 13 10 6 8 0 -2 0 6 7 3 1 3
27 25 23 21 21 21 20 19 17 14 12 11 9 5 5 -0 1 5 9 12 8 9 13 9 9 10 9 7 12 9 7 4 4 6 1 0 -1 -0 -3 -4 -3 -4 -4 -4
23 22 21 20 19 18 18 16 15 13 12 10 6 5 2 2 0 3 3 12 13 3 13 13 10 3 8 4 13 12 10 9 7 7 7 11 9 10 11 9 6 -4 -6 -4
21 22 20 19 18 18 15 14 13 12 9 7 6 6 11 15 16 14 11 15 13 7 16 10 5 2 1 2 13 5 2 2 1 2 2 -3 0 7 7 5 4 7 8 2
21 21 20 20 17 16 14 15 15 13 9 11 8 5 16 17 19 18 15 8 5 4 6 9 7 4 2 8 3 3 2 7 5 3 1 -2 -2 3 4 2 1 3 5 6
20 20 18 18 16 14 14 14 14 14 15 16 16 14 16 18 13 13 15 12 11 10 11 7 7 2 -3 -5 -1 -2 -2 5 1 -7 -11 -11 -7 -1 -1 -3 -4 -4 -0 2
21 19 18 17 15 13 14 15 15 15 16 12 13 13 11 15 17 17 11 11 13 10 10 7 2 1 -4 -4 -7 -9 -8 0 -4 -7 -12 -6 -10 -6 -9 -10 -9 -8 -5 -2
21 18 18 17 14 15 16 16 15 15 17 18 18 16 15 10 8 12 11 9 7 5 2 -2 3 4 -0 -4 -7 -6 -6 -6 -11 -11 -6 -13 -16 -18 -19 -18 -12 -10 -7 -6

GFSNGP_sfc_dewp_114.txt.gz
Dewpoint
26 27 26 23 14 18 25 24 21 21 28 32 30 29 28 27 26 25 25 25 25 25 25 27 28 28 29 29 31 30 30 31 31 32 32 32 32 32 30 30 29 30 30 31
28 26 19 12 11 12 11 19 28 28 29 31 30 28 27 26 26 25 24 25 25 25 25 26 26 27 27 28 29 29 28 30 30 30 30 32 32 31 30 29 29 29 29 30
25 27 25 19 16 22 25 25 26 23 27 27 26 26 26 27 26 25 24 25 26 27 27 28 30 31 30 29 29 28 29 29 29 29 29 30 31 30 30 29 27 28 28 30
23 25 19 23 29 28 26 26 28 28 28 27 26 26 26 27 26 26 25 25 27 28 30 31 32 32 31 30 30 27 27 27 28 27 28 28 28 29 28 29 28 27 27 28
19 18 22 22 26 27 25 23 27 28 27 26 25 24 25 26 27 27 28 28 29 30 30 30 29 32 32 30 31 28 27 26 26 25 24 25 25 26 27 26 26 26 27 27
22 15 14 22 27 28 26 16 25 26 28 26 24 20 21 27 28 28 27 30 29 27 24 26 28 29 31 31 29 29 28 27 26 26 24 22 21 23 24 24 23 23 24 25
21 19 23 28 28 30 14 17 25 25 23 26 25 19 25 27 27 28 29 29 27 27 26 26 28 28 25 26 25 28 30 27 26 25 24 23 22 22 22 22 22 21 22 23
21 18 16 27 27 23 22 26 26 23 22 22 24 24 24 23 23 25 27 27 25 24 24 24 23 23 24 24 25 26 26 27 26 25 25 24 22 22 21 21 20 20 21 22
23 19 27 28 27 28 27 25 26 23 23 22 21 22 21 20 17 22 24 24 21 19 18 20 21 23 22 23 25 24 24 24 25 25 24 24 22 22 21 21 21 20 20 21
23 26 26 28 29 29 28 26 27 26 25 23 21 18 18 18 19 20 20 19 18 17 17 19 20 21 22 23 23 23 21 22 23 23 24 24 23 22 19 18 20 20 20 20
25 27 26 28 28 28 27 27 26 25 23 22 21 20 21 21 19 17 18 19 19 17 17 18 18 19 20 21 22 22 23 22 22 23 23 23 24 25 20 19 21 21 22 22
20 26 25 26 28 27 26 25 24 23 23 23 22 22 21 20 20 19 18 17 16 15 14 15 15 16 17 19 21 20 20 22 22 21 21 21 20 20 24 18 18 21 22 22
26 28 27 28 28 27 26 25 24 25 24 23 23 21 21 20 20 19 17 15 11 10 11 10 11 12 14 17 20 19 18 20 19 18 18 19 18 18 15 15 16 16 18 19
28 27 26 26 26 26 25 25 26 23 23 22 22 22 21 20 19 16 14 15 14 13 9 6 6 5 8 11 15 14 15 16 16 16 15 15 13 13 10 10 9 10 14 17
28 28 26 27 26 25 24 23 23 22 22 22 22 20 16 14 14 14 14 12 11 13 11 9 6 6 6 7 11 10 13 11 10 11 14 13 15 14 12 8 4 2 4 10
27 26 26 25 25 24 23 22 22 22 22 21 16 13 12 13 12 13 13 12 10 10 10 2 9 5 7 7 12 14 15 14 14 14 15 14 15 15 16 13 13 13 9 7
25 25 25 25 23 22 21 21 21 20 18 15 14 14 13 11 9 11 8 7 5 1 -3 -2 -0 2 4 7 14 15 15 15 11 14 14 14 13 13 14 13 12 13 14 13
27 26 25 24 23 22 22 22 21 18 17 14 15 14 11 10 9 6 1 -0 1 1 -3 -4 -3 2 8 9 13 15 14 15 15 14 14 12 12 13 11 10 11 10 9 11
26 25 24 24 24 23 23 22 20 18 16 14 12 10 7 6 5 2 2 3 -2 -1 1 1 14 9 11 14 12 15 13 10 12 13 11 9 6 8 5 1 2 -1 3 7
26 25 25 24 25 25 22 20 18 16 14 12 10 8 7 0 -0 1 1 5 3 4 3 8 12 11 10 11 11 13 11 7 11 10 8 8 4 4 6 7 6 1 -9 -6
24 23 24 25 23 22 21 20 17 14 14 12 10 9 8 4 1 3 5 8 5 7 12 7 9 10 9 9 13 4 5 3 3 3 -2 -2 -2 2 4 3 3 4 5 2
22 22 22 21 21 19 20 19 17 14 12 10 7 5 7 6 5 5 4 9 12 4 12 11 10 1 5 8 10 3 6 4 2 1 0 -1 -3 -4 -5 -3 -0 2 2 4
22 22 21 19 19 17 17 17 16 14 12 10 8 7 9 12 13 12 10 13 13 9 12 8 2 1 1 4 1 -1 -3 -4 -7 -9 -11 -13 -11 -3 -5 -6 -6 -3 0 2
21 21 20 19 18 16 14 14 14 14 12 11 9 7 15 15 12 17 14 8 4 9 7 3 3 1 -2 -3 -4 -5 -6 -10 -13 -17 -11 -13 -13 -12 -12 -16 -13 -11 -8 -5
21 20 19 18 18 17 16 15 14 13 13 15 16 14 18 18 13 13 10 9 12 9 3 1 0 -4 -8 -10 -8 -8 -14 -17 -19 -19 -19 -21 -21 -22 -24 -21 -19 -17 -14 -8
20 19 19 20 19 18 15 13 12 13 16 11 9 11 9 13 14 13 11 12 10 7 9 5 -2 -8 -10 -8 -11 -12 -15 -15 -17 -18 -21 -24 -25 -24 -26 -22 -21 -19 -14 -13
22 21 21 17 14 14 15 14 13 14 11 11 12 5 11 10 13 13 9 7 5 2 1 -0 -4 -7 -9 -11 -12 -16 -18 -20 -19 -19 -27 -28 -29 -31 -30 -30 -26 -26 -21 -19

GFSNGP_sfc_dewp_117.txt.gz
Dewpoint
32 31 32 32 30 30 27 27 25 22 28 32 32 28 27 26 25 25 24 24 25 25 26 27 28 28 28 29 30 30 29 30 30 30 29 30 29 29 28 28 28 28 29 30
27 29 27 27 21 11 23 26 27 27 30 31 29 28 29 27 25 23 23 24 25 25 26 27 28 29 29 30 30 30 29 29 28 28 27 28 29 27 28 27 26 27 27 28
24 30 32 27 23 15 25 26 28 25 28 29 29 28 27 27 25 24 23 23 24 25 27 28 30 31 30 31 27 26 26 26 25 25 25 25 25 26 25 26 26 25 25 26
25 27 20 25 29 29 26 26 29 29 29 28 26 27 27 26 26 24 25 25 24 27 25 28 29 32 31 32 29 26 25 26 25 23 22 22 22 22 23 23 23 23 24 25
20 22 23 24 26 25 25 24 27 28 26 26 26 24 25 26 27 25 24 25 26 28 27 25 27 29 32 31 31 26 26 25 26 24 22 21 19 20 21 21 21 22 23 24
24 18 16 19 27 28 24 15 26 27 25 24 23 16 21 27 27 25 24 28 27 24 21 24 27 28 28 27 27 28 26 25 25 25 22 20 19 19 20 20 20 22 23 24
21 19 20 27 28 28 11 15 25 26 26 24 21 19 25 28 25 27 28 25 26 25 24 26 27 27 24 24 24 26 28 26 25 24 23 22 22 21 21 20 20 20 21 23
20 18 13 27 27 22 22 25 24 21 22 27 24 25 25 26 26 27 25 24 25 23 23 23 23 23 24 23 23 25 25 25 25 24 24 23 21 20 21 21 20 20 20 21
23 20 27 29 27 26 26 25 22 21 24 24 23 22 23 21 20 21 23 22 20 19 20 20 21 22 22 23 24 24 24 23 23 23 24 23 21 18 19 20 20 20 19 19
24 25 27 28 28 27 27 25 23 23 22 22 20 21 18 18 17 16 18 17 17 18 18 19 20 20 21 22 22 23 22 22 23 23 23 24 21 17 17 19 20 20 18 17
25 27 27 28 27 27 27 26 24 24 22 20 19 18 19 18 16 16 13 18 18 18 17 17 17 18 18 20 21 20 22 21 21 20 21 21 22 17 16 18 18 18 19 16
22 26 25 26 27 27 26 26 25 22 21 21 21 20 20 18 18 18 16 15 15 15 14 14 14 15 16 19 20 19 19 17 19 19 18 18 18 15 18 17 17 17 17 16
26 28 27 28 27 27 25 25 23 22 22 22 22 20 20 19 18 16 13 12 9 8 9 9 9 11 12 16 18 18 18 16 17 18 17 16 16 14 11 13 16 16 16 15
28 27 26 26 26 26 24 23 25 24 23 22 21 20 19 18 16 13 13 13 13 11 9 6 6 7 7 10 13 10 11 13 12 13 10 10 5 6 3 3 -2 4 11 14
27 27 26 26 25 25 25 25 23 22 22 22 21 21 19 16 13 13 12 11 11 11 9 7 6 4 3 2 8 8 11 8 4 2 4 7 9 9 11 10 10 8 4 9
27 26 26 25 25 25 25 23 22 22 22 21 19 16 14 14 14 13 11 11 10 10 9 1 7 1 2 4 8 11 11 11 10 12 11 11 12 11 11 10 9 9 10 11
25 25 25 25 25 24 23 23 22 22 22 18 14 14 13 12 11 10 9 9 4 -2 -2 -2 -2 -3 3 7 13 13 12 13 10 13 12 11 11 11 11 9 8 8 6 4
26 26 26 26 25 23 23 23 23 21 18 15 15 13 9 8 7 5 3 -1 -2 0 -2 -3 -4 3 7 8 13 14 13 14 14 13 13 10 9 11 8 7 8 6 5 5
27 25 25 24 23 23 23 22 21 19 16 15 13 10 6 6 6 4 -1 -0 -1 3 3 1 15 10 12 15 13 13 11 9 11 10 9 6 5 7 5 4 4 3 2 4
25 25 25 24 24 24 22 21 18 16 15 13 10 8 6 4 5 4 1 4 3 5 4 8 11 11 12 12 11 11 9 5 8 5 2 2 -3 -5 -2 -1 0 0 1 3
23 23 23 24 25 24 22 19 17 15 14 12 10 9 9 4 4 4 5 9 7 7 10 8 9 9 11 10 9 1 1 -2 -3 -4 -9 -12 -12 -9 -10 -9 -8 -6 -2 0
22 23 23 23 22 20 21 20 18 15 14 13 11 11 8 5 3 4 4 9 11 7 11 10 9 2 7 7 5 -1 0 -1 -5 -6 -9 -11 -11 -14 -16 -16 -14 -11 -7 -3
22 23 23 22 20 19 19 18 17 16 14 11 11 11 11 11 13 13 13 13 13 8 11 8 2 -2 -2 -2 -6 -9 -9 -10 -12 -15 -17 -17 -20 -23 -23 -21 -19 -20 -16 -10
21 22 20 19 19 18 16 17 17 16 13 12 11 12 13 14 11 16 14 9 9 7 8 5 -1 -3 -6 -8 -11 -11 -14 -19 -21 -22 -17 -21 -27 -28 -27 -29 -24 -22 -19 -16
20 19 19 19 19 18 17 17 16 14 12 9 10 12 16 16 13 12 11 8 10 9 4 -3 -4 -7 -10 -13 -13 -16 -21 -23 -25 -26 -27 -28 -30 -32 -33 -32 -31 -29 -23 -24
21 20 21 22 20 19 18 18 15 14 15 15 14 14 12 14 13 11 9 8 9 5 4 -4 -7 -11 -13 -13 -17 -21 -22 -19 -23 -26 -28 -29 -31 -30 -33 -31 -32 -31 -29 -27
22 21 21 20 20 20 19 18 15 15 16 14 13 3 10 10 10 11 9 9 7 5 1 -6 -9 -11 -13 -16 -19 -22 -23 -25 -25 -26 -32 -33 -34 -36 -36 -36 -36 -34 -34 -33

GFSNGP_sfc_dewp_120.txt.gz
Dewpoint
30 31 32 30 30 31 33 32 28 28 26 31 33 30 27 26 25 25 24 25 24 24 26 27 26 28 28 28 28 28 27 26 26 27 27 27 27 26 26 26 26 26 27 28
27 30 31 30 30 30 32 34 33 30 29 33 30 28 26 26 25 24 24 24 23 25 26 27 28 28 28 28 26 26 26 25 24 24 23 24 24 24 23 23 24 25 26 26
24 28 27 26 28 26 23 25 28 28 28 29 28 27 27 26 25 24 23 24 25 26 27 28 30 30 29 29 28 26 26 25 24 24 23 22 22 21 22 22 23 24 25 25
25 27 19 23 27 28 22 27 29 29 30 29 28 28 28 27 25 25 24 23 26 26 27 28 29 30 30 29 28 25 25 25 24 23 22 21 21 20 20 20 21 23 23 23
23 22 23 23 26 24 22 21 28 29 28 27 26 25 26 27 25 23 23 26 27 27 26 25 26 29 29 29 29 25 25 24 25 23 21 20 19 18 19 19 19 20 24 23
23 16 13 18 26 28 25 18 27 28 26 25 25 21 18 26 26 25 24 25 24 23 24 25 26 28 26 25 26 25 25 24 24 23 21 19 19 19 19 14 19 20 20 22
22 20 20 24 27 25 15 18 28 28 27 25 20 19 22 24 23 24 25 24 24 24 22 24 26 24 21 22 23 25 26 25 24 24 22 21 19 19 19 17 18 18 17 18
23 20 13 28 27 20 23 25 26 25 26 22 24 25 24 22 25 24 23 23 23 22 22 23 23 23 23 20 21 25 24 25 24 23 24 22 18 19 19 20 18 16 16 16
21 19 25 28 28 27 26 24 22 23 24 25 24 24 24 24 21 19 19 21 21 20 20 20 21 21 21 23 24 24 24 22 23 23 24 20 18 17 17 18 18 15 14 14
21 23 26 28 27 26 26 24 23 24 25 24 22 19 17 18 17 12 14 17 18 18 18 18 19 19 20 21 22 21 20 20 21 21 20 19 17 16 16 16 16 15 13 13
23 26 28 28 27 26 24 24 23 23 22 21 19 18 19 17 16 15 12 15 18 18 17 16 17 17 18 20 20 16 17 18 19 19 19 18 16 16 15 16 15 14 14 12
22 26 25 26 27 26 24 23 22 21 21 21 20 19 18 17 18 16 14 15 15 16 15 14 15 15 16 19 19 17 16 17 18 17 17 16 15 14 17 17 16 16 16 15
26 28 28 28 27 26 24 23 22 21 21 20 20 19 18 18 16 15 12 12 9 8 8 10 9 10 12 17 17 16 16 15 16 16 15 14 13 12 9 12 16 16 16 15
28 27 26 26 26 26 24 23 24 22 21 21 20 19 18 16 12 10 11 12 11 10 7 4 8 5 5 10 12 9 9 11 9 10 8 7 -1 -1 -3 -0 -3 3 10 15
27 27 26 26 25 24 24 23 22 21 21 20 19 18 17 13 11 11 12 10 10 10 9 9 8 3 3 5 7 3 4 2 1 3 3 3 5 5 3 3 3 5 6 10
26 26 25 24 23 24 23 22 21 21 21 20 20 18 14 12 12 11 11 10 9 8 8 6 9 1 1 2 5 6 7 9 9 9 8 8 8 8 8 7 6 5 7 7
25 25 25 24 24 24 23 22 22 22 21 20 18 15 13 12 11 11 9 9 5 3 -1 5 1 -1 2 3 10 10 10 12 9 12 10 10 9 9 8 7 7 6 5 2
26 26 26 25 25 24 23 23 23 22 21 16 16 14 11 10 8 5 3 2 3 2 -1 -3 -2 1 3 5 10 12 12 13 11 11 9 7 7 7 4 3 3 2 2 3
26 26 26 26 25 24 23 23 23 21 17 15 13 11 9 6 5 3 -1 3 2 3 1 0 15 11 12 12 12 11 10 7 7 6 6 1 -1 1 -1 -1 -1 -3 -0 1
25 25 25 24 24 24 24 23 20 17 16 14 9 8 6 4 4 -0 -1 3 3 5 5 8 11 13 12 10 9 8 6 3 5 2 -2 -2 -10 -12 -9 -8 -6 -7 -10 -4
22 22 21 23 23 23 22 21 18 16 15 13 11 8 6 6 5 3 5 7 5 7 10 9 11 11 10 7 5 -1 -1 -5 -6 -8 -13 -18 -18 -16 -18 -20 -18 -16 -14 -10
17 18 19 23 22 20 21 20 19 16 16 14 11 10 9 8 6 6 4 9 11 7 10 10 10 6 6 4 3 -3 -2 -4 -8 -10 -14 -17 -22 -26 -28 -28 -26 -22 -21 -19
16 19 20 21 21 20 20 19 18 17 15 14 12 11 11 10 11 11 10 12 12 9 11 8 2 -1 -4 -5 -8 -11 -12 -14 -16 -18 -23 -27 -29 -31 -29 -29 -29 -29 -26 -20
18 20 19 20 19 19 16 17 18 17 16 16 14 13 11 11 14 16 14 11 10 10 8 2 -1 -3 -6 -9 -13 -16 -18 -23 -24 -26 -24 -28 -34 -34 -33 -35 -30 -30 -28 -27
19 19 19 19 19 19 18 18 17 16 16 15 13 14 15 16 14 13 12 10 10 8 3 -3 -4 -8 -9 -14 -17 -19 -25 -26 -29 -30 -31 -32 -33 -35 -36 -36 -36 -35 -34 -32
20 20 21 22 21 19 18 18 16 16 15 13 14 14 14 14 13 11 10 9 7 3 -2 -10 -10 -10 -13 -14 -19 -24 -22 -20 -28 -29 -31 -32 -34 -32 -36 -34 -37 -36 -36 -36
22 21 21 20 20 20 19 18 16 16 16 15 13 13 12 11 10 10 8 7 4 0 -5 -7 -8 -9 -11 -18 -20 -20 -22 -28 -29 -28 -35 -35 -36 -38 -39 -39 -40 -37 -38 -38

GFSNGP_sfc_dewp_123.txt.gz
Dewpoint
29 28 29 28 27 29 30 30 27 24 26 29 34 35 35 30 27 26 25 24 25 25 25 26 26 26 26 27 26 26 25 25 25 25 24 25 25 25 25 26 26 25 26 27
27 30 30 29 29 29 29 30 31 31 32 34 35 36 29 28 26 25 25 24 24 25 24 26 26 26 26 27 26 25 24 23 23 23 22 23 23 24 23 23 24 24 24 24
24 27 30 27 28 28 28 29 29 28 30 32 31 30 29 28 26 25 25 24 24 25 27 27 28 27 27 26 25 24 23 23 23 23 23 23 23 23 23 24 24 24 24 24
25 27 21 20 27 28 29 29 29 29 31 31 31 31 29 28 26 25 25 25 26 27 27 28 29 30 30 26 24 24 23 23 22 22 23 23 23 23 23 24 24 24 24 24
25 23 23 22 25 28 28 27 30 29 30 29 29 28 28 27 27 26 26 28 28 27 27 28 29 29 28 27 24 22 23 23 23 22 22 22 22 23 23 23 23 23 23 23
26 21 17 26 26 28 26 23 29 31 29 28 28 26 26 27 27 27 28 27 26 26 27 26 27 27 26 26 24 24 24 23 23 21 22 21 22 23 24 22 21 21 21 21
24 22 23 26 27 24 22 28 30 31 30 28 30 28 28 27 26 26 26 26 26 25 24 25 26 26 25 25 24 25 25 24 23 22 21 21 22 23 23 21 19 19 19 20
25 23 19 28 25 22 31 28 30 30 29 27 26 26 25 25 25 25 25 25 25 24 24 25 23 22 24 24 26 26 25 25 24 22 21 21 21 21 21 20 18 18 18 19
25 26 27 29 29 28 28 28 29 30 28 27 26 24 25 25 24 23 24 24 23 22 21 21 21 21 21 23 23 24 23 24 23 21 21 20 19 20 19 19 17 16 16 16
25 26 26 29 28 27 27 27 27 28 27 27 25 25 24 23 22 22 23 22 20 19 19 19 20 20 21 20 19 19 17 18 19 18 17 17 15 15 15 16 16 15 14 15
25 26 28 28 28 27 26 26 27 27 27 25 24 23 22 21 21 21 21 21 19 18 18 18 18 18 19 19 16 15 16 16 16 16 15 14 17 16 14 17 15 15 16 14
26 27 27 28 29 26 25 25 25 24 23 23 23 22 22 21 20 19 20 20 19 18 17 16 15 17 18 18 16 15 14 15 16 14 14 12 11 12 16 15 15 14 14 15
31 29 29 29 27 25 24 23 23 23 22 21 21 21 20 20 18 19 17 17 16 16 16 16 16 15 17 17 16 16 15 14 15 14 13 12 12 10 10 13 13 14 12 13
29 28 27 27 26 25 23 22 23 21 21 20 20 19 18 16 15 15 15 14 14 14 13 14 13 12 13 17 16 15 16 14 15 15 14 14 14 13 13 11 11 12 12 12
27 27 27 27 25 23 23 22 21 21 20 19 19 18 16 11 9 12 13 13 12 13 13 14 13 12 12 14 14 15 16 16 16 16 15 14 14 13 13 12 12 12 12 11
26 26 26 25 23 23 22 21 21 20 20 19 18 17 13 9 9 11 12 12 12 13 13 13 13 12 13 15 15 14 14 13 13 14 14 14 13 12 10 10 10 10 10 9
25 25 24 24 24 23 22 22 21 21 20 19 18 14 11 9 10 10 12 13 12 12 13 14 12 8 13 16 15 15 16 15 13 12 11 11 10 8 7 7 7 6 7 7
27 27 26 25 24 23 23 22 22 21 21 19 17 16 14 13 13 11 9 9 8 8 12 12 12 12 14 15 16 15 13 11 10 10 7 8 6 4 5 4 3 3 5 5
27 27 26 25 25 24 23 23 23 22 20 18 16 14 14 12 11 9 8 9 10 11 11 12 17 15 15 14 12 11 10 10 7 6 5 3 4 1 3 3 2 2 2 2
27 27 26 26 25 25 25 25 22 21 20 19 15 12 11 10 9 7 9 10 13 13 13 16 16 14 13 12 10 8 9 9 5 5 5 2 2 1 0 -4 -3 -1 0 0
26 25 24 24 24 25 24 23 20 19 17 17 15 12 11 9 9 8 9 7 10 11 12 13 14 12 9 7 6 9 7 6 5 3 2 1 0 -2 -3 -3 -3 -3 -3 -3
22 21 21 22 22 22 23 23 21 18 17 17 15 11 9 9 8 11 12 10 10 11 12 14 12 10 8 7 5 7 5 3 3 2 0 -1 -2 -4 -5 -6 -7 -6 -6 -6
21 22 22 20 20 21 21 21 20 19 17 16 14 12 11 10 11 12 10 10 10 12 13 13 9 6 4 8 6 4 3 1 0 -2 -3 -4 -6 -7 -8 -8 -8 -8 -8 -9
21 22 21 21 21 20 18 19 19 19 19 18 16 15 13 13 14 13 14 13 12 14 13 9 6 3 4 5 3 2 0 -0 -2 -3 -6 -11 -8 -9 -10 -11 -11 -10 -11 -12
22 21 21 20 20 20 19 19 18 18 17 17 16 13 14 14 17 17 16 15 13 12 10 3 2 0 5 3 2 0 -1 -2 -4 -4 -6 -7 -9 -11 -11 -11 -13 -13 -13 -13
22 21 22 23 22 20 19 18 17 17 17 17 17 18 18 18 16 15 14 14 12 8 8 5 4 3 2 1 -0 -2 -3 -6 -7 -7 -8 -9 -11 -12 -13 -14 -14 -14 -15 -15
23 23 22 21 21 20 20 19 18 18 18 18 16 17 16 16 15 14 13 12 10 8 5 4 3 1 1 -0 -2 -3 -5 -6 -9 -8 -9 -10 -12 -13 -15 -15 -15 -15 -16 -17

GFSNGP_sfc_dewp_126.txt.gz
Dewpoint
22 23 24 28 27 25 27 29 28 25 22 21 24 32 35 36 35 31 29 27 27 26 26 26 27 27 28 29 28 28 27 27 27 26 25 26 26 26 26 27 26 25 26 27
21 20 20 19 21 21 21 22 24 24 25 26 28 33 35 35 33 30 28 26 26 25 26 26 26 26 27 27 25 25 24 24 24 25 24 25 25 26 26 25 25 25 25 26
21 21 25 25 24 22 22 22 24 23 24 23 27 34 37 37 32 30 29 28 26 26 26 27 27 27 28 26 24 23 23 23 24 25 25 25 24 24 25 26 25 25 25 25
24 25 22 20 22 23 22 24 25 26 25 27 29 35 38 36 33 31 29 27 27 28 27 28 28 29 27 25 24 23 23 23 23 23 25 25 25 25 26 28 26 26 25 25
24 19 17 17 22 31 32 25 26 28 28 29 33 34 33 33 33 32 30 30 32 29 28 30 29 28 27 25 23 21 23 24 24 24 24 24 24 25 26 26 26 25 24 23
23 20 16 27 19 27 29 26 24 28 28 33 32 31 33 32 32 33 33 30 29 30 31 29 30 29 27 26 24 25 24 24 22 23 23 23 25 25 25 26 25 25 24 23
25 23 22 26 26 27 25 26 29 32 35 33 33 34 35 34 32 32 29 28 28 28 28 28 29 29 27 26 25 26 25 24 23 22 23 24 25 26 25 24 24 23 23 23
27 25 22 29 27 23 34 32 33 36 36 36 32 30 31 30 29 29 28 27 26 27 27 25 24 24 25 25 27 26 25 24 23 23 23 23 24 25 24 24 22 22 22 23
27 27 31 29 32 33 31 31 34 35 35 33 29 28 29 28 27 27 27 26 26 25 23 22 20 20 21 23 24 24 24 23 23 22 23 21 22 23 22 23 21 20 20 20
27 29 28 32 31 30 30 31 34 33 32 31 28 28 27 27 26 26 26 24 23 22 21 21 20 19 19 19 18 17 17 17 17 16 17 17 15 15 16 18 19 18 18 18
31 30 29 29 32 32 30 31 32 31 31 29 28 27 26 25 25 25 26 25 22 21 21 20 18 18 18 16 15 14 14 14 14 14 14 15 16 16 15 18 15 16 17 17
28 29 30 32 33 32 30 31 31 30 28 28 27 26 26 25 25 24 24 24 22 21 20 18 17 18 17 16 14 13 12 13 14 13 13 10 10 13 14 14 13 13 13 14
34 32 32 33 32 29 29 29 29 28 28 26 25 25 24 24 23 23 23 23 22 22 21 21 21 21 19 16 15 14 13 12 14 13 11 12 12 11 13 15 12 11 12 12
31 30 29 29 28 27 26 25 27 26 25 25 24 23 22 21 21 19 19 20 19 19 20 20 19 19 21 21 21 19 20 16 18 17 18 18 18 18 18 17 16 17 14 12
29 28 28 28 26 24 24 24 23 23 23 23 23 22 21 19 17 16 17 16 16 17 18 18 16 17 19 18 18 19 20 20 20 20 19 17 19 19 17 16 16 15 15 12
28 27 27 26 24 23 23 23 23 22 22 22 21 19 18 16 15 15 15 16 15 16 17 17 16 17 17 17 17 17 17 15 16 17 17 16 15 13 12 12 12 12 11 9
27 26 26 25 24 23 23 23 23 22 22 21 20 18 14 13 14 15 17 19 20 19 19 18 17 16 17 18 16 16 18 16 13 14 13 13 12 10 9 9 8 8 9 9
28 28 27 26 25 24 23 23 23 23 22 21 22 20 18 17 17 18 18 18 17 17 19 19 17 16 17 18 16 15 14 12 11 11 9 10 7 5 8 7 5 5 7 6
28 28 28 27 26 25 24 24 24 25 26 22 20 17 17 17 16 16 16 15 15 15 16 17 16 16 16 16 12 12 12 12 9 7 7 5 8 5 7 8 6 7 6 5
28 28 27 27 27 28 26 28 27 24 22 21 21 19 16 15 14 14 16 16 17 17 17 17 16 14 13 13 11 10 12 13 7 9 9 6 9 9 7 1 3 6 7 6
30 30 29 28 27 29 27 26 25 22 23 21 20 17 15 14 13 15 16 14 17 17 17 17 14 13 10 9 8 15 13 12 11 9 9 9 9 7 7 6 6 5 5 5
29 28 27 27 27 26 26 26 25 22 21 21 20 17 14 13 13 14 16 13 14 15 14 14 13 12 10 9 8 13 10 8 9 9 8 8 7 7 6 5 3 3 3 2
29 28 27 26 26 27 26 26 23 23 21 20 17 17 15 12 12 12 12 11 11 14 14 16 14 12 10 14 13 11 10 8 8 7 6 6 5 5 4 2 2 1 0 -1
28 28 28 28 26 25 24 24 24 23 23 21 20 19 17 15 16 13 14 13 14 17 18 17 13 10 11 13 12 10 9 8 7 6 3 -4 5 2 2 0 -1 -1 -2 -4
27 27 27 26 25 25 25 23 23 22 21 21 19 19 16 13 18 17 18 16 16 16 17 12 9 9 13 13 10 8 8 7 6 5 4 4 2 1 2 0 -3 -4 -5 -5
26 26 26 26 26 25 23 22 21 21 22 21 21 22 20 19 19 19 18 16 16 15 15 12 11 12 12 10 8 6 5 2 1 2 0 1 -1 -1 -2 -4 -4 -5 -5 -6
26 26 25 25 25 24 24 23 24 23 23 22 21 21 20 21 20 18 17 17 17 17 15 14 12 11 11 9 6 4 4 3 -0 0 1 1 -1 -1 -4 -4 -4 -5 -6 -8

GFSNGP_sfc_dewp_129.txt.gz
Dewpoint
21 21 30 31 31 29 29 29 33 29 26 28 28 27 34 33 35 35 34 32 31 29 28 28 28 29 29 29 30 29 29 29 28 27 27 27 28 27 27 27 26 25 26 25
26 26 19 17 16 18 18 22 26 26 27 28 25 23 24 34 35 34 33 31 30 28 27 27 27 28 28 28 27 26 25 25 26 26 25 26 26 26 26 25 24 25 25 24
24 21 20 20 17 17 16 14 16 18 19 19 19 20 28 33 36 34 33 31 29 28 28 28 28 28 28 27 25 23 23 23 24 26 25 26 25 25 25 25 24 25 24 24
28 24 22 22 20 18 19 18 20 19 20 20 20 25 31 33 37 36 33 31 31 31 29 29 29 28 28 26 25 23 23 23 23 24 24 25 25 26 27 28 27 26 24 24
24 19 17 14 16 31 28 23 24 22 20 20 22 32 38 38 38 37 34 35 35 32 30 31 30 29 27 24 23 21 23 24 24 24 25 25 25 26 27 27 27 26 26 23
24 20 17 26 17 20 26 26 25 24 24 24 34 35 36 37 37 37 36 35 35 35 33 31 33 29 26 24 24 25 24 23 22 24 24 25 26 25 28 28 27 27 26 25
25 22 21 20 17 24 24 26 29 28 28 29 37 37 39 38 35 34 34 34 32 30 31 31 32 33 30 28 26 25 24 23 23 22 25 26 26 28 28 27 27 26 26 26
24 23 21 20 22 26 34 33 32 33 35 38 36 36 34 32 32 32 32 32 29 29 29 28 26 25 26 26 28 26 24 24 25 24 22 24 26 27 27 28 25 24 24 24
24 26 36 31 31 33 32 31 34 35 37 36 33 32 31 31 31 31 31 29 27 26 25 23 21 21 21 23 24 24 23 24 24 23 24 21 22 24 23 26 23 22 21 21
27 26 27 32 31 32 32 31 34 35 36 35 32 31 30 30 30 30 31 26 24 24 22 21 20 19 21 20 19 19 19 18 17 17 17 17 16 16 16 18 19 19 19 18
28 28 30 30 32 33 31 31 33 33 33 31 31 31 28 28 29 30 31 28 24 23 22 21 18 18 17 16 14 14 14 14 14 15 15 15 15 17 15 17 15 15 17 19
28 32 35 34 33 33 33 32 33 32 31 31 29 28 28 28 27 27 28 27 25 24 22 19 17 17 15 15 14 13 13 13 14 13 12 11 12 14 14 13 12 12 13 14
35 34 35 34 33 33 32 31 32 31 30 29 28 27 26 26 26 26 25 27 29 28 28 27 26 26 18 16 15 14 13 11 13 14 12 13 14 14 17 15 12 12 12 12
32 31 31 30 30 30 30 30 31 29 28 28 26 26 25 24 24 24 23 24 23 23 24 24 23 22 24 24 23 23 22 19 20 20 20 21 20 20 20 19 18 21 16 13
31 30 29 30 28 27 27 28 28 27 27 26 26 25 24 23 23 22 22 20 19 20 21 20 20 20 21 22 21 21 23 23 23 22 21 20 20 19 17 17 17 17 16 12
29 28 28 27 25 25 25 26 26 26 25 25 25 24 23 22 21 20 17 16 15 17 19 19 18 19 20 21 20 20 20 18 18 19 18 17 16 14 13 13 13 13 13 10
29 28 28 26 25 25 25 25 25 25 25 24 24 23 22 19 18 17 20 22 23 22 20 20 18 19 20 20 18 18 18 17 14 15 14 13 13 11 10 10 10 9 11 10
29 29 28 28 27 26 25 25 25 25 24 24 26 26 24 22 22 22 23 23 22 21 21 19 19 19 20 20 18 17 16 14 13 12 10 11 8 7 9 8 6 7 8 9
27 28 29 28 28 26 25 25 27 27 29 27 24 23 23 24 22 22 22 20 19 19 19 19 17 18 17 17 13 13 13 12 10 8 8 8 11 7 9 10 9 10 8 8
29 29 29 28 28 29 28 31 30 28 26 24 22 22 21 21 20 20 19 19 19 19 19 17 15 14 14 13 12 12 14 15 9 11 12 9 12 12 10 4 6 9 10 10
30 30 32 31 31 32 31 30 28 25 24 24 23 22 20 18 19 20 19 16 20 18 17 16 14 13 11 10 10 17 16 15 14 12 12 12 12 11 11 11 10 10 9 8
31 29 28 29 28 29 29 29 27 26 25 24 24 21 19 16 18 18 21 18 17 17 16 15 14 13 11 11 10 16 13 11 12 12 12 12 12 12 11 10 8 8 8 7
31 30 29 28 27 27 27 27 26 25 24 23 21 20 19 15 15 15 14 16 16 17 15 17 15 14 12 17 17 15 13 11 11 11 11 10 10 10 9 7 7 7 5 4
30 29 28 29 29 26 24 25 25 25 25 24 22 22 20 19 18 14 16 15 15 18 20 18 15 13 14 17 16 14 12 12 11 11 9 3 9 6 6 5 4 5 3 1
29 28 27 27 25 25 25 24 23 23 22 22 21 22 22 20 20 18 19 18 17 19 19 15 13 12 17 16 14 12 12 11 11 10 8 8 6 4 6 5 2 2 1 0
28 28 27 27 26 26 25 24 24 23 22 22 22 24 25 23 20 20 19 19 18 18 17 16 15 16 16 15 13 11 11 8 5 6 5 4 4 3 2 1 0 1 1 -1
28 28 26 26 26 26 26 25 26 25 25 25 23 24 24 24 24 21 20 20 20 19 17 16 15 15 15 13 11 9 8 7 5 4 4 4 3 4 2 1 1 1 -1 -3

GFSNGP_sfc_dewp_132.txt.gz
Dewpoint
21 18 19 26 29 32 32 34 32 30 28 28 31 36 37 37 34 37 36 35 34 32 30 29 30 30 30 31 32 31 30 30 30 29 28 28 28 28 28 27 25 26 25 23
23 23 24 26 34 31 29 29 29 30 27 31 30 29 36 36 35 36 35 35 33 31 29 28 28 29 29 29 29 28 26 27 27 27 26 27 27 27 26 25 24 24 25 22
22 22 26 25 28 26 25 21 19 18 21 21 21 23 26 35 36 36 35 34 32 31 29 28 29 30 30 29 26 25 25 25 25 26 26 26 26 26 26 25 24 24 23 24
26 25 21 24 24 23 21 20 20 19 19 20 23 29 36 36 39 38 35 34 33 31 31 31 31 30 30 26 25 24 24 23 23 25 26 26 26 27 27 27 25 25 23 22
27 26 24 20 18 23 28 25 26 26 26 23 24 28 39 40 41 39 36 36 34 33 34 34 32 31 29 26 25 22 23 24 24 25 25 25 24 25 26 27 26 24 24 23
29 23 20 26 20 18 26 26 28 28 28 27 27 33 39 39 38 37 36 35 35 34 34 33 33 31 28 26 24 26 24 25 24 25 25 22 25 24 27 27 26 26 24 22
24 22 23 23 19 21 20 25 31 32 36 35 38 39 38 37 35 35 35 34 34 33 32 32 33 33 29 26 26 25 25 25 24 24 26 26 26 27 26 26 25 26 25 22
24 22 20 26 26 23 34 37 34 35 38 38 37 34 33 33 33 33 32 32 31 31 31 31 28 26 26 25 27 25 24 25 25 25 24 25 27 27 27 27 24 23 23 21
29 28 36 32 34 34 37 35 35 36 40 37 33 32 32 31 31 31 31 30 31 30 29 27 26 24 23 24 25 25 24 23 25 25 26 24 23 24 24 24 23 22 20 18
27 26 25 28 32 32 34 33 33 34 37 35 32 32 31 31 30 30 30 29 28 26 25 24 23 21 22 21 21 20 21 21 21 20 20 19 18 17 17 18 18 19 19 16
30 32 32 27 30 32 33 31 32 34 35 34 32 31 30 29 30 30 30 28 27 26 23 22 20 20 20 21 19 19 17 17 17 18 16 16 18 17 15 16 15 15 17 17
28 32 33 36 39 39 35 32 33 33 32 32 31 30 29 29 29 29 30 29 27 25 23 21 19 19 18 17 17 16 16 16 18 17 18 15 13 14 15 15 14 14 13 14
36 37 36 35 38 35 33 32 33 33 31 30 30 28 28 28 28 29 29 29 29 28 28 26 25 25 22 21 19 19 16 15 17 17 16 18 18 17 15 15 14 14 14 12
32 33 31 30 30 31 31 31 33 31 30 29 28 27 27 27 28 28 30 29 27 25 25 24 23 23 24 24 22 22 23 22 22 22 22 22 22 21 21 20 17 16 13 13
32 31 31 31 29 28 29 30 30 29 29 28 28 27 28 26 25 28 28 26 25 23 23 22 21 20 22 22 22 23 23 23 24 23 23 21 22 21 20 19 18 18 16 11
31 29 28 28 26 26 27 28 28 28 28 28 28 27 26 25 26 25 25 24 24 23 21 20 20 21 22 23 23 22 22 19 21 20 21 20 20 18 17 17 16 16 12 8
30 29 28 27 26 26 26 27 28 28 28 27 27 27 25 26 26 23 23 22 23 21 20 20 19 20 21 21 20 19 19 20 16 19 17 17 17 16 15 14 13 12 10 8
29 30 30 28 27 27 27 28 28 27 27 27 27 27 26 24 22 22 23 23 21 20 21 20 20 20 21 22 22 19 17 17 16 15 14 15 11 11 13 12 10 10 11 7
27 28 30 28 29 29 28 28 28 29 29 28 27 25 25 24 24 24 23 21 19 19 19 19 21 20 20 20 17 17 16 15 12 11 11 10 14 11 12 13 12 12 11 10
31 32 31 31 31 30 30 30 29 26 25 25 24 25 24 24 24 23 21 20 21 20 19 19 18 16 16 14 16 16 17 17 13 14 15 13 14 14 8 4 9 11 10 10
31 31 30 31 31 31 30 28 25 24 24 24 25 23 23 23 22 21 20 18 20 19 19 17 16 15 12 12 12 20 19 17 15 12 13 12 11 12 11 11 11 10 9 8
29 29 29 30 29 29 30 28 27 25 24 25 24 22 21 20 21 21 22 19 19 18 17 17 16 15 12 15 15 19 17 15 15 15 14 14 14 12 11 9 7 7 7 6
28 28 28 29 28 28 29 28 27 26 24 23 21 20 20 20 21 21 20 19 18 19 17 19 16 15 14 20 19 17 15 15 14 14 14 13 12 11 9 7 7 5 4 3
28 27 28 28 28 27 25 26 26 25 25 23 21 21 20 21 22 21 21 20 19 19 20 17 15 14 17 19 17 16 15 14 14 13 10 7 10 6 6 4 2 3 2 -1
28 27 27 26 25 24 24 24 25 25 23 22 21 22 21 21 22 22 21 20 19 20 19 14 14 14 19 18 17 15 15 14 13 12 9 9 8 5 5 5 1 2 -1 -2
27 27 27 27 27 27 25 25 24 24 23 23 23 24 25 24 24 21 20 19 19 19 17 15 15 17 18 17 15 14 14 9 10 10 9 8 7 6 4 2 0 -1 -1 -3
30 29 28 28 28 27 26 26 26 25 25 24 23 25 25 25 24 21 20 19 21 19 17 16 16 18 17 15 14 13 12 8 7 7 7 7 6 5 3 1 0 -0 -4 -6